Wetterdaten: Freitag, 19.02.2016
Datum Zeit Temp. A. Feuchte A. Luftdruck Regen Wind Richtung Richtung Sonnenschein ET UV Solar Taupunkt Windchill Windben Empfang
19.02.2016 00:00 2,8 C 88 % 1016,2 hPa 0,0 l/m 4,0 km/h (1 Bft) W-SW 244 0 min 0,000 mm 0,0 UV-I 0 W/m 1,0 C 2,8 C 4,8 km/h (1 Bft) 95,83 %
19.02.2016 00:02 2,8 C 88 % 1016,2 hPa 0,0 l/m 3,4 km/h (1 Bft) W-SW 244 0 min 0,000 mm 0,0 UV-I 0 W/m 1,0 C 2,8 C 4,8 km/h (1 Bft) 97,14 %
19.02.2016 00:03 2,8 C 88 % 1016,2 hPa 0,0 l/m 2,9 km/h (1 Bft) W-SW 244 0 min 0,000 mm 0,0 UV-I 0 W/m 1,0 C 2,8 C 4,8 km/h (1 Bft) 100,00 %
19.02.2016 00:04 2,8 C 88 % 1016,2 hPa 0,0 l/m 3,0 km/h (1 Bft) W-SW 244 0 min 0,000 mm 0,0 UV-I 0 W/m 1,0 C 2,8 C 4,8 km/h (1 Bft) 95,65 %
19.02.2016 00:05 2,8 C 87 % 1016,1 hPa 0,0 l/m 4,1 km/h (1 Bft) W-SW 238 0 min 0,000 mm 0,0 UV-I 0 W/m 0,9 C 2,8 C 6,4 km/h (2 Bft) 100,00 %
19.02.2016 00:06 2,8 C 88 % 1016,2 hPa 0,0 l/m 3,4 km/h (1 Bft) W-SW 238 0 min 0,000 mm 0,0 UV-I 0 W/m 1,0 C 2,8 C 4,8 km/h (1 Bft) 91,30 %
19.02.2016 00:07 2,8 C 88 % 1016,2 hPa 0,0 l/m 3,6 km/h (1 Bft) W-SW 238 0 min 0,000 mm 0,0 UV-I 0 W/m 1,0 C 2,8 C 4,8 km/h (1 Bft) 100,00 %
19.02.2016 00:08 2,8 C 87 % 1016,2 hPa 0,0 l/m 4,2 km/h (1 Bft) W-SW 240 0 min 0,000 mm 0,0 UV-I 0 W/m 0,9 C 2,8 C 4,8 km/h (1 Bft) 100,00 %
19.02.2016 00:09 2,8 C 87 % 1016,1 hPa 0,0 l/m 4,3 km/h (1 Bft) W-SW 255 0 min 0,000 mm 0,0 UV-I 0 W/m 0,9 C 2,8 C 6,4 km/h (2 Bft) 95,83 %
19.02.2016 00:10 2,8 C 87 % 1016,2 hPa 0,0 l/m 4,1 km/h (1 Bft) W-SW 255 0 min 0,000 mm 0,0 UV-I 0 W/m 0,9 C 2,8 C 6,4 km/h (2 Bft) 100,00 %
19.02.2016 00:11 2,8 C 87 % 1016,1 hPa 0,0 l/m 4,0 km/h (1 Bft) W-SW 255 0 min 0,000 mm 0,0 UV-I 0 W/m 0,9 C 2,8 C 4,8 km/h (1 Bft) 100,00 %
19.02.2016 00:12 2,8 C 87 % 1016,1 hPa 0,0 l/m 5,0 km/h (1 Bft) W-SW 253 0 min 0,000 mm 0,0 UV-I 0 W/m 0,9 C 2,8 C 6,4 km/h (2 Bft) 100,00 %
19.02.2016 00:13 2,8 C 87 % 1016,1 hPa 0,0 l/m 4,0 km/h (1 Bft) W-SW 253 0 min 0,000 mm 0,0 UV-I 0 W/m 0,9 C 2,8 C 4,8 km/h (1 Bft) 91,67 %
19.02.2016 00:14 2,8 C 87 % 1016,2 hPa 0,0 l/m 4,1 km/h (1 Bft) W-SW 253 0 min 0,000 mm 0,0 UV-I 0 W/m 0,9 C 2,8 C 6,4 km/h (2 Bft) 95,65 %
19.02.2016 00:15 2,8 C 88 % 1016,1 hPa 0,0 l/m 5,0 km/h (1 Bft) SW 235 0 min 0,000 mm 0,0 UV-I 0 W/m 1,0 C 2,8 C 6,4 km/h (2 Bft) 100,00 %
19.02.2016 00:16 2,8 C 87 % 1016,1 hPa 0,0 l/m 5,0 km/h (1 Bft) SW 234 0 min 0,000 mm 0,0 UV-I 0 W/m 0,9 C 2,8 C 6,4 km/h (2 Bft) 100,00 %
19.02.2016 00:17 2,8 C 88 % 1016,2 hPa 0,0 l/m 5,8 km/h (2 Bft) SW 231 0 min 0,000 mm 0,0 UV-I 0 W/m 1,0 C 2,8 C 8,0 km/h (2 Bft) 100,00 %
19.02.2016 00:18 2,8 C 88 % 1016,2 hPa 0,0 l/m 5,4 km/h (1 Bft) SW 236 0 min 0,000 mm 0,0 UV-I 0 W/m 1,0 C 2,8 C 8,0 km/h (2 Bft) 100,00 %
19.02.2016 00:19 2,8 C 88 % 1016,1 hPa 0,0 l/m 5,3 km/h (1 Bft) SW 232 0 min 0,000 mm 0,0 UV-I 0 W/m 1,0 C 2,8 C 8,0 km/h (2 Bft) 95,83 %
19.02.2016 00:20 2,8 C 88 % 1016,1 hPa 0,0 l/m 4,2 km/h (1 Bft) SW 225 0 min 0,000 mm 0,0 UV-I 0 W/m 1,0 C 2,8 C 6,4 km/h (2 Bft) 100,00 %
19.02.2016 00:21 2,8 C 88 % 1016,2 hPa 0,0 l/m 5,4 km/h (1 Bft) SW 222 0 min 0,000 mm 0,0 UV-I 0 W/m 1,0 C 2,8 C 6,4 km/h (2 Bft) 100,00 %
19.02.2016 00:22 2,8 C 88 % 1016,2 hPa 0,0 l/m 5,2 km/h (1 Bft) SW 228 0 min 0,000 mm 0,0 UV-I 0 W/m 1,0 C 2,8 C 6,4 km/h (2 Bft) 100,00 %
19.02.2016 00:23 2,8 C 88 % 1016,2 hPa 0,0 l/m 4,2 km/h (1 Bft) SW 235 0 min 0,000 mm 0,0 UV-I 0 W/m 1,0 C 2,8 C 6,4 km/h (2 Bft) 95,65 %
19.02.2016 00:24 2,8 C 88 % 1016,2 hPa 0,0 l/m 5,2 km/h (1 Bft) SW 223 0 min 0,000 mm 0,0 UV-I 0 W/m 1,0 C 2,8 C 8,0 km/h (2 Bft) 100,00 %
19.02.2016 00:25 2,8 C 88 % 1016,2 hPa 0,0 l/m 4,2 km/h (1 Bft) SW 230 0 min 0,000 mm 0,0 UV-I 0 W/m 1,0 C 2,8 C 6,4 km/h (2 Bft) 95,65 %
19.02.2016 00:26 2,8 C 88 % 1016,2 hPa 0,0 l/m 4,3 km/h (1 Bft) SW 223 0 min 0,000 mm 0,0 UV-I 0 W/m 1,0 C 2,8 C 4,8 km/h (1 Bft) 100,00 %
19.02.2016 00:27 2,8 C 88 % 1016,2 hPa 0,0 l/m 3,9 km/h (1 Bft) SW 225 0 min 0,000 mm 0,0 UV-I 0 W/m 1,0 C 2,8 C 4,8 km/h (1 Bft) 95,65 %
19.02.2016 00:28 2,8 C 88 % 1016,2 hPa 0,0 l/m 4,0 km/h (1 Bft) SW 225 0 min 0,000 mm 0,0 UV-I 0 W/m 1,0 C 2,8 C 4,8 km/h (1 Bft) 100,00 %
19.02.2016 00:29 2,8 C 88 % 1016,2 hPa 0,0 l/m 4,1 km/h (1 Bft) SW 225 0 min 0,000 mm 0,0 UV-I 0 W/m 1,0 C 2,8 C 4,8 km/h (1 Bft) 100,00 %
19.02.2016 00:30 2,8 C 88 % 1016,2 hPa 0,0 l/m 4,8 km/h (1 Bft) SW 223 0 min 0,000 mm 0,0 UV-I 0 W/m 1,0 C 2,8 C 6,4 km/h (2 Bft) 100,00 %
19.02.2016 00:31 2,8 C 88 % 1016,2 hPa 0,0 l/m 4,5 km/h (1 Bft) SW 232 0 min 0,000 mm 0,0 UV-I 0 W/m 1,0 C 2,8 C 6,4 km/h (2 Bft) 100,00 %
19.02.2016 00:32 2,8 C 88 % 1016,2 hPa 0,0 l/m 4,5 km/h (1 Bft) SW 232 0 min 0,000 mm 0,0 UV-I 0 W/m 1,0 C 2,8 C 6,4 km/h (2 Bft) 100,00 %
19.02.2016 00:33 2,8 C 88 % 1016,1 hPa 0,0 l/m 3,2 km/h (1 Bft) SW 232 0 min 0,000 mm 0,0 UV-I 0 W/m 1,0 C 2,8 C 4,8 km/h (1 Bft) 100,00 %
19.02.2016 00:34 2,8 C 88 % 1016,1 hPa 0,0 l/m 3,7 km/h (1 Bft) SW 232 0 min 0,000 mm 0,0 UV-I 0 W/m 1,0 C 2,8 C 4,8 km/h (1 Bft) 100,00 %
19.02.2016 00:35 2,8 C 88 % 1016,1 hPa 0,0 l/m 4,4 km/h (1 Bft) SW 232 0 min 0,000 mm 0,0 UV-I 0 W/m 1,0 C 2,8 C 6,4 km/h (2 Bft) 95,65 %
19.02.2016 00:36 2,8 C 88 % 1016,1 hPa 0,0 l/m 5,1 km/h (1 Bft) SW 232 0 min 0,000 mm 0,0 UV-I 0 W/m 1,0 C 2,8 C 8,0 km/h (2 Bft) 100,00 %
19.02.2016 00:37 2,8 C 88 % 1016,2 hPa 0,0 l/m 4,7 km/h (1 Bft) SW 231 0 min 0,000 mm 0,0 UV-I 0 W/m 1,0 C 2,8 C 8,0 km/h (2 Bft) 96,15 %
19.02.2016 00:38 2,8 C 88 % 1016,2 hPa 0,0 l/m 4,5 km/h (1 Bft) SW 232 0 min 0,000 mm 0,0 UV-I 0 W/m 1,0 C 2,8 C 6,4 km/h (2 Bft) 100,00 %
19.02.2016 00:39 2,8 C 88 % 1016,2 hPa 0,0 l/m 5,8 km/h (2 Bft) SW 232 0 min 0,000 mm 0,0 UV-I 0 W/m 1,0 C 2,8 C 8,0 km/h (2 Bft) 100,00 %
19.02.2016 00:40 2,8 C 88 % 1016,2 hPa 0,0 l/m 5,8 km/h (2 Bft) SW 233 0 min 0,000 mm 0,0 UV-I 0 W/m 1,0 C 2,8 C 8,0 km/h (2 Bft) 100,00 %
19.02.2016 00:41 2,8 C 88 % 1016,2 hPa 0,0 l/m 6,4 km/h (2 Bft) SW 223 0 min 0,000 mm 0,0 UV-I 0 W/m 1,0 C 2,8 C 8,0 km/h (2 Bft) 100,00 %
19.02.2016 00:42 2,8 C 88 % 1016,2 hPa 0,0 l/m 6,8 km/h (2 Bft) SW 225 0 min 0,000 mm 0,0 UV-I 0 W/m 1,0 C 2,4 C 9,7 km/h (2 Bft) 95,65 %
19.02.2016 00:43 2,8 C 88 % 1016,2 hPa 0,0 l/m 5,6 km/h (1 Bft) SW 230 0 min 0,000 mm 0,0 UV-I 0 W/m 1,0 C 2,8 C 8,0 km/h (2 Bft) 100,00 %
19.02.2016 00:44 2,8 C 88 % 1016,2 hPa 0,0 l/m 6,3 km/h (2 Bft) SW 225 0 min 0,000 mm 0,0 UV-I 0 W/m 1,0 C 2,8 C 8,0 km/h (2 Bft) 100,00 %
19.02.2016 00:45 2,8 C 88 % 1016,2 hPa 0,0 l/m 7,0 km/h (2 Bft) SW 224 0 min 0,000 mm 0,0 UV-I 0 W/m 1,0 C 2,2 C 9,7 km/h (2 Bft) 100,00 %
19.02.2016 00:46 2,8 C 89 % 1016,2 hPa 0,0 l/m 6,4 km/h (2 Bft) SW 233 0 min 0,000 mm 0,0 UV-I 0 W/m 1,2 C 2,8 C 8,0 km/h (2 Bft) 95,65 %
19.02.2016 00:47 2,8 C 89 % 1016,2 hPa 0,0 l/m 6,4 km/h (2 Bft) W-SW 238 0 min 0,000 mm 0,0 UV-I 0 W/m 1,2 C 2,8 C 8,0 km/h (2 Bft) 100,00 %
19.02.2016 00:48 2,8 C 89 % 1016,2 hPa 0,0 l/m 6,0 km/h (2 Bft) S-SW 213 0 min 0,000 mm 0,0 UV-I 0 W/m 1,2 C 2,8 C 8,0 km/h (2 Bft) 100,00 %
19.02.2016 00:49 2,8 C 89 % 1016,2 hPa 0,0 l/m 6,2 km/h (2 Bft) W-SW 237 0 min 0,000 mm 0,0 UV-I 0 W/m 1,2 C 2,8 C 8,0 km/h (2 Bft) 100,00 %
19.02.2016 00:50 2,8 C 89 % 1016,2 hPa 0,0 l/m 6,4 km/h (2 Bft) SW 227 0 min 0,000 mm 0,0 UV-I 0 W/m 1,2 C 2,8 C 8,0 km/h (2 Bft) 100,00 %
19.02.2016 00:51 2,8 C 89 % 1016,2 hPa 0,0 l/m 7,6 km/h (2 Bft) SW 236 0 min 0,000 mm 0,0 UV-I 0 W/m 1,2 C 1,7 C 9,7 km/h (2 Bft) 100,00 %
19.02.2016 00:52 2,8 C 89 % 1016,2 hPa 0,0 l/m 6,1 km/h (2 Bft) SW 222 0 min 0,000 mm 0,0 UV-I 0 W/m 1,2 C 2,8 C 8,0 km/h (2 Bft) 100,00 %
19.02.2016 00:53 2,8 C 89 % 1016,2 hPa 0,0 l/m 5,8 km/h (2 Bft) SW 222 0 min 0,000 mm 0,0 UV-I 0 W/m 1,2 C 2,8 C 8,0 km/h (2 Bft) 100,00 %
19.02.2016 00:54 2,8 C 89 % 1016,3 hPa 0,0 l/m 6,2 km/h (2 Bft) SW 229 0 min 0,000 mm 0,0 UV-I 0 W/m 1,2 C 2,8 C 8,0 km/h (2 Bft) 95,65 %
19.02.2016 00:55 2,8 C 89 % 1016,3 hPa 0,0 l/m 6,8 km/h (2 Bft) SW 230 0 min 0,000 mm 0,0 UV-I 0 W/m 1,2 C 2,4 C 8,0 km/h (2 Bft) 100,00 %
19.02.2016 00:56 2,8 C 89 % 1016,3 hPa 0,0 l/m 6,4 km/h (2 Bft) SW 231 0 min 0,000 mm 0,0 UV-I 0 W/m 1,2 C 2,8 C 8,0 km/h (2 Bft) 91,30 %
19.02.2016 00:57 2,8 C 89 % 1016,3 hPa 0,0 l/m 6,4 km/h (2 Bft) SW 229 0 min 0,000 mm 0,0 UV-I 0 W/m 1,2 C 2,8 C 8,0 km/h (2 Bft) 100,00 %
19.02.2016 00:58 2,8 C 89 % 1016,3 hPa 0,0 l/m 6,7 km/h (2 Bft) SW 217 0 min 0,000 mm 0,0 UV-I 0 W/m 1,2 C 2,5 C 8,0 km/h (2 Bft) 100,00 %
19.02.2016 00:59 2,8 C 89 % 1016,3 hPa 0,0 l/m 5,2 km/h (1 Bft) SW 221 0 min 0,000 mm 0,0 UV-I 0 W/m 1,2 C 2,8 C 6,4 km/h (2 Bft) 100,00 %
19.02.2016 01:00 2,8 C 89 % 1016,3 hPa 0,0 l/m 5,9 km/h (2 Bft) SW 216 0 min 0,000 mm 0,0 UV-I 0 W/m 1,2 C 2,8 C 8,0 km/h (2 Bft) 100,00 %
19.02.2016 01:01 2,8 C 88 % 1016,3 hPa 0,0 l/m 4,9 km/h (1 Bft) SW 217 0 min 0,000 mm 0,0 UV-I 0 W/m 1,0 C 2,8 C 6,4 km/h (2 Bft) 100,00 %
19.02.2016 01:02 2,8 C 88 % 1016,3 hPa 0,0 l/m 3,8 km/h (1 Bft) SW 223 0 min 0,000 mm 0,0 UV-I 0 W/m 1,0 C 2,8 C 4,8 km/h (1 Bft) 95,65 %
19.02.2016 01:03 2,8 C 88 % 1016,3 hPa 0,0 l/m 4,1 km/h (1 Bft) SW 227 0 min 0,000 mm 0,0 UV-I 0 W/m 1,0 C 2,8 C 6,4 km/h (2 Bft) 100,00 %
19.02.2016 01:04 2,8 C 88 % 1016,3 hPa 0,0 l/m 5,2 km/h (1 Bft) W-SW 251 0 min 0,000 mm 0,0 UV-I 0 W/m 1,0 C 2,8 C 8,0 km/h (2 Bft) 91,30 %
19.02.2016 01:05 2,8 C 88 % 1016,3 hPa 0,0 l/m 5,2 km/h (1 Bft) W-SW 255 0 min 0,000 mm 0,0 UV-I 0 W/m 1,0 C 2,8 C 6,4 km/h (2 Bft) 100,00 %
19.02.2016 01:06 2,8 C 88 % 1016,3 hPa 0,0 l/m 5,8 km/h (2 Bft) W-SW 254 0 min 0,000 mm 0,0 UV-I 0 W/m 1,0 C 2,8 C 6,4 km/h (2 Bft) 100,00 %
19.02.2016 01:07 2,8 C 88 % 1016,3 hPa 0,0 l/m 6,0 km/h (2 Bft) W-SW 257 0 min 0,000 mm 0,0 UV-I 0 W/m 1,0 C 2,8 C 8,0 km/h (2 Bft) 91,30 %
19.02.2016 01:08 2,9 C 88 % 1016,3 hPa 0,0 l/m 5,6 km/h (1 Bft) W-SW 256 0 min 0,000 mm 0,0 UV-I 0 W/m 1,1 C 2,9 C 6,4 km/h (2 Bft) 100,00 %
19.02.2016 01:09 2,9 C 88 % 1016,3 hPa 0,0 l/m 4,8 km/h (1 Bft) W-SW 257 0 min 0,000 mm 0,0 UV-I 0 W/m 1,1 C 2,9 C 6,4 km/h (2 Bft) 100,00 %
19.02.2016 01:10 2,9 C 88 % 1016,3 hPa 0,0 l/m 4,2 km/h (1 Bft) W-SW 256 0 min 0,000 mm 0,0 UV-I 0 W/m 1,1 C 2,9 C 4,8 km/h (1 Bft) 100,00 %
19.02.2016 01:11 2,9 C 88 % 1016,3 hPa 0,0 l/m 5,2 km/h (1 Bft) W-SW 257 0 min 0,000 mm 0,0 UV-I 0 W/m 1,1 C 2,9 C 6,4 km/h (2 Bft) 100,00 %
19.02.2016 01:12 2,9 C 88 % 1016,3 hPa 0,0 l/m 5,8 km/h (2 Bft) W-SW 258 0 min 0,000 mm 0,0 UV-I 0 W/m 1,1 C 2,9 C 6,4 km/h (2 Bft) 100,00 %
19.02.2016 01:13 2,9 C 88 % 1016,3 hPa 0,0 l/m 5,7 km/h (1 Bft) W-SW 258 0 min 0,000 mm 0,0 UV-I 0 W/m 1,1 C 2,9 C 6,4 km/h (2 Bft) 100,00 %
19.02.2016 01:14 2,9 C 88 % 1016,3 hPa 0,0 l/m 4,6 km/h (1 Bft) W-SW 258 0 min 0,000 mm 0,0 UV-I 0 W/m 1,1 C 2,9 C 6,4 km/h (2 Bft) 100,00 %
19.02.2016 01:15 2,9 C 88 % 1016,3 hPa 0,0 l/m 4,4 km/h (1 Bft) W-SW 257 0 min 0,000 mm 0,0 UV-I 0 W/m 1,1 C 2,9 C 4,8 km/h (1 Bft) 100,00 %
19.02.2016 01:16 2,9 C 88 % 1016,3 hPa 0,0 l/m 4,4 km/h (1 Bft) W-SW 257 0 min 0,000 mm 0,0 UV-I 0 W/m 1,1 C 2,9 C 6,4 km/h (2 Bft) 100,00 %
19.02.2016 01:17 2,9 C 88 % 1016,3 hPa 0,0 l/m 4,2 km/h (1 Bft) W-SW 257 0 min 0,000 mm 0,0 UV-I 0 W/m 1,1 C 2,9 C 6,4 km/h (2 Bft) 98,65 %
19.02.2016 01:18 2,9 C 88 % 1016,3 hPa 0,0 l/m 4,0 km/h (1 Bft) W-SW 257 0 min 0,000 mm 0,0 UV-I 0 W/m 1,1 C 2,9 C 4,8 km/h (1 Bft) 100,00 %
19.02.2016 01:19 2,9 C 88 % 1016,3 hPa 0,0 l/m 3,2 km/h (1 Bft) W-SW 257 0 min 0,000 mm 0,0 UV-I 0 W/m 1,1 C 2,9 C 4,8 km/h (1 Bft) 100,00 %
19.02.2016 01:20 2,9 C 88 % 1016,3 hPa 0,0 l/m 3,3 km/h (1 Bft) W-SW 257 0 min 0,000 mm 0,0 UV-I 0 W/m 1,1 C 2,9 C 4,8 km/h (1 Bft) 100,00 %
19.02.2016 01:21 2,9 C 88 % 1016,3 hPa 0,0 l/m 3,9 km/h (1 Bft) W-SW 257 0 min 0,000 mm 0,0 UV-I 0 W/m 1,1 C 2,9 C 6,4 km/h (2 Bft) 100,00 %
19.02.2016 01:22 2,9 C 88 % 1016,3 hPa 0,0 l/m 3,7 km/h (1 Bft) W-SW 257 0 min 0,000 mm 0,0 UV-I 0 W/m 1,1 C 2,9 C 4,8 km/h (1 Bft) 95,65 %
19.02.2016 01:23 2,8 C 88 % 1016,3 hPa 0,0 l/m 3,4 km/h (1 Bft) W-SW 257 0 min 0,000 mm 0,0 UV-I 0 W/m 1,0 C 2,8 C 4,8 km/h (1 Bft) 100,00 %
19.02.2016 01:24 2,8 C 88 % 1016,3 hPa 0,0 l/m 2,9 km/h (1 Bft) W-SW 256 0 min 0,000 mm 0,0 UV-I 0 W/m 1,0 C 2,8 C 4,8 km/h (1 Bft) 91,30 %
19.02.2016 01:25 2,8 C 88 % 1016,3 hPa 0,0 l/m 3,0 km/h (1 Bft) W-SW 256 0 min 0,000 mm 0,0 UV-I 0 W/m 1,0 C 2,8 C 4,8 km/h (1 Bft) 100,00 %
19.02.2016 01:26 2,8 C 89 % 1016,2 hPa 0,0 l/m 3,9 km/h (1 Bft) W-SW 256 0 min 0,000 mm 0,0 UV-I 0 W/m 1,2 C 2,8 C 4,8 km/h (1 Bft) 91,30 %
19.02.2016 01:27 2,8 C 89 % 1016,2 hPa 0,0 l/m 3,9 km/h (1 Bft) W-SW 256 0 min 0,000 mm 0,0 UV-I 0 W/m 1,2 C 2,8 C 4,8 km/h (1 Bft) 95,83 %
19.02.2016 01:28 2,8 C 89 % 1016,3 hPa 0,0 l/m 4,4 km/h (1 Bft) W-SW 256 0 min 0,000 mm 0,0 UV-I 0 W/m 1,2 C 2,8 C 4,8 km/h (1 Bft) 95,65 %
19.02.2016 01:29 2,8 C 89 % 1016,2 hPa 0,0 l/m 3,7 km/h (1 Bft) W-SW 256 0 min 0,000 mm 0,0 UV-I 0 W/m 1,2 C 2,8 C 4,8 km/h (1 Bft) 100,00 %
19.02.2016 01:30 2,8 C 89 % 1016,2 hPa 0,0 l/m 4,6 km/h (1 Bft) W-SW 255 0 min 0,000 mm 0,0 UV-I 0 W/m 1,2 C 2,8 C 6,4 km/h (2 Bft) 95,65 %
19.02.2016 01:31 2,8 C 89 % 1016,2 hPa 0,0 l/m 3,3 km/h (1 Bft) W-SW 255 0 min 0,000 mm 0,0 UV-I 0 W/m 1,2 C 2,8 C 4,8 km/h (1 Bft) 95,83 %
19.02.2016 01:32 2,8 C 89 % 1016,2 hPa 0,0 l/m 3,4 km/h (1 Bft) W-SW 255 0 min 0,000 mm 0,0 UV-I 0 W/m 1,2 C 2,8 C 4,8 km/h (1 Bft) 100,00 %
19.02.2016 01:33 2,8 C 89 % 1016,2 hPa 0,0 l/m 4,5 km/h (1 Bft) W-SW 254 0 min 0,000 mm 0,0 UV-I 0 W/m 1,2 C 2,8 C 6,4 km/h (2 Bft) 95,83 %
19.02.2016 01:34 2,8 C 88 % 1016,2 hPa 0,0 l/m 3,7 km/h (1 Bft) W-SW 254 0 min 0,000 mm 0,0 UV-I 0 W/m 1,0 C 2,8 C 4,8 km/h (1 Bft) 100,00 %
19.02.2016 01:35 2,8 C 88 % 1016,2 hPa 0,0 l/m 4,9 km/h (1 Bft) W-SW 252 0 min 0,000 mm 0,0 UV-I 0 W/m 1,0 C 2,8 C 6,4 km/h (2 Bft) 95,83 %
19.02.2016 01:36 2,8 C 88 % 1016,2 hPa 0,0 l/m 4,5 km/h (1 Bft) W-SW 252 0 min 0,000 mm 0,0 UV-I 0 W/m 1,0 C 2,8 C 6,4 km/h (2 Bft) 100,00 %
19.02.2016 01:37 2,8 C 88 % 1016,2 hPa 0,0 l/m 5,5 km/h (1 Bft) W-SW 246 0 min 0,000 mm 0,0 UV-I 0 W/m 1,0 C 2,8 C 6,4 km/h (2 Bft) 95,83 %
19.02.2016 01:38 2,9 C 88 % 1016,2 hPa 0,0 l/m 4,6 km/h (1 Bft) W-SW 239 0 min 0,000 mm 0,0 UV-I 0 W/m 1,1 C 2,9 C 6,4 km/h (2 Bft) 95,65 %
19.02.2016 01:39 2,9 C 88 % 1016,2 hPa 0,0 l/m 4,5 km/h (1 Bft) SW 233 0 min 0,000 mm 0,0 UV-I 0 W/m 1,1 C 2,9 C 6,4 km/h (2 Bft) 100,00 %
19.02.2016 01:40 2,9 C 88 % 1016,2 hPa 0,0 l/m 4,7 km/h (1 Bft) SW 230 0 min 0,000 mm 0,0 UV-I 0 W/m 1,1 C 2,9 C 6,4 km/h (2 Bft) 95,65 %
19.02.2016 01:41 2,9 C 88 % 1016,2 hPa 0,0 l/m 4,6 km/h (1 Bft) SW 234 0 min 0,000 mm 0,0 UV-I 0 W/m 1,1 C 2,9 C 6,4 km/h (2 Bft) 100,00 %
19.02.2016 01:42 2,9 C 88 % 1016,2 hPa 0,0 l/m 4,0 km/h (1 Bft) SW 234 0 min 0,000 mm 0,0 UV-I 0 W/m 1,1 C 2,9 C 4,8 km/h (1 Bft) 95,65 %
19.02.2016 01:43 2,9 C 88 % 1016,1 hPa 0,0 l/m 4,1 km/h (1 Bft) SW 229 0 min 0,000 mm 0,0 UV-I 0 W/m 1,1 C 2,9 C 6,4 km/h (2 Bft) 100,00 %
19.02.2016 01:44 2,9 C 88 % 1016,1 hPa 0,0 l/m 3,5 km/h (1 Bft) SW 229 0 min 0,000 mm 0,0 UV-I 0 W/m 1,1 C 2,9 C 6,4 km/h (2 Bft) 91,30 %
19.02.2016 01:45 2,9 C 88 % 1016,1 hPa 0,0 l/m 3,7 km/h (1 Bft) SW 229 0 min 0,000 mm 0,0 UV-I 0 W/m 1,1 C 2,9 C 4,8 km/h (1 Bft) 91,67 %
19.02.2016 01:46 2,9 C 88 % 1016,2 hPa 0,0 l/m 3,6 km/h (1 Bft) SW 229 0 min 0,000 mm 0,0 UV-I 0 W/m 1,1 C 2,9 C 6,4 km/h (2 Bft) 96,43 %
19.02.2016 01:47 2,9 C 88 % 1016,1 hPa 0,0 l/m 4,6 km/h (1 Bft) W-SW 240 0 min 0,000 mm 0,0 UV-I 0 W/m 1,1 C 2,9 C 6,4 km/h (2 Bft) 95,65 %
19.02.2016 01:48 2,9 C 88 % 1016,2 hPa 0,0 l/m 4,9 km/h (1 Bft) SW 232 0 min 0,000 mm 0,0 UV-I 0 W/m 1,1 C 2,9 C 6,4 km/h (2 Bft) 96,30 %
19.02.2016 01:49 2,9 C 88 % 1016,2 hPa 0,0 l/m 5,6 km/h (1 Bft) SW 223 0 min 0,000 mm 0,0 UV-I 0 W/m 1,1 C 2,9 C 6,4 km/h (2 Bft) 95,65 %
19.02.2016 01:50 2,9 C 88 % 1016,2 hPa 0,0 l/m 5,7 km/h (1 Bft) SW 234 0 min 0,000 mm 0,0 UV-I 0 W/m 1,1 C 2,9 C 8,0 km/h (2 Bft) 95,83 %
19.02.2016 01:51 2,9 C 88 % 1016,2 hPa 0,0 l/m 5,6 km/h (1 Bft) W-SW 246 0 min 0,000 mm 0,0 UV-I 0 W/m 1,1 C 2,9 C 8,0 km/h (2 Bft) 95,65 %
19.02.2016 01:52 2,9 C 88 % 1016,2 hPa 0,0 l/m 5,6 km/h (1 Bft) SW 219 0 min 0,000 mm 0,0 UV-I 0 W/m 1,1 C 2,9 C 8,0 km/h (2 Bft) 100,00 %
19.02.2016 01:53 2,9 C 88 % 1016,2 hPa 0,0 l/m 5,2 km/h (1 Bft) SW 227 0 min 0,000 mm 0,0 UV-I 0 W/m 1,1 C 2,9 C 8,0 km/h (2 Bft) 91,30 %
19.02.2016 01:54 2,9 C 88 % 1016,2 hPa 0,0 l/m 5,3 km/h (1 Bft) SW 222 0 min 0,000 mm 0,0 UV-I 0 W/m 1,1 C 2,9 C 6,4 km/h (2 Bft) 100,00 %
19.02.2016 01:55 2,9 C 88 % 1016,2 hPa 0,0 l/m 6,1 km/h (2 Bft) SW 230 0 min 0,000 mm 0,0 UV-I 0 W/m 1,1 C 2,9 C 8,0 km/h (2 Bft) 95,65 %
19.02.2016 01:56 2,9 C 88 % 1016,2 hPa 0,0 l/m 4,5 km/h (1 Bft) SW 227 0 min 0,000 mm 0,0 UV-I 0 W/m 1,1 C 2,9 C 6,4 km/h (2 Bft) 91,67 %
19.02.2016 01:57 2,9 C 88 % 1016,2 hPa 0,0 l/m 5,4 km/h (1 Bft) SW 235 0 min 0,000 mm 0,0 UV-I 0 W/m 1,1 C 2,9 C 8,0 km/h (2 Bft) 95,65 %
19.02.2016 01:58 2,9 C 88 % 1016,2 hPa 0,0 l/m 5,8 km/h (2 Bft) SW 234 0 min 0,000 mm 0,0 UV-I 0 W/m 1,1 C 2,9 C 8,0 km/h (2 Bft) 95,83 %
19.02.2016 01:59 2,9 C 88 % 1016,2 hPa 0,0 l/m 5,0 km/h (1 Bft) SW 223 0 min 0,000 mm 0,0 UV-I 0 W/m 1,1 C 2,9 C 8,0 km/h (2 Bft) 100,00 %
19.02.2016 02:00 2,9 C 88 % 1016,1 hPa 0,0 l/m 5,5 km/h (1 Bft) SW 223 0 min 0,000 mm 0,0 UV-I 0 W/m 1,1 C 2,9 C 8,0 km/h (2 Bft) 95,83 %
19.02.2016 02:01 2,9 C 88 % 1016,2 hPa 0,0 l/m 6,7 km/h (2 Bft) SW 231 0 min 0,000 mm 0,0 UV-I 0 W/m 1,1 C 2,6 C 8,0 km/h (2 Bft) 100,00 %
19.02.2016 02:02 2,9 C 89 % 1016,2 hPa 0,0 l/m 6,3 km/h (2 Bft) SW 223 0 min 0,000 mm 0,0 UV-I 0 W/m 1,3 C 2,9 C 8,0 km/h (2 Bft) 100,00 %
19.02.2016 02:03 2,9 C 89 % 1016,2 hPa 0,0 l/m 6,6 km/h (2 Bft) SW 236 0 min 0,000 mm 0,0 UV-I 0 W/m 1,3 C 2,7 C 8,0 km/h (2 Bft) 100,00 %
19.02.2016 02:04 2,9 C 89 % 1016,2 hPa 0,0 l/m 6,3 km/h (2 Bft) SW 233 0 min 0,000 mm 0,0 UV-I 0 W/m 1,3 C 2,9 C 8,0 km/h (2 Bft) 100,00 %
19.02.2016 02:05 2,9 C 89 % 1016,2 hPa 0,0 l/m 6,9 km/h (2 Bft) S-SW 213 0 min 0,000 mm 0,0 UV-I 0 W/m 1,3 C 2,4 C 8,0 km/h (2 Bft) 100,00 %
19.02.2016 02:06 2,9 C 89 % 1016,2 hPa 0,0 l/m 6,9 km/h (2 Bft) SW 232 0 min 0,000 mm 0,0 UV-I 0 W/m 1,3 C 2,4 C 8,0 km/h (2 Bft) 100,00 %
19.02.2016 02:07 2,9 C 89 % 1016,2 hPa 0,0 l/m 7,3 km/h (2 Bft) W-SW 238 0 min 0,000 mm 0,0 UV-I 0 W/m 1,3 C 2,0 C 9,7 km/h (2 Bft) 100,00 %
19.02.2016 02:08 2,9 C 88 % 1016,2 hPa 0,0 l/m 6,6 km/h (2 Bft) SW 225 0 min 0,000 mm 0,0 UV-I 0 W/m 1,1 C 2,7 C 9,7 km/h (2 Bft) 95,65 %
19.02.2016 02:09 2,9 C 88 % 1016,2 hPa 0,0 l/m 8,3 km/h (2 Bft) SW 226 0 min 0,000 mm 0,0 UV-I 0 W/m 1,1 C 1,1 C 9,7 km/h (2 Bft) 95,83 %
19.02.2016 02:10 2,9 C 88 % 1016,1 hPa 0,0 l/m 7,9 km/h (2 Bft) SW 223 0 min 0,000 mm 0,0 UV-I 0 W/m 1,1 C 1,5 C 9,7 km/h (2 Bft) 100,00 %
19.02.2016 02:11 2,9 C 88 % 1016,2 hPa 0,0 l/m 7,7 km/h (2 Bft) SW 228 0 min 0,000 mm 0,0 UV-I 0 W/m 1,1 C 1,7 C 11,3 km/h (2 Bft) 100,00 %
19.02.2016 02:12 2,9 C 88 % 1016,2 hPa 0,0 l/m 8,0 km/h (2 Bft) W-SW 237 0 min 0,000 mm 0,0 UV-I 0 W/m 1,1 C 1,4 C 11,3 km/h (2 Bft) 95,65 %
19.02.2016 02:13 2,9 C 88 % 1016,2 hPa 0,0 l/m 7,1 km/h (2 Bft) SW 221 0 min 0,000 mm 0,0 UV-I 0 W/m 1,1 C 2,2 C 9,7 km/h (2 Bft) 100,00 %
19.02.2016 02:14 2,9 C 88 % 1016,2 hPa 0,0 l/m 7,2 km/h (2 Bft) SW 225 0 min 0,000 mm 0,0 UV-I 0 W/m 1,1 C 2,1 C 9,7 km/h (2 Bft) 95,65 %
19.02.2016 02:15 3,0 C 88 % 1016,1 hPa 0,0 l/m 7,0 km/h (2 Bft) SW 219 0 min 0,000 mm 0,0 UV-I 0 W/m 1,2 C 2,4 C 8,0 km/h (2 Bft) 100,00 %
19.02.2016 02:16 3,0 C 88 % 1016,2 hPa 0,0 l/m 6,8 km/h (2 Bft) SW 224 0 min 0,000 mm 0,0 UV-I 0 W/m 1,2 C 2,6 C 8,0 km/h (2 Bft) 100,00 %
19.02.2016 02:17 3,0 C 88 % 1016,1 hPa 0,0 l/m 6,8 km/h (2 Bft) S-SW 213 0 min 0,000 mm 0,0 UV-I 0 W/m 1,2 C 2,6 C 8,0 km/h (2 Bft) 100,00 %
19.02.2016 02:18 3,0 C 88 % 1016,2 hPa 0,0 l/m 7,8 km/h (2 Bft) SW 232 0 min 0,000 mm 0,0 UV-I 0 W/m 1,2 C 1,7 C 9,7 km/h (2 Bft) 100,00 %
19.02.2016 02:19 3,0 C 88 % 1016,2 hPa 0,0 l/m 6,7 km/h (2 Bft) SW 227 0 min 0,000 mm 0,0 UV-I 0 W/m 1,2 C 2,7 C 9,7 km/h (2 Bft) 100,00 %
19.02.2016 02:20 3,0 C 88 % 1016,2 hPa 0,0 l/m 6,9 km/h (2 Bft) SW 224 0 min 0,000 mm 0,0 UV-I 0 W/m 1,2 C 2,5 C 8,0 km/h (2 Bft) 100,00 %
19.02.2016 02:21 3,0 C 88 % 1016,2 hPa 0,0 l/m 6,4 km/h (2 Bft) SW 233 0 min 0,000 mm 0,0 UV-I 0 W/m 1,2 C 3,0 C 8,0 km/h (2 Bft) 100,00 %
19.02.2016 02:22 3,0 C 88 % 1016,1 hPa 0,0 l/m 6,6 km/h (2 Bft) SW 229 0 min 0,000 mm 0,0 UV-I 0 W/m 1,2 C 2,8 C 8,0 km/h (2 Bft) 100,00 %
19.02.2016 02:23 3,0 C 88 % 1016,2 hPa 0,0 l/m 5,8 km/h (2 Bft) W-SW 238 0 min 0,000 mm 0,0 UV-I 0 W/m 1,2 C 3,0 C 8,0 km/h (2 Bft) 100,00 %
19.02.2016 02:24 3,0 C 88 % 1016,2 hPa 0,0 l/m 6,0 km/h (2 Bft) SW 235 0 min 0,000 mm 0,0 UV-I 0 W/m 1,2 C 3,0 C 8,0 km/h (2 Bft) 100,00 %
19.02.2016 02:25 3,0 C 88 % 1016,2 hPa 0,0 l/m 4,6 km/h (1 Bft) S-SW 213 0 min 0,000 mm 0,0 UV-I 0 W/m 1,2 C 3,0 C 6,4 km/h (2 Bft) 100,00 %
19.02.2016 02:26 3,0 C 88 % 1016,1 hPa 0,0 l/m 6,6 km/h (2 Bft) SW 235 0 min 0,000 mm 0,0 UV-I 0 W/m 1,2 C 2,8 C 8,0 km/h (2 Bft) 100,00 %
19.02.2016 02:27 3,0 C 88 % 1016,2 hPa 0,0 l/m 7,1 km/h (2 Bft) SW 221 0 min 0,000 mm 0,0 UV-I 0 W/m 1,2 C 2,3 C 9,7 km/h (2 Bft) 100,00 %
19.02.2016 02:28 3,0 C 88 % 1016,2 hPa 0,0 l/m 7,0 km/h (2 Bft) SW 225 0 min 0,000 mm 0,0 UV-I 0 W/m 1,2 C 2,4 C 9,7 km/h (2 Bft) 100,00 %
19.02.2016 02:29 3,0 C 88 % 1016,2 hPa 0,0 l/m 8,1 km/h (2 Bft) W-SW 238 0 min 0,000 mm 0,0 UV-I 0 W/m 1,2 C 1,4 C 9,7 km/h (2 Bft) 95,65 %
19.02.2016 02:30 3,0 C 88 % 1016,2 hPa 0,0 l/m 8,0 km/h (2 Bft) SW 229 0 min 0,000 mm 0,0 UV-I 0 W/m 1,2 C 1,5 C 9,7 km/h (2 Bft) 100,00 %
19.02.2016 02:31 3,0 C 88 % 1016,2 hPa 0,0 l/m 7,2 km/h (2 Bft) S-SW 213 0 min 0,000 mm 0,0 UV-I 0 W/m 1,2 C 2,2 C 9,7 km/h (2 Bft) 100,00 %
19.02.2016 02:32 3,0 C 88 % 1016,2 hPa 0,0 l/m 7,2 km/h (2 Bft) SW 230 0 min 0,000 mm 0,0 UV-I 0 W/m 1,2 C 2,2 C 9,7 km/h (2 Bft) 100,00 %
19.02.2016 02:33 3,0 C 88 % 1016,2 hPa 0,0 l/m 7,2 km/h (2 Bft) W-SW 240 0 min 0,000 mm 0,0 UV-I 0 W/m 1,2 C 2,2 C 9,7 km/h (2 Bft) 95,65 %
19.02.2016 02:34 3,0 C 88 % 1016,1 hPa 0,0 l/m 6,4 km/h (2 Bft) SW 225 0 min 0,000 mm 0,0 UV-I 0 W/m 1,2 C 3,0 C 8,0 km/h (2 Bft) 100,00 %
19.02.2016 02:35 3,0 C 88 % 1016,1 hPa 0,0 l/m 6,6 km/h (2 Bft) SW 235 0 min 0,000 mm 0,0 UV-I 0 W/m 1,2 C 2,8 C 8,0 km/h (2 Bft) 100,00 %
19.02.2016 02:36 3,0 C 88 % 1016,1 hPa 0,0 l/m 6,9 km/h (2 Bft) SW 229 0 min 0,000 mm 0,0 UV-I 0 W/m 1,2 C 2,5 C 9,7 km/h (2 Bft) 100,00 %
19.02.2016 02:37 3,0 C 88 % 1016,1 hPa 0,0 l/m 6,8 km/h (2 Bft) SW 234 0 min 0,000 mm 0,0 UV-I 0 W/m 1,2 C 2,6 C 9,7 km/h (2 Bft) 100,00 %
19.02.2016 02:38 3,0 C 88 % 1016,1 hPa 0,0 l/m 7,0 km/h (2 Bft) SW 225 0 min 0,000 mm 0,0 UV-I 0 W/m 1,2 C 2,4 C 9,7 km/h (2 Bft) 100,00 %
19.02.2016 02:39 3,0 C 88 % 1016,1 hPa 0,0 l/m 6,8 km/h (2 Bft) W-SW 247 0 min 0,000 mm 0,0 UV-I 0 W/m 1,2 C 2,6 C 12,9 km/h (3 Bft) 100,00 %
19.02.2016 02:40 3,0 C 88 % 1016,1 hPa 0,0 l/m 5,9 km/h (2 Bft) SW 224 0 min 0,000 mm 0,0 UV-I 0 W/m 1,2 C 3,0 C 8,0 km/h (2 Bft) 100,00 %
19.02.2016 02:41 3,0 C 88 % 1016,2 hPa 0,0 l/m 7,1 km/h (2 Bft) S-SW 209 0 min 0,000 mm 0,0 UV-I 0 W/m 1,2 C 2,3 C 9,7 km/h (2 Bft) 91,67 %
19.02.2016 02:42 2,9 C 88 % 1016,2 hPa 0,0 l/m 6,1 km/h (2 Bft) SW 234 0 min 0,000 mm 0,0 UV-I 0 W/m 1,1 C 2,9 C 6,4 km/h (2 Bft) 100,00 %
19.02.2016 02:43 2,9 C 88 % 1016,2 hPa 0,0 l/m 6,5 km/h (2 Bft) SW 234 0 min 0,000 mm 0,0 UV-I 0 W/m 1,1 C 2,8 C 8,0 km/h (2 Bft) 100,00 %
19.02.2016 02:44 3,0 C 88 % 1016,2 hPa 0,0 l/m 6,8 km/h (2 Bft) W-SW 242 0 min 0,000 mm 0,0 UV-I 0 W/m 1,2 C 2,6 C 9,7 km/h (2 Bft) 100,00 %
19.02.2016 02:45 3,0 C 88 % 1016,2 hPa 0,0 l/m 7,5 km/h (2 Bft) SW 229 0 min 0,000 mm 0,0 UV-I 0 W/m 1,2 C 2,0 C 9,7 km/h (2 Bft) 100,00 %
19.02.2016 02:46 2,9 C 88 % 1016,2 hPa 0,0 l/m 6,8 km/h (2 Bft) SW 219 0 min 0,000 mm 0,0 UV-I 0 W/m 1,1 C 2,5 C 8,0 km/h (2 Bft) 100,00 %
19.02.2016 02:47 3,0 C 88 % 1016,2 hPa 0,0 l/m 5,7 km/h (1 Bft) SW 229 0 min 0,000 mm 0,0 UV-I 0 W/m 1,2 C 3,0 C 8,0 km/h (2 Bft) 100,00 %
19.02.2016 02:48 3,0 C 88 % 1016,2 hPa 0,0 l/m 5,1 km/h (1 Bft) W-SW 244 0 min 0,000 mm 0,0 UV-I 0 W/m 1,2 C 3,0 C 6,4 km/h (2 Bft) 100,00 %
19.02.2016 02:49 3,0 C 88 % 1016,2 hPa 0,0 l/m 5,6 km/h (1 Bft) SW 219 0 min 0,000 mm 0,0 UV-I 0 W/m 1,2 C 3,0 C 8,0 km/h (2 Bft) 100,00 %
19.02.2016 02:50 3,0 C 88 % 1016,2 hPa 0,0 l/m 5,3 km/h (1 Bft) SW 223 0 min 0,000 mm 0,0 UV-I 0 W/m 1,2 C 3,0 C 6,4 km/h (2 Bft) 96,15 %
19.02.2016 02:51 2,9 C 88 % 1016,2 hPa 0,0 l/m 5,4 km/h (1 Bft) W-SW 242 0 min 0,000 mm 0,0 UV-I 0 W/m 1,1 C 2,9 C 8,0 km/h (2 Bft) 100,00 %
19.02.2016 02:52 3,0 C 88 % 1016,2 hPa 0,0 l/m 4,7 km/h (1 Bft) W-SW 242 0 min 0,000 mm 0,0 UV-I 0 W/m 1,2 C 3,0 C 6,4 km/h (2 Bft) 95,65 %
19.02.2016 02:53 3,0 C 88 % 1016,2 hPa 0,0 l/m 6,2 km/h (2 Bft) W-SW 252 0 min 0,000 mm 0,0 UV-I 0 W/m 1,2 C 3,0 C 9,7 km/h (2 Bft) 100,00 %
19.02.2016 02:54 3,0 C 88 % 1016,3 hPa 0,0 l/m 6,4 km/h (2 Bft) W-SW 255 0 min 0,000 mm 0,0 UV-I 0 W/m 1,2 C 3,0 C 11,3 km/h (2 Bft) 95,65 %
19.02.2016 02:55 3,0 C 88 % 1016,3 hPa 0,0 l/m 5,6 km/h (1 Bft) W-SW 255 0 min 0,000 mm 0,0 UV-I 0 W/m 1,2 C 3,0 C 6,4 km/h (2 Bft) 100,00 %
19.02.2016 02:56 3,0 C 88 % 1016,3 hPa 0,0 l/m 5,1 km/h (1 Bft) W-SW 245 0 min 0,000 mm 0,0 UV-I 0 W/m 1,2 C 3,0 C 6,4 km/h (2 Bft) 100,00 %
19.02.2016 02:57 3,0 C 88 % 1016,2 hPa 0,0 l/m 6,4 km/h (2 Bft) W-SW 250 0 min 0,000 mm 0,0 UV-I 0 W/m 1,2 C 3,0 C 9,7 km/h (2 Bft) 100,00 %
19.02.2016 02:58 3,0 C 88 % 1016,2 hPa 0,0 l/m 4,9 km/h (1 Bft) W 265 0 min 0,000 mm 0,0 UV-I 0 W/m 1,2 C 3,0 C 6,4 km/h (2 Bft) 100,00 %
19.02.2016 02:59 3,0 C 88 % 1016,2 hPa 0,0 l/m 5,7 km/h (1 Bft) W 262 0 min 0,000 mm 0,0 UV-I 0 W/m 1,2 C 3,0 C 11,3 km/h (2 Bft) 100,00 %
19.02.2016 03:00 3,0 C 88 % 1016,2 hPa 0,0 l/m 5,8 km/h (2 Bft) W-SW 250 0 min 0,000 mm 0,0 UV-I 0 W/m 1,2 C 3,0 C 11,3 km/h (2 Bft) 100,00 %
19.02.2016 03:01 3,0 C 88 % 1016,2 hPa 0,0 l/m 4,8 km/h (1 Bft) W-SW 254 0 min 0,000 mm 0,0 UV-I 0 W/m 1,2 C 3,0 C 6,4 km/h (2 Bft) 95,83 %
19.02.2016 03:02 3,0 C 88 % 1016,2 hPa 0,0 l/m 5,1 km/h (1 Bft) W-SW 256 0 min 0,000 mm 0,0 UV-I 0 W/m 1,2 C 3,0 C 6,4 km/h (2 Bft) 100,00 %
19.02.2016 03:03 3,0 C 88 % 1016,2 hPa 0,0 l/m 7,1 km/h (2 Bft) W-SW 250 0 min 0,000 mm 0,0 UV-I 0 W/m 1,2 C 2,3 C 9,7 km/h (2 Bft) 100,00 %
19.02.2016 03:04 3,0 C 88 % 1016,3 hPa 0,0 l/m 6,0 km/h (2 Bft) W-SW 257 0 min 0,000 mm 0,0 UV-I 0 W/m 1,2 C 3,0 C 8,0 km/h (2 Bft) 100,00 %
19.02.2016 03:05 3,0 C 88 % 1016,3 hPa 0,0 l/m 5,7 km/h (1 Bft) W 265 0 min 0,000 mm 0,0 UV-I 0 W/m 1,2 C 3,0 C 6,4 km/h (2 Bft) 100,00 %
19.02.2016 03:06 3,1 C 88 % 1016,3 hPa 0,0 l/m 5,4 km/h (1 Bft) W-SW 251 0 min 0,000 mm 0,0 UV-I 0 W/m 1,3 C 3,1 C 6,4 km/h (2 Bft) 100,00 %
19.02.2016 03:07 3,1 C 88 % 1016,3 hPa 0,0 l/m 5,4 km/h (1 Bft) W-SW 257 0 min 0,000 mm 0,0 UV-I 0 W/m 1,3 C 3,1 C 6,4 km/h (2 Bft) 95,65 %
19.02.2016 03:08 3,1 C 87 % 1016,3 hPa 0,0 l/m 5,7 km/h (1 Bft) W-SW 252 0 min 0,000 mm 0,0 UV-I 0 W/m 1,2 C 3,1 C 6,4 km/h (2 Bft) 100,00 %
19.02.2016 03:09 3,1 C 87 % 1016,3 hPa 0,0 l/m 5,4 km/h (1 Bft) W-SW 250 0 min 0,000 mm 0,0 UV-I 0 W/m 1,2 C 3,1 C 8,0 km/h (2 Bft) 100,00 %
19.02.2016 03:10 3,1 C 87 % 1016,3 hPa 0,0 l/m 4,6 km/h (1 Bft) W 265 0 min 0,000 mm 0,0 UV-I 0 W/m 1,2 C 3,1 C 6,4 km/h (2 Bft) 100,00 %
19.02.2016 03:11 3,1 C 87 % 1016,3 hPa 0,0 l/m 5,0 km/h (1 Bft) W-SW 244 0 min 0,000 mm 0,0 UV-I 0 W/m 1,2 C 3,1 C 8,0 km/h (2 Bft) 100,00 %
19.02.2016 03:12 3,1 C 87 % 1016,3 hPa 0,0 l/m 4,9 km/h (1 Bft) W-SW 244 0 min 0,000 mm 0,0 UV-I 0 W/m 1,2 C 3,1 C 6,4 km/h (2 Bft) 100,00 %
19.02.2016 03:13 3,1 C 87 % 1016,3 hPa 0,0 l/m 5,7 km/h (1 Bft) W-SW 249 0 min 0,000 mm 0,0 UV-I 0 W/m 1,2 C 3,1 C 8,0 km/h (2 Bft) 100,00 %
19.02.2016 03:14 3,1 C 87 % 1016,3 hPa 0,0 l/m 3,9 km/h (1 Bft) W-SW 249 0 min 0,000 mm 0,0 UV-I 0 W/m 1,2 C 3,1 C 4,8 km/h (1 Bft) 100,00 %
19.02.2016 03:15 3,1 C 87 % 1016,3 hPa 0,0 l/m 5,0 km/h (1 Bft) W-SW 256 0 min 0,000 mm 0,0 UV-I 0 W/m 1,2 C 3,1 C 8,0 km/h (2 Bft) 95,65 %
19.02.2016 03:16 3,1 C 87 % 1016,4 hPa 0,0 l/m 3,7 km/h (1 Bft) W-SW 256 0 min 0,000 mm 0,0 UV-I 0 W/m 1,2 C 3,1 C 4,8 km/h (1 Bft) 100,00 %
19.02.2016 03:17 3,1 C 87 % 1016,4 hPa 0,0 l/m 3,6 km/h (1 Bft) W-SW 257 0 min 0,000 mm 0,0 UV-I 0 W/m 1,2 C 3,1 C 4,8 km/h (1 Bft) 95,65 %
19.02.2016 03:18 3,1 C 87 % 1016,3 hPa 0,0 l/m 3,9 km/h (1 Bft) W-SW 253 0 min 0,000 mm 0,0 UV-I 0 W/m 1,2 C 3,1 C 4,8 km/h (1 Bft) 95,83 %
19.02.2016 03:19 3,1 C 87 % 1016,3 hPa 0,0 l/m 4,9 km/h (1 Bft) W-SW 253 0 min 0,000 mm 0,0 UV-I 0 W/m 1,2 C 3,1 C 6,4 km/h (2 Bft) 98,47 %
19.02.2016 03:20 3,1 C 87 % 1016,4 hPa 0,0 l/m 3,6 km/h (1 Bft) W-SW 254 0 min 0,000 mm 0,0 UV-I 0 W/m 1,2 C 3,1 C 4,8 km/h (1 Bft) 97,37 %
19.02.2016 03:21 3,1 C 87 % 1016,4 hPa 0,0 l/m 4,4 km/h (1 Bft) W-SW 254 0 min 0,000 mm 0,0 UV-I 0 W/m 1,2 C 3,1 C 4,8 km/h (1 Bft) 100,00 %
19.02.2016 03:22 3,1 C 87 % 1016,4 hPa 0,0 l/m 4,6 km/h (1 Bft) W-SW 252 0 min 0,000 mm 0,0 UV-I 0 W/m 1,2 C 3,1 C 8,0 km/h (2 Bft) 100,00 %
19.02.2016 03:23 3,1 C 87 % 1016,4 hPa 0,0 l/m 6,1 km/h (2 Bft) W-SW 248 0 min 0,000 mm 0,0 UV-I 0 W/m 1,2 C 3,1 C 9,7 km/h (2 Bft) 100,00 %
19.02.2016 03:24 3,1 C 87 % 1016,4 hPa 0,0 l/m 5,2 km/h (1 Bft) W-SW 254 0 min 0,000 mm 0,0 UV-I 0 W/m 1,2 C 3,1 C 6,4 km/h (2 Bft) 100,00 %
19.02.2016 03:25 3,1 C 87 % 1016,4 hPa 0,0 l/m 4,4 km/h (1 Bft) W-SW 252 0 min 0,000 mm 0,0 UV-I 0 W/m 1,2 C 3,1 C 6,4 km/h (2 Bft) 100,00 %
19.02.2016 03:26 3,1 C 87 % 1016,4 hPa 0,0 l/m 5,1 km/h (1 Bft) W-SW 253 0 min 0,000 mm 0,0 UV-I 0 W/m 1,2 C 3,1 C 8,0 km/h (2 Bft) 95,65 %
19.02.2016 03:27 3,1 C 87 % 1016,3 hPa 0,0 l/m 4,8 km/h (1 Bft) W 262 0 min 0,000 mm 0,0 UV-I 0 W/m 1,2 C 3,1 C 6,4 km/h (2 Bft) 100,00 %
19.02.2016 03:28 3,1 C 87 % 1016,4 hPa 0,0 l/m 3,8 km/h (1 Bft) W 261 0 min 0,000 mm 0,0 UV-I 0 W/m 1,2 C 3,1 C 4,8 km/h (1 Bft) 100,00 %
19.02.2016 03:29 3,1 C 87 % 1016,4 hPa 0,0 l/m 3,8 km/h (1 Bft) W 261 0 min 0,000 mm 0,0 UV-I 0 W/m 1,2 C 3,1 C 4,8 km/h (1 Bft) 95,83 %
19.02.2016 03:30 3,1 C 87 % 1016,4 hPa 0,0 l/m 4,6 km/h (1 Bft) SW 234 0 min 0,000 mm 0,0 UV-I 0 W/m 1,2 C 3,1 C 6,4 km/h (2 Bft) 95,65 %
19.02.2016 03:31 3,1 C 87 % 1016,3 hPa 0,0 l/m 5,2 km/h (1 Bft) SW 226 0 min 0,000 mm 0,0 UV-I 0 W/m 1,2 C 3,1 C 8,0 km/h (2 Bft) 100,00 %
19.02.2016 03:32 3,1 C 87 % 1016,3 hPa 0,0 l/m 5,5 km/h (1 Bft) SW 227 0 min 0,000 mm 0,0 UV-I 0 W/m 1,2 C 3,1 C 6,4 km/h (2 Bft) 95,65 %
19.02.2016 03:33 3,1 C 88 % 1016,3 hPa 0,0 l/m 6,5 km/h (2 Bft) SW 229 0 min 0,000 mm 0,0 UV-I 0 W/m 1,3 C 3,0 C 8,0 km/h (2 Bft) 96,30 %
19.02.2016 03:34 3,1 C 88 % 1016,3 hPa 0,0 l/m 5,8 km/h (2 Bft) SW 219 0 min 0,000 mm 0,0 UV-I 0 W/m 1,3 C 3,1 C 8,0 km/h (2 Bft) 95,65 %
19.02.2016 03:35 3,1 C 88 % 1016,3 hPa 0,0 l/m 4,8 km/h (1 Bft) SW 219 0 min 0,000 mm 0,0 UV-I 0 W/m 1,3 C 3,1 C 8,0 km/h (2 Bft) 95,83 %
19.02.2016 03:36 3,0 C 88 % 1016,3 hPa 0,0 l/m 4,9 km/h (1 Bft) W-SW 257 0 min 0,000 mm 0,0 UV-I 0 W/m 1,2 C 3,0 C 8,0 km/h (2 Bft) 95,65 %
19.02.2016 03:37 3,0 C 88 % 1016,3 hPa 0,0 l/m 3,6 km/h (1 Bft) SW 234 0 min 0,000 mm 0,0 UV-I 0 W/m 1,2 C 3,0 C 6,4 km/h (2 Bft) 95,83 %
19.02.2016 03:38 3,0 C 88 % 1016,3 hPa 0,0 l/m 4,9 km/h (1 Bft) SW 222 0 min 0,000 mm 0,0 UV-I 0 W/m 1,2 C 3,0 C 8,0 km/h (2 Bft) 100,00 %
19.02.2016 03:39 3,0 C 88 % 1016,4 hPa 0,0 l/m 5,2 km/h (1 Bft) W-SW 243 0 min 0,000 mm 0,0 UV-I 0 W/m 1,2 C 3,0 C 6,4 km/h (2 Bft) 95,83 %
19.02.2016 03:40 3,0 C 88 % 1016,4 hPa 0,0 l/m 4,9 km/h (1 Bft) SW 232 0 min 0,000 mm 0,0 UV-I 0 W/m 1,2 C 3,0 C 8,0 km/h (2 Bft) 95,65 %
19.02.2016 03:41 3,0 C 88 % 1016,4 hPa 0,0 l/m 4,1 km/h (1 Bft) SW 232 0 min 0,000 mm 0,0 UV-I 0 W/m 1,2 C 3,0 C 4,8 km/h (1 Bft) 100,00 %
19.02.2016 03:42 3,0 C 88 % 1016,4 hPa 0,0 l/m 5,0 km/h (1 Bft) W-SW 240 0 min 0,000 mm 0,0 UV-I 0 W/m 1,2 C 3,0 C 6,4 km/h (2 Bft) 95,65 %
19.02.2016 03:43 3,0 C 88 % 1016,4 hPa 0,0 l/m 5,1 km/h (1 Bft) W-SW 252 0 min 0,000 mm 0,0 UV-I 0 W/m 1,2 C 3,0 C 6,4 km/h (2 Bft) 100,00 %
19.02.2016 03:44 3,0 C 88 % 1016,4 hPa 0,0 l/m 4,4 km/h (1 Bft) W-SW 246 0 min 0,000 mm 0,0 UV-I 0 W/m 1,2 C 3,0 C 6,4 km/h (2 Bft) 95,83 %
19.02.2016 03:45 3,0 C 88 % 1016,4 hPa 0,0 l/m 5,5 km/h (1 Bft) W-SW 252 0 min 0,000 mm 0,0 UV-I 0 W/m 1,2 C 3,0 C 8,0 km/h (2 Bft) 100,00 %
19.02.2016 03:46 3,0 C 88 % 1016,5 hPa 0,0 l/m 6,5 km/h (2 Bft) W-SW 238 0 min 0,000 mm 0,0 UV-I 0 W/m 1,2 C 2,9 C 8,0 km/h (2 Bft) 91,67 %
19.02.2016 03:47 3,0 C 88 % 1016,5 hPa 0,0 l/m 4,7 km/h (1 Bft) W-SW 242 0 min 0,000 mm 0,0 UV-I 0 W/m 1,2 C 3,0 C 6,4 km/h (2 Bft) 100,00 %
19.02.2016 03:48 3,0 C 88 % 1016,5 hPa 0,0 l/m 5,0 km/h (1 Bft) W-SW 245 0 min 0,000 mm 0,0 UV-I 0 W/m 1,2 C 3,0 C 6,4 km/h (2 Bft) 95,83 %
19.02.2016 03:49 3,0 C 88 % 1016,5 hPa 0,0 l/m 6,9 km/h (2 Bft) W 263 0 min 0,000 mm 0,0 UV-I 0 W/m 1,2 C 2,5 C 11,3 km/h (2 Bft) 95,65 %
19.02.2016 03:50 3,1 C 87 % 1016,5 hPa 0,0 l/m 5,4 km/h (1 Bft) W-SW 256 0 min 0,000 mm 0,0 UV-I 0 W/m 1,2 C 3,1 C 9,7 km/h (2 Bft) 96,30 %
19.02.2016 03:51 3,1 C 87 % 1016,6 hPa 0,0 l/m 4,4 km/h (1 Bft) W-SW 254 0 min 0,000 mm 0,0 UV-I 0 W/m 1,2 C 3,1 C 6,4 km/h (2 Bft) 91,30 %
19.02.2016 03:52 3,1 C 87 % 1016,6 hPa 0,0 l/m 5,1 km/h (1 Bft) W-SW 256 0 min 0,000 mm 0,0 UV-I 0 W/m 1,2 C 3,1 C 6,4 km/h (2 Bft) 100,00 %
19.02.2016 03:53 3,1 C 87 % 1016,6 hPa 0,0 l/m 5,4 km/h (1 Bft) W-SW 252 0 min 0,000 mm 0,0 UV-I 0 W/m 1,2 C 3,1 C 6,4 km/h (2 Bft) 95,65 %
19.02.2016 03:54 3,1 C 87 % 1016,6 hPa 0,0 l/m 5,6 km/h (1 Bft) W-SW 254 0 min 0,000 mm 0,0 UV-I 0 W/m 1,2 C 3,1 C 6,4 km/h (2 Bft) 95,83 %
19.02.2016 03:55 3,1 C 87 % 1016,6 hPa 0,0 l/m 6,5 km/h (2 Bft) W 263 0 min 0,000 mm 0,0 UV-I 0 W/m 1,2 C 3,0 C 11,3 km/h (2 Bft) 91,30 %
19.02.2016 03:56 3,1 C 87 % 1016,5 hPa 0,0 l/m 6,2 km/h (2 Bft) W-SW 243 0 min 0,000 mm 0,0 UV-I 0 W/m 1,2 C 3,1 C 8,0 km/h (2 Bft) 100,00 %
19.02.2016 03:57 3,1 C 87 % 1016,6 hPa 0,0 l/m 4,7 km/h (1 Bft) W-SW 248 0 min 0,000 mm 0,0 UV-I 0 W/m 1,2 C 3,1 C 6,4 km/h (2 Bft) 95,65 %
19.02.2016 03:58 3,1 C 87 % 1016,6 hPa 0,0 l/m 4,2 km/h (1 Bft) W-SW 247 0 min 0,000 mm 0,0 UV-I 0 W/m 1,2 C 3,1 C 6,4 km/h (2 Bft) 95,83 %
19.02.2016 03:59 3,1 C 87 % 1016,6 hPa 0,0 l/m 5,1 km/h (1 Bft) W-SW 241 0 min 0,000 mm 0,0 UV-I 0 W/m 1,2 C 3,1 C 8,0 km/h (2 Bft) 100,00 %
19.02.2016 04:00 3,1 C 87 % 1016,6 hPa 0,0 l/m 6,4 km/h (2 Bft) W 265 0 min 0,000 mm 0,0 UV-I 0 W/m 1,2 C 3,1 C 11,3 km/h (2 Bft) 91,67 %
19.02.2016 04:03 3,1 C 87 % 1016,6 hPa 0,0 l/m 5,2 km/h (1 Bft) W-SW 253 0 min 0,000 mm 0,0 UV-I 0 W/m 1,2 C 3,1 C 8,0 km/h (2 Bft) 100,00 %
19.02.2016 04:04 3,1 C 87 % 1016,6 hPa 0,0 l/m 5,4 km/h (1 Bft) W-SW 248 0 min 0,000 mm 0,0 UV-I 0 W/m 1,2 C 3,1 C 8,0 km/h (2 Bft) 95,65 %
19.02.2016 04:05 3,1 C 87 % 1016,6 hPa 0,0 l/m 6,0 km/h (2 Bft) W-SW 258 0 min 0,000 mm 0,0 UV-I 0 W/m 1,2 C 3,1 C 9,7 km/h (2 Bft) 95,83 %
19.02.2016 04:06 3,1 C 87 % 1016,6 hPa 0,0 l/m 5,2 km/h (1 Bft) W 259 0 min 0,000 mm 0,0 UV-I 0 W/m 1,2 C 3,1 C 6,4 km/h (2 Bft) 100,00 %
19.02.2016 04:07 3,1 C 87 % 1016,6 hPa 0,0 l/m 5,0 km/h (1 Bft) W-SW 256 0 min 0,000 mm 0,0 UV-I 0 W/m 1,2 C 3,1 C 6,4 km/h (2 Bft) 100,00 %
19.02.2016 04:08 3,1 C 87 % 1016,6 hPa 0,0 l/m 5,7 km/h (1 Bft) W-SW 248 0 min 0,000 mm 0,0 UV-I 0 W/m 1,2 C 3,1 C 8,0 km/h (2 Bft) 100,00 %
19.02.2016 04:09 3,1 C 87 % 1016,6 hPa 0,0 l/m 5,2 km/h (1 Bft) W 263 0 min 0,000 mm 0,0 UV-I 0 W/m 1,2 C 3,1 C 6,4 km/h (2 Bft) 100,00 %
19.02.2016 04:10 3,1 C 87 % 1016,6 hPa 0,0 l/m 5,6 km/h (1 Bft) W-SW 254 0 min 0,000 mm 0,0 UV-I 0 W/m 1,2 C 3,1 C 8,0 km/h (2 Bft) 100,00 %
19.02.2016 04:11 3,1 C 87 % 1016,6 hPa 0,0 l/m 5,5 km/h (1 Bft) W-SW 255 0 min 0,000 mm 0,0 UV-I 0 W/m 1,2 C 3,1 C 6,4 km/h (2 Bft) 100,00 %
19.02.2016 04:12 3,1 C 87 % 1016,6 hPa 0,0 l/m 7,4 km/h (2 Bft) W-SW 252 0 min 0,000 mm 0,0 UV-I 0 W/m 1,2 C 2,2 C 11,3 km/h (2 Bft) 100,00 %
19.02.2016 04:13 3,1 C 87 % 1016,6 hPa 0,0 l/m 6,6 km/h (2 Bft) W-SW 253 0 min 0,000 mm 0,0 UV-I 0 W/m 1,2 C 2,9 C 9,7 km/h (2 Bft) 100,00 %
19.02.2016 04:14 3,1 C 87 % 1016,6 hPa 0,0 l/m 6,7 km/h (2 Bft) W-SW 246 0 min 0,000 mm 0,0 UV-I 0 W/m 1,2 C 2,8 C 9,7 km/h (2 Bft) 100,00 %
19.02.2016 04:15 3,1 C 87 % 1016,6 hPa 0,0 l/m 5,4 km/h (1 Bft) W-SW 254 0 min 0,000 mm 0,0 UV-I 0 W/m 1,2 C 3,1 C 6,4 km/h (2 Bft) 96,30 %
19.02.2016 04:16 3,1 C 87 % 1016,6 hPa 0,0 l/m 5,1 km/h (1 Bft) W-SW 244 0 min 0,000 mm 0,0 UV-I 0 W/m 1,2 C 3,1 C 8,0 km/h (2 Bft) 92,31 %
19.02.2016 04:17 3,1 C 87 % 1016,6 hPa 0,0 l/m 5,8 km/h (2 Bft) W-SW 245 0 min 0,000 mm 0,0 UV-I 0 W/m 1,2 C 3,1 C 8,0 km/h (2 Bft) 100,00 %
19.02.2016 04:18 3,1 C 87 % 1016,7 hPa 0,0 l/m 4,4 km/h (1 Bft) W-SW 247 0 min 0,000 mm 0,0 UV-I 0 W/m 1,2 C 3,1 C 6,4 km/h (2 Bft) 100,00 %
19.02.2016 04:19 3,1 C 87 % 1016,7 hPa 0,0 l/m 4,9 km/h (1 Bft) W-SW 241 0 min 0,000 mm 0,0 UV-I 0 W/m 1,2 C 3,1 C 6,4 km/h (2 Bft) 100,00 %
19.02.2016 04:20 3,1 C 87 % 1016,7 hPa 0,0 l/m 4,8 km/h (1 Bft) SW 232 0 min 0,000 mm 0,0 UV-I 0 W/m 1,2 C 3,1 C 6,4 km/h (2 Bft) 100,00 %
19.02.2016 04:21 3,1 C 87 % 1016,7 hPa 0,0 l/m 4,8 km/h (1 Bft) SW 232 0 min 0,000 mm 0,0 UV-I 0 W/m 1,2 C 3,1 C 6,4 km/h (2 Bft) 95,83 %
19.02.2016 04:22 3,1 C 87 % 1016,8 hPa 0,0 l/m 4,5 km/h (1 Bft) SW 232 0 min 0,000 mm 0,0 UV-I 0 W/m 1,2 C 3,1 C 4,8 km/h (1 Bft) 100,00 %
19.02.2016 04:23 3,1 C 87 % 1016,7 hPa 0,0 l/m 4,1 km/h (1 Bft) SW 234 0 min 0,000 mm 0,0 UV-I 0 W/m 1,2 C 3,1 C 4,8 km/h (1 Bft) 100,00 %
19.02.2016 04:24 3,1 C 87 % 1016,7 hPa 0,0 l/m 3,9 km/h (1 Bft) SW 235 0 min 0,000 mm 0,0 UV-I 0 W/m 1,2 C 3,1 C 4,8 km/h (1 Bft) 100,00 %
19.02.2016 04:25 3,1 C 87 % 1016,7 hPa 0,0 l/m 4,7 km/h (1 Bft) W-SW 253 0 min 0,000 mm 0,0 UV-I 0 W/m 1,2 C 3,1 C 8,0 km/h (2 Bft) 100,00 %
19.02.2016 04:26 3,1 C 87 % 1016,7 hPa 0,0 l/m 5,6 km/h (1 Bft) W-SW 240 0 min 0,000 mm 0,0 UV-I 0 W/m 1,2 C 3,1 C 6,4 km/h (2 Bft) 100,00 %
19.02.2016 04:27 3,1 C 87 % 1016,7 hPa 0,0 l/m 5,0 km/h (1 Bft) W-SW 256 0 min 0,000 mm 0,0 UV-I 0 W/m 1,2 C 3,1 C 6,4 km/h (2 Bft) 100,00 %
19.02.2016 04:28 3,1 C 87 % 1016,7 hPa 0,0 l/m 5,0 km/h (1 Bft) W-SW 256 0 min 0,000 mm 0,0 UV-I 0 W/m 1,2 C 3,1 C 6,4 km/h (2 Bft) 100,00 %
19.02.2016 04:29 3,1 C 87 % 1016,7 hPa 0,0 l/m 4,4 km/h (1 Bft) SW 231 0 min 0,000 mm 0,0 UV-I 0 W/m 1,2 C 3,1 C 6,4 km/h (2 Bft) 100,00 %
19.02.2016 04:30 3,1 C 87 % 1016,7 hPa 0,0 l/m 5,4 km/h (1 Bft) W-SW 252 0 min 0,000 mm 0,0 UV-I 0 W/m 1,2 C 3,1 C 8,0 km/h (2 Bft) 100,00 %
19.02.2016 04:31 3,1 C 87 % 1016,7 hPa 0,0 l/m 6,0 km/h (2 Bft) W-SW 252 0 min 0,000 mm 0,0 UV-I 0 W/m 1,2 C 3,1 C 8,0 km/h (2 Bft) 100,00 %
19.02.2016 04:32 3,1 C 87 % 1016,7 hPa 0,0 l/m 6,0 km/h (2 Bft) W-SW 250 0 min 0,000 mm 0,0 UV-I 0 W/m 1,2 C 3,1 C 8,0 km/h (2 Bft) 100,00 %
19.02.2016 04:33 3,1 C 87 % 1016,7 hPa 0,0 l/m 5,4 km/h (1 Bft) W-SW 257 0 min 0,000 mm 0,0 UV-I 0 W/m 1,2 C 3,1 C 6,4 km/h (2 Bft) 95,65 %
19.02.2016 04:34 3,1 C 87 % 1016,7 hPa 0,0 l/m 5,2 km/h (1 Bft) W-SW 250 0 min 0,000 mm 0,0 UV-I 0 W/m 1,2 C 3,1 C 6,4 km/h (2 Bft) 100,00 %
19.02.2016 04:35 3,1 C 87 % 1016,7 hPa 0,0 l/m 4,8 km/h (1 Bft) W 259 0 min 0,000 mm 0,0 UV-I 0 W/m 1,2 C 3,1 C 6,4 km/h (2 Bft) 95,65 %
19.02.2016 04:36 3,1 C 87 % 1016,7 hPa 0,0 l/m 6,0 km/h (2 Bft) W-SW 252 0 min 0,000 mm 0,0 UV-I 0 W/m 1,2 C 3,1 C 9,7 km/h (2 Bft) 100,00 %
19.02.2016 04:37 3,1 C 87 % 1016,7 hPa 0,0 l/m 5,7 km/h (1 Bft) SW 234 0 min 0,000 mm 0,0 UV-I 0 W/m 1,2 C 3,1 C 6,4 km/h (2 Bft) 100,00 %
19.02.2016 04:38 3,1 C 87 % 1016,7 hPa 0,0 l/m 5,9 km/h (2 Bft) W-SW 238 0 min 0,000 mm 0,0 UV-I 0 W/m 1,2 C 3,1 C 8,0 km/h (2 Bft) 100,00 %
19.02.2016 04:39 3,1 C 87 % 1016,7 hPa 0,0 l/m 6,2 km/h (2 Bft) SW 228 0 min 0,000 mm 0,0 UV-I 0 W/m 1,2 C 3,1 C 8,0 km/h (2 Bft) 95,83 %
19.02.2016 04:40 3,1 C 87 % 1016,7 hPa 0,0 l/m 5,8 km/h (2 Bft) SW 230 0 min 0,000 mm 0,0 UV-I 0 W/m 1,2 C 3,1 C 8,0 km/h (2 Bft) 100,00 %
19.02.2016 04:41 3,1 C 87 % 1016,7 hPa 0,0 l/m 6,6 km/h (2 Bft) SW 215 0 min 0,000 mm 0,0 UV-I 0 W/m 1,2 C 2,9 C 8,0 km/h (2 Bft) 100,00 %
19.02.2016 04:42 3,0 C 87 % 1016,7 hPa 0,0 l/m 4,6 km/h (1 Bft) SW 234 0 min 0,000 mm 0,0 UV-I 0 W/m 1,1 C 3,0 C 6,4 km/h (2 Bft) 96,30 %
19.02.2016 04:43 3,0 C 87 % 1016,7 hPa 0,0 l/m 6,7 km/h (2 Bft) SW 232 0 min 0,000 mm 0,0 UV-I 0 W/m 1,1 C 2,7 C 9,7 km/h (2 Bft) 100,00 %
19.02.2016 04:44 3,0 C 88 % 1016,7 hPa 0,0 l/m 8,4 km/h (2 Bft) SW 223 0 min 0,000 mm 0,0 UV-I 0 W/m 1,2 C 1,2 C 9,7 km/h (2 Bft) 100,00 %
19.02.2016 04:45 3,0 C 88 % 1016,7 hPa 0,0 l/m 7,0 km/h (2 Bft) SW 232 0 min 0,000 mm 0,0 UV-I 0 W/m 1,2 C 2,4 C 9,7 km/h (2 Bft) 100,00 %
19.02.2016 04:46 3,0 C 88 % 1016,7 hPa 0,0 l/m 6,7 km/h (2 Bft) SW 232 0 min 0,000 mm 0,0 UV-I 0 W/m 1,2 C 2,7 C 8,0 km/h (2 Bft) 100,00 %
19.02.2016 04:47 3,0 C 88 % 1016,7 hPa 0,0 l/m 7,1 km/h (2 Bft) SW 229 0 min 0,000 mm 0,0 UV-I 0 W/m 1,2 C 2,3 C 11,3 km/h (2 Bft) 100,00 %
19.02.2016 04:48 3,0 C 88 % 1016,7 hPa 0,0 l/m 8,4 km/h (2 Bft) SW 227 0 min 0,000 mm 0,0 UV-I 0 W/m 1,2 C 1,2 C 9,7 km/h (2 Bft) 100,00 %
19.02.2016 04:49 3,0 C 88 % 1016,7 hPa 0,0 l/m 8,4 km/h (2 Bft) SW 232 0 min 0,000 mm 0,0 UV-I 0 W/m 1,2 C 1,2 C 11,3 km/h (2 Bft) 100,00 %
19.02.2016 04:50 3,0 C 88 % 1016,7 hPa 0,0 l/m 8,7 km/h (2 Bft) S-SW 213 0 min 0,000 mm 0,0 UV-I 0 W/m 1,2 C 0,9 C 11,3 km/h (2 Bft) 100,00 %
19.02.2016 04:51 3,0 C 88 % 1016,7 hPa 0,0 l/m 6,3 km/h (2 Bft) SW 225 0 min 0,000 mm 0,0 UV-I 0 W/m 1,2 C 3,0 C 9,7 km/h (2 Bft) 100,00 %
19.02.2016 04:52 3,0 C 88 % 1016,7 hPa 0,0 l/m 9,0 km/h (2 Bft) SW 227 0 min 0,000 mm 0,0 UV-I 0 W/m 1,2 C 0,6 C 11,3 km/h (2 Bft) 95,65 %
19.02.2016 04:53 3,0 C 88 % 1016,7 hPa 0,0 l/m 7,6 km/h (2 Bft) SW 236 0 min 0,000 mm 0,0 UV-I 0 W/m 1,2 C 1,9 C 9,7 km/h (2 Bft) 95,83 %
19.02.2016 04:54 3,0 C 88 % 1016,7 hPa 0,0 l/m 8,4 km/h (2 Bft) W-SW 239 0 min 0,000 mm 0,0 UV-I 0 W/m 1,2 C 1,2 C 9,7 km/h (2 Bft) 100,00 %
19.02.2016 04:55 3,0 C 88 % 1016,7 hPa 0,0 l/m 9,2 km/h (2 Bft) SW 232 0 min 0,000 mm 0,0 UV-I 0 W/m 1,2 C 0,5 C 12,9 km/h (3 Bft) 100,00 %
19.02.2016 04:56 3,0 C 88 % 1016,7 hPa 0,0 l/m 8,2 km/h (2 Bft) SW 234 0 min 0,000 mm 0,0 UV-I 0 W/m 1,2 C 1,3 C 14,5 km/h (3 Bft) 100,00 %
19.02.2016 04:57 3,0 C 88 % 1016,7 hPa 0,0 l/m 8,0 km/h (2 Bft) SW 226 0 min 0,000 mm 0,0 UV-I 0 W/m 1,2 C 1,5 C 11,3 km/h (2 Bft) 100,00 %
19.02.2016 04:58 3,0 C 88 % 1016,7 hPa 0,0 l/m 7,2 km/h (2 Bft) SW 234 0 min 0,000 mm 0,0 UV-I 0 W/m 1,2 C 2,2 C 12,9 km/h (3 Bft) 100,00 %
19.02.2016 04:59 3,0 C 87 % 1016,7 hPa 0,0 l/m 7,8 km/h (2 Bft) W-SW 250 0 min 0,000 mm 0,0 UV-I 0 W/m 1,1 C 1,7 C 11,3 km/h (2 Bft) 100,00 %
19.02.2016 05:00 3,0 C 87 % 1016,7 hPa 0,0 l/m 8,1 km/h (2 Bft) SW 229 0 min 0,000 mm 0,0 UV-I 0 W/m 1,1 C 1,4 C 9,7 km/h (2 Bft) 95,83 %
19.02.2016 05:01 3,1 C 87 % 1016,7 hPa 0,0 l/m 9,3 km/h (2 Bft) W-SW 243 0 min 0,000 mm 0,0 UV-I 0 W/m 1,2 C 0,5 C 11,3 km/h (2 Bft) 100,00 %
19.02.2016 05:02 3,0 C 88 % 1016,7 hPa 0,0 l/m 8,9 km/h (2 Bft) W-SW 244 0 min 0,000 mm 0,0 UV-I 0 W/m 1,2 C 0,7 C 11,3 km/h (2 Bft) 100,00 %
19.02.2016 05:03 3,0 C 88 % 1016,7 hPa 0,0 l/m 8,9 km/h (2 Bft) SW 215 0 min 0,000 mm 0,0 UV-I 0 W/m 1,2 C 0,7 C 11,3 km/h (2 Bft) 95,65 %
19.02.2016 05:04 3,0 C 88 % 1016,7 hPa 0,0 l/m 7,1 km/h (2 Bft) SW 219 0 min 0,000 mm 0,0 UV-I 0 W/m 1,2 C 2,3 C 9,7 km/h (2 Bft) 100,00 %
19.02.2016 05:05 3,0 C 88 % 1016,7 hPa 0,0 l/m 8,1 km/h (2 Bft) SW 229 0 min 0,000 mm 0,0 UV-I 0 W/m 1,2 C 1,4 C 12,9 km/h (3 Bft) 100,00 %
19.02.2016 05:06 3,0 C 88 % 1016,7 hPa 0,0 l/m 7,2 km/h (2 Bft) SW 234 0 min 0,000 mm 0,0 UV-I 0 W/m 1,2 C 2,2 C 9,7 km/h (2 Bft) 95,83 %
19.02.2016 05:07 3,0 C 88 % 1016,7 hPa 0,0 l/m 7,0 km/h (2 Bft) S-SW 213 0 min 0,000 mm 0,0 UV-I 0 W/m 1,2 C 2,4 C 9,7 km/h (2 Bft) 95,65 %
19.02.2016 05:08 3,0 C 88 % 1016,7 hPa 0,0 l/m 6,8 km/h (2 Bft) SW 232 0 min 0,000 mm 0,0 UV-I 0 W/m 1,2 C 2,6 C 11,3 km/h (2 Bft) 100,00 %
19.02.2016 05:09 3,0 C 88 % 1016,7 hPa 0,0 l/m 8,6 km/h (2 Bft) SW 218 0 min 0,000 mm 0,0 UV-I 0 W/m 1,2 C 1,0 C 12,9 km/h (3 Bft) 100,00 %
19.02.2016 05:10 3,0 C 88 % 1016,6 hPa 0,0 l/m 9,0 km/h (2 Bft) SW 232 0 min 0,000 mm 0,0 UV-I 0 W/m 1,2 C 0,6 C 11,3 km/h (2 Bft) 100,00 %
19.02.2016 05:11 3,0 C 88 % 1016,6 hPa 0,0 l/m 8,3 km/h (2 Bft) SW 230 0 min 0,000 mm 0,0 UV-I 0 W/m 1,2 C 1,2 C 11,3 km/h (2 Bft) 100,00 %
19.02.2016 05:12 3,0 C 88 % 1016,7 hPa 0,0 l/m 8,2 km/h (2 Bft) SW 231 0 min 0,000 mm 0,0 UV-I 0 W/m 1,2 C 1,3 C 12,9 km/h (3 Bft) 100,00 %
19.02.2016 05:13 3,0 C 88 % 1016,7 hPa 0,0 l/m 6,4 km/h (2 Bft) SW 220 0 min 0,000 mm 0,0 UV-I 0 W/m 1,2 C 3,0 C 9,7 km/h (2 Bft) 100,00 %
19.02.2016 05:14 3,0 C 88 % 1016,7 hPa 0,0 l/m 8,4 km/h (2 Bft) SW 225 0 min 0,000 mm 0,0 UV-I 0 W/m 1,2 C 1,2 C 9,7 km/h (2 Bft) 100,00 %
19.02.2016 05:15 3,0 C 88 % 1016,7 hPa 0,0 l/m 6,4 km/h (2 Bft) SW 220 0 min 0,000 mm 0,0 UV-I 0 W/m 1,2 C 3,0 C 8,0 km/h (2 Bft) 95,65 %
19.02.2016 05:16 3,0 C 88 % 1016,7 hPa 0,0 l/m 8,3 km/h (2 Bft) SW 228 0 min 0,000 mm 0,0 UV-I 0 W/m 1,2 C 1,2 C 11,3 km/h (2 Bft) 100,00 %
19.02.2016 05:17 2,9 C 88 % 1016,7 hPa 0,0 l/m 8,4 km/h (2 Bft) SW 230 0 min 0,000 mm 0,0 UV-I 0 W/m 1,1 C 1,0 C 11,3 km/h (2 Bft) 100,00 %
19.02.2016 05:18 2,9 C 88 % 1016,7 hPa 0,0 l/m 6,7 km/h (2 Bft) SW 217 0 min 0,000 mm 0,0 UV-I 0 W/m 1,1 C 2,6 C 11,3 km/h (2 Bft) 100,00 %
19.02.2016 05:19 2,9 C 88 % 1016,7 hPa 0,0 l/m 7,8 km/h (2 Bft) SW 232 0 min 0,000 mm 0,0 UV-I 0 W/m 1,1 C 1,6 C 11,3 km/h (2 Bft) 91,30 %
19.02.2016 05:20 2,9 C 88 % 1016,7 hPa 0,0 l/m 7,6 km/h (2 Bft) SW 236 0 min 0,000 mm 0,0 UV-I 0 W/m 1,1 C 1,8 C 9,7 km/h (2 Bft) 100,00 %
19.02.2016 05:21 2,9 C 88 % 1016,7 hPa 0,0 l/m 6,6 km/h (2 Bft) SW 222 0 min 0,000 mm 0,0 UV-I 0 W/m 1,1 C 2,7 C 9,7 km/h (2 Bft) 95,65 %
19.02.2016 05:22 2,9 C 88 % 1016,7 hPa 0,0 l/m 5,9 km/h (2 Bft) SW 225 0 min 0,000 mm 0,0 UV-I 0 W/m 1,1 C 2,9 C 8,0 km/h (2 Bft) 100,00 %
19.02.2016 05:23 2,9 C 88 % 1016,7 hPa 0,0 l/m 7,5 km/h (2 Bft) SW 222 0 min 0,000 mm 0,0 UV-I 0 W/m 1,1 C 1,9 C 9,7 km/h (2 Bft) 100,00 %
19.02.2016 05:24 2,9 C 88 % 1016,8 hPa 0,0 l/m 7,9 km/h (2 Bft) SW 230 0 min 0,000 mm 0,0 UV-I 0 W/m 1,1 C 1,5 C 9,7 km/h (2 Bft) 100,00 %
19.02.2016 05:25 2,9 C 88 % 1016,7 hPa 0,0 l/m 6,8 km/h (2 Bft) SW 228 0 min 0,000 mm 0,0 UV-I 0 W/m 1,1 C 2,5 C 9,7 km/h (2 Bft) 100,00 %
19.02.2016 05:26 2,9 C 88 % 1016,8 hPa 0,0 l/m 9,1 km/h (2 Bft) SW 225 0 min 0,000 mm 0,0 UV-I 0 W/m 1,1 C 0,5 C 12,9 km/h (3 Bft) 100,00 %
19.02.2016 05:27 2,9 C 88 % 1016,8 hPa 0,0 l/m 7,9 km/h (2 Bft) SW 227 0 min 0,000 mm 0,0 UV-I 0 W/m 1,1 C 1,5 C 9,7 km/h (2 Bft) 100,00 %
19.02.2016 05:28 2,9 C 88 % 1016,8 hPa 0,0 l/m 7,8 km/h (2 Bft) SW 233 0 min 0,000 mm 0,0 UV-I 0 W/m 1,1 C 1,6 C 11,3 km/h (2 Bft) 100,00 %
19.02.2016 05:29 3,0 C 88 % 1016,8 hPa 0,0 l/m 8,1 km/h (2 Bft) W-SW 243 0 min 0,000 mm 0,0 UV-I 0 W/m 1,2 C 1,4 C 12,9 km/h (3 Bft) 100,00 %
19.02.2016 05:30 2,9 C 88 % 1016,8 hPa 0,0 l/m 7,8 km/h (2 Bft) W-SW 239 0 min 0,000 mm 0,0 UV-I 0 W/m 1,1 C 1,6 C 11,3 km/h (2 Bft) 100,00 %
19.02.2016 05:31 2,9 C 88 % 1016,8 hPa 0,0 l/m 6,8 km/h (2 Bft) SW 225 0 min 0,000 mm 0,0 UV-I 0 W/m 1,1 C 2,5 C 8,0 km/h (2 Bft) 100,00 %
19.02.2016 05:32 2,9 C 88 % 1016,8 hPa 0,0 l/m 7,8 km/h (2 Bft) SW 236 0 min 0,000 mm 0,0 UV-I 0 W/m 1,1 C 1,6 C 9,7 km/h (2 Bft) 100,00 %
19.02.2016 05:33 2,9 C 88 % 1016,8 hPa 0,0 l/m 7,6 km/h (2 Bft) SW 227 0 min 0,000 mm 0,0 UV-I 0 W/m 1,1 C 1,8 C 11,3 km/h (2 Bft) 100,00 %
19.02.2016 05:34 2,9 C 88 % 1016,8 hPa 0,0 l/m 8,7 km/h (2 Bft) SW 232 0 min 0,000 mm 0,0 UV-I 0 W/m 1,1 C 0,8 C 11,3 km/h (2 Bft) 100,00 %
19.02.2016 05:35 2,9 C 88 % 1016,8 hPa 0,0 l/m 7,8 km/h (2 Bft) W-SW 242 0 min 0,000 mm 0,0 UV-I 0 W/m 1,1 C 1,6 C 11,3 km/h (2 Bft) 95,83 %
19.02.2016 05:36 2,9 C 88 % 1016,8 hPa 0,0 l/m 7,9 km/h (2 Bft) SW 223 0 min 0,000 mm 0,0 UV-I 0 W/m 1,1 C 1,5 C 9,7 km/h (2 Bft) 95,65 %
19.02.2016 05:37 2,9 C 88 % 1016,8 hPa 0,0 l/m 7,4 km/h (2 Bft) SW 229 0 min 0,000 mm 0,0 UV-I 0 W/m 1,1 C 1,9 C 9,7 km/h (2 Bft) 95,83 %
19.02.2016 05:38 3,0 C 88 % 1016,7 hPa 0,0 l/m 7,9 km/h (2 Bft) SW 220 0 min 0,000 mm 0,0 UV-I 0 W/m 1,2 C 1,6 C 11,3 km/h (2 Bft) 95,65 %
19.02.2016 05:39 3,0 C 88 % 1016,7 hPa 0,0 l/m 6,0 km/h (2 Bft) SW 221 0 min 0,000 mm 0,0 UV-I 0 W/m 1,2 C 3,0 C 8,0 km/h (2 Bft) 95,83 %
19.02.2016 05:40 3,0 C 88 % 1016,8 hPa 0,0 l/m 5,1 km/h (1 Bft) SW 221 0 min 0,000 mm 0,0 UV-I 0 W/m 1,2 C 3,0 C 8,0 km/h (2 Bft) 100,00 %
19.02.2016 05:41 3,0 C 88 % 1016,8 hPa 0,0 l/m 8,9 km/h (2 Bft) SW 229 0 min 0,000 mm 0,0 UV-I 0 W/m 1,2 C 0,7 C 12,9 km/h (3 Bft) 95,83 %
19.02.2016 05:42 2,9 C 88 % 1016,7 hPa 0,0 l/m 8,4 km/h (2 Bft) S-SW 213 0 min 0,000 mm 0,0 UV-I 0 W/m 1,1 C 1,0 C 11,3 km/h (2 Bft) 95,83 %
19.02.2016 05:43 2,9 C 88 % 1016,8 hPa 0,0 l/m 8,9 km/h (2 Bft) SW 228 0 min 0,000 mm 0,0 UV-I 0 W/m 1,1 C 0,6 C 11,3 km/h (2 Bft) 91,30 %
19.02.2016 05:44 2,9 C 88 % 1016,7 hPa 0,0 l/m 9,1 km/h (2 Bft) SW 230 0 min 0,000 mm 0,0 UV-I 0 W/m 1,1 C 0,5 C 12,9 km/h (3 Bft) 91,67 %
19.02.2016 05:45 2,9 C 88 % 1016,7 hPa 0,0 l/m 8,4 km/h (2 Bft) SW 236 0 min 0,000 mm 0,0 UV-I 0 W/m 1,1 C 1,0 C 9,7 km/h (2 Bft) 100,00 %
19.02.2016 05:46 3,0 C 88 % 1016,8 hPa 0,0 l/m 8,4 km/h (2 Bft) SW 229 0 min 0,000 mm 0,0 UV-I 0 W/m 1,2 C 1,2 C 11,3 km/h (2 Bft) 95,83 %
19.02.2016 05:47 3,0 C 88 % 1016,8 hPa 0,0 l/m 8,0 km/h (2 Bft) SW 233 0 min 0,000 mm 0,0 UV-I 0 W/m 1,2 C 1,5 C 12,9 km/h (3 Bft) 100,00 %
19.02.2016 05:48 3,0 C 88 % 1016,8 hPa 0,0 l/m 9,4 km/h (2 Bft) W-SW 242 0 min 0,000 mm 0,0 UV-I 0 W/m 1,2 C 0,3 C 12,9 km/h (3 Bft) 95,83 %
19.02.2016 05:49 3,0 C 88 % 1016,8 hPa 0,0 l/m 9,1 km/h (2 Bft) W-SW 238 0 min 0,000 mm 0,0 UV-I 0 W/m 1,2 C 0,6 C 12,9 km/h (3 Bft) 100,00 %
19.02.2016 05:50 3,0 C 88 % 1016,8 hPa 0,0 l/m 8,4 km/h (2 Bft) SW 232 0 min 0,000 mm 0,0 UV-I 0 W/m 1,2 C 1,2 C 11,3 km/h (2 Bft) 96,30 %
19.02.2016 05:51 3,0 C 88 % 1016,8 hPa 0,0 l/m 8,0 km/h (2 Bft) SW 229 0 min 0,000 mm 0,0 UV-I 0 W/m 1,2 C 1,5 C 9,7 km/h (2 Bft) 100,00 %
19.02.2016 05:52 3,0 C 88 % 1016,8 hPa 0,0 l/m 8,5 km/h (2 Bft) SW 225 0 min 0,000 mm 0,0 UV-I 0 W/m 1,2 C 1,1 C 11,3 km/h (2 Bft) 95,83 %
19.02.2016 05:53 3,0 C 88 % 1016,8 hPa 0,0 l/m 8,5 km/h (2 Bft) SW 224 0 min 0,000 mm 0,0 UV-I 0 W/m 1,2 C 1,1 C 11,3 km/h (2 Bft) 95,65 %
19.02.2016 05:54 2,9 C 88 % 1016,8 hPa 0,0 l/m 8,4 km/h (2 Bft) S-SW 213 0 min 0,000 mm 0,0 UV-I 0 W/m 1,1 C 1,0 C 11,3 km/h (2 Bft) 100,00 %
19.02.2016 05:55 3,0 C 88 % 1016,8 hPa 0,0 l/m 9,3 km/h (2 Bft) SW 223 0 min 0,000 mm 0,0 UV-I 0 W/m 1,2 C 0,4 C 12,9 km/h (3 Bft) 95,65 %
19.02.2016 05:56 2,9 C 88 % 1016,8 hPa 0,0 l/m 9,5 km/h (2 Bft) SW 235 0 min 0,000 mm 0,0 UV-I 0 W/m 1,1 C 0,1 C 11,3 km/h (2 Bft) 95,83 %
19.02.2016 05:57 2,9 C 88 % 1016,8 hPa 0,0 l/m 9,5 km/h (2 Bft) W-SW 244 0 min 0,000 mm 0,0 UV-I 0 W/m 1,1 C 0,1 C 12,9 km/h (3 Bft) 95,65 %
19.02.2016 05:58 2,9 C 88 % 1016,8 hPa 0,0 l/m 9,6 km/h (2 Bft) SW 225 0 min 0,000 mm 0,0 UV-I 0 W/m 1,1 C 0,1 C 12,9 km/h (3 Bft) 100,00 %
19.02.2016 05:59 2,9 C 88 % 1016,8 hPa 0,0 l/m 7,5 km/h (2 Bft) SW 228 0 min 0,000 mm 0,0 UV-I 0 W/m 1,1 C 1,9 C 11,3 km/h (2 Bft) 95,83 %
19.02.2016 06:00 2,9 C 88 % 1016,9 hPa 0,0 l/m 8,9 km/h (2 Bft) SW 236 0 min 0,000 mm 0,0 UV-I 0 W/m 1,1 C 0,6 C 14,5 km/h (3 Bft) 95,65 %
19.02.2016 06:01 2,9 C 88 % 1016,9 hPa 0,0 l/m 8,0 km/h (2 Bft) W-SW 257 0 min 0,000 mm 0,0 UV-I 0 W/m 1,1 C 1,4 C 11,3 km/h (2 Bft) 95,83 %
19.02.2016 06:02 3,0 C 88 % 1016,9 hPa 0,0 l/m 10,0 km/h (2 Bft) SW 228 0 min 0,000 mm 0,0 UV-I 0 W/m 1,2 C -0,1 C 14,5 km/h (3 Bft) 95,65 %
19.02.2016 06:03 3,0 C 88 % 1016,9 hPa 0,0 l/m 9,1 km/h (2 Bft) W-SW 242 0 min 0,000 mm 0,0 UV-I 0 W/m 1,2 C 0,6 C 12,9 km/h (3 Bft) 100,00 %
19.02.2016 06:04 2,9 C 88 % 1016,9 hPa 0,0 l/m 9,3 km/h (2 Bft) SW 231 0 min 0,000 mm 0,0 UV-I 0 W/m 1,1 C 0,3 C 11,3 km/h (2 Bft) 86,96 %
19.02.2016 06:05 2,9 C 88 % 1016,9 hPa 0,0 l/m 11,9 km/h (2 Bft) SW 223 0 min 0,000 mm 0,0 UV-I 0 W/m 1,1 C -1,6 C 16,1 km/h (3 Bft) 95,83 %
19.02.2016 06:06 2,9 C 88 % 1016,9 hPa 0,0 l/m 10,6 km/h (2 Bft) SW 228 0 min 0,000 mm 0,0 UV-I 0 W/m 1,1 C -0,7 C 14,5 km/h (3 Bft) 95,65 %
19.02.2016 06:07 2,9 C 88 % 1017,0 hPa 0,0 l/m 11,3 km/h (2 Bft) W-SW 238 0 min 0,000 mm 0,0 UV-I 0 W/m 1,1 C -1,2 C 14,5 km/h (3 Bft) 100,00 %
19.02.2016 06:08 3,0 C 88 % 1016,9 hPa 0,0 l/m 9,8 km/h (2 Bft) SW 221 0 min 0,000 mm 0,0 UV-I 0 W/m 1,2 C 0,0 C 12,9 km/h (3 Bft) 95,65 %
19.02.2016 06:09 2,9 C 88 % 1016,9 hPa 0,0 l/m 10,4 km/h (2 Bft) W-SW 244 0 min 0,000 mm 0,0 UV-I 0 W/m 1,1 C -0,5 C 14,5 km/h (3 Bft) 95,83 %
19.02.2016 06:10 3,0 C 88 % 1017,0 hPa 0,0 l/m 10,7 km/h (2 Bft) S-SW 200 0 min 0,000 mm 0,0 UV-I 0 W/m 1,2 C -0,7 C 14,5 km/h (3 Bft) 96,15 %
19.02.2016 06:11 3,0 C 88 % 1017,0 hPa 0,0 l/m 9,6 km/h (2 Bft) SW 229 0 min 0,000 mm 0,0 UV-I 0 W/m 1,2 C 0,2 C 14,5 km/h (3 Bft) 95,83 %
19.02.2016 06:12 3,0 C 88 % 1017,0 hPa 0,0 l/m 7,6 km/h (2 Bft) SW 234 0 min 0,000 mm 0,0 UV-I 0 W/m 1,2 C 1,9 C 14,5 km/h (3 Bft) 100,00 %
19.02.2016 06:13 3,0 C 87 % 1016,9 hPa 0,0 l/m 8,0 km/h (2 Bft) SW 221 0 min 0,000 mm 0,0 UV-I 0 W/m 1,1 C 1,5 C 11,3 km/h (2 Bft) 100,00 %
19.02.2016 06:14 3,0 C 87 % 1016,9 hPa 0,0 l/m 9,0 km/h (2 Bft) SW 236 0 min 0,000 mm 0,0 UV-I 0 W/m 1,1 C 0,6 C 12,9 km/h (3 Bft) 100,00 %
19.02.2016 06:15 3,0 C 87 % 1016,9 hPa 0,0 l/m 8,2 km/h (2 Bft) W-SW 238 0 min 0,000 mm 0,0 UV-I 0 W/m 1,1 C 1,3 C 11,3 km/h (2 Bft) 100,00 %
19.02.2016 06:16 3,0 C 87 % 1016,9 hPa 0,0 l/m 9,2 km/h (2 Bft) SW 222 0 min 0,000 mm 0,0 UV-I 0 W/m 1,1 C 0,5 C 12,9 km/h (3 Bft) 100,00 %
19.02.2016 06:17 3,0 C 87 % 1016,9 hPa 0,0 l/m 10,2 km/h (2 Bft) SW 224 0 min 0,000 mm 0,0 UV-I 0 W/m 1,1 C -0,3 C 12,9 km/h (3 Bft) 100,00 %
19.02.2016 06:18 3,1 C 87 % 1017,0 hPa 0,0 l/m 9,5 km/h (2 Bft) W-SW 243 0 min 0,000 mm 0,0 UV-I 0 W/m 1,2 C 0,4 C 11,3 km/h (2 Bft) 100,00 %
19.02.2016 06:19 3,1 C 87 % 1017,0 hPa 0,0 l/m 8,1 km/h (2 Bft) W-SW 241 0 min 0,000 mm 0,0 UV-I 0 W/m 1,2 C 1,5 C 12,9 km/h (3 Bft) 100,00 %
19.02.2016 06:20 3,1 C 87 % 1016,9 hPa 0,0 l/m 8,6 km/h (2 Bft) SW 219 0 min 0,000 mm 0,0 UV-I 0 W/m 1,2 C 1,1 C 12,9 km/h (3 Bft) 95,83 %
19.02.2016 06:21 3,1 C 87 % 1017,0 hPa 0,0 l/m 9,6 km/h (2 Bft) W 262 0 min 0,000 mm 0,0 UV-I 0 W/m 1,2 C 0,3 C 12,9 km/h (3 Bft) 100,00 %
19.02.2016 06:22 3,1 C 87 % 1017,0 hPa 0,0 l/m 8,6 km/h (2 Bft) SW 236 0 min 0,000 mm 0,0 UV-I 0 W/m 1,2 C 1,1 C 12,9 km/h (3 Bft) 100,00 %
19.02.2016 06:23 3,1 C 87 % 1017,0 hPa 0,0 l/m 9,3 km/h (2 Bft) SW 223 0 min 0,000 mm 0,0 UV-I 0 W/m 1,2 C 0,5 C 14,5 km/h (3 Bft) 95,65 %
19.02.2016 06:24 3,1 C 87 % 1017,0 hPa 0,0 l/m 7,2 km/h (2 Bft) SW 224 0 min 0,000 mm 0,0 UV-I 0 W/m 1,2 C 2,3 C 8,0 km/h (2 Bft) 100,00 %
19.02.2016 06:25 3,0 C 87 % 1017,0 hPa 0,0 l/m 8,8 km/h (2 Bft) SW 236 0 min 0,000 mm 0,0 UV-I 0 W/m 1,1 C 0,8 C 11,3 km/h (2 Bft) 100,00 %
19.02.2016 06:26 3,1 C 87 % 1017,1 hPa 0,0 l/m 8,0 km/h (2 Bft) W 262 0 min 0,000 mm 0,0 UV-I 0 W/m 1,2 C 1,6 C 9,7 km/h (2 Bft) 100,00 %
19.02.2016 06:27 3,0 C 87 % 1017,1 hPa 0,0 l/m 7,2 km/h (2 Bft) SW 217 0 min 0,000 mm 0,0 UV-I 0 W/m 1,1 C 2,2 C 11,3 km/h (2 Bft) 100,00 %
19.02.2016 06:28 3,0 C 87 % 1017,1 hPa 0,0 l/m 7,8 km/h (2 Bft) SW 225 0 min 0,000 mm 0,0 UV-I 0 W/m 1,1 C 1,7 C 11,3 km/h (2 Bft) 100,00 %
19.02.2016 06:29 3,0 C 87 % 1017,0 hPa 0,0 l/m 9,0 km/h (2 Bft) SW 227 0 min 0,000 mm 0,0 UV-I 0 W/m 1,1 C 0,6 C 11,3 km/h (2 Bft) 95,65 %
19.02.2016 06:30 3,0 C 87 % 1017,1 hPa 0,0 l/m 8,1 km/h (2 Bft) SW 217 0 min 0,000 mm 0,0 UV-I 0 W/m 1,1 C 1,4 C 11,3 km/h (2 Bft) 100,00 %
19.02.2016 06:31 3,0 C 87 % 1017,1 hPa 0,0 l/m 6,3 km/h (2 Bft) W-SW 239 0 min 0,000 mm 0,0 UV-I 0 W/m 1,1 C 3,0 C 9,7 km/h (2 Bft) 100,00 %
19.02.2016 06:32 3,0 C 87 % 1017,1 hPa 0,0 l/m 8,3 km/h (2 Bft) W 265 0 min 0,000 mm 0,0 UV-I 0 W/m 1,1 C 1,2 C 9,7 km/h (2 Bft) 100,00 %
19.02.2016 06:33 3,0 C 87 % 1017,1 hPa 0,0 l/m 7,4 km/h (2 Bft) W-SW 237 0 min 0,000 mm 0,0 UV-I 0 W/m 1,1 C 2,1 C 12,9 km/h (3 Bft) 95,65 %
19.02.2016 06:34 3,0 C 87 % 1017,2 hPa 0,0 l/m 7,8 km/h (2 Bft) W-SW 240 0 min 0,000 mm 0,0 UV-I 0 W/m 1,1 C 1,7 C 9,7 km/h (2 Bft) 100,00 %
19.02.2016 06:35 3,0 C 87 % 1017,2 hPa 0,0 l/m 6,3 km/h (2 Bft) W-SW 255 0 min 0,000 mm 0,0 UV-I 0 W/m 1,1 C 3,0 C 9,7 km/h (2 Bft) 95,65 %
19.02.2016 06:36 3,0 C 87 % 1017,2 hPa 0,0 l/m 7,2 km/h (2 Bft) SW 229 0 min 0,000 mm 0,0 UV-I 0 W/m 1,1 C 2,2 C 11,3 km/h (2 Bft) 95,83 %
19.02.2016 06:37 3,0 C 87 % 1017,2 hPa 0,0 l/m 7,4 km/h (2 Bft) W-SW 237 0 min 0,000 mm 0,0 UV-I 0 W/m 1,1 C 2,1 C 11,3 km/h (2 Bft) 100,00 %
19.02.2016 06:38 3,0 C 87 % 1017,2 hPa 0,0 l/m 8,1 km/h (2 Bft) W-SW 252 0 min 0,000 mm 0,0 UV-I 0 W/m 1,1 C 1,4 C 11,3 km/h (2 Bft) 100,00 %
19.02.2016 06:39 3,0 C 87 % 1017,2 hPa 0,0 l/m 7,6 km/h (2 Bft) SW 224 0 min 0,000 mm 0,0 UV-I 0 W/m 1,1 C 1,9 C 12,9 km/h (3 Bft) 91,30 %
19.02.2016 06:40 3,0 C 87 % 1017,2 hPa 0,0 l/m 7,9 km/h (2 Bft) SW 225 0 min 0,000 mm 0,0 UV-I 0 W/m 1,1 C 1,6 C 11,3 km/h (2 Bft) 100,00 %
19.02.2016 06:41 3,0 C 87 % 1017,2 hPa 0,0 l/m 8,9 km/h (2 Bft) SW 234 0 min 0,000 mm 0,0 UV-I 0 W/m 1,1 C 0,7 C 14,5 km/h (3 Bft) 100,00 %
19.02.2016 06:42 3,0 C 87 % 1017,2 hPa 0,0 l/m 7,6 km/h (2 Bft) SW 234 0 min 0,000 mm 0,0 UV-I 0 W/m 1,1 C 1,9 C 11,3 km/h (2 Bft) 95,65 %
19.02.2016 06:43 3,0 C 87 % 1017,2 hPa 0,0 l/m 10,1 km/h (2 Bft) W-SW 238 0 min 0,000 mm 0,0 UV-I 0 W/m 1,1 C -0,2 C 14,5 km/h (3 Bft) 100,00 %
19.02.2016 06:44 3,1 C 87 % 1017,3 hPa 0,0 l/m 6,6 km/h (2 Bft) W 267 0 min 0,000 mm 0,0 UV-I 0 W/m 1,2 C 2,9 C 9,7 km/h (2 Bft) 91,30 %
19.02.2016 06:45 3,1 C 87 % 1017,3 hPa 0,0 l/m 7,2 km/h (2 Bft) SW 224 0 min 0,000 mm 0,0 UV-I 0 W/m 1,2 C 2,3 C 11,3 km/h (2 Bft) 100,00 %
19.02.2016 06:46 3,1 C 87 % 1017,2 hPa 0,0 l/m 8,4 km/h (2 Bft) SW 232 0 min 0,000 mm 0,0 UV-I 0 W/m 1,2 C 1,3 C 11,3 km/h (2 Bft) 100,00 %
19.02.2016 06:47 3,1 C 87 % 1017,2 hPa 0,0 l/m 7,8 km/h (2 Bft) W-SW 240 0 min 0,000 mm 0,0 UV-I 0 W/m 1,2 C 1,8 C 9,7 km/h (2 Bft) 100,00 %
19.02.2016 06:48 3,1 C 87 % 1017,2 hPa 0,0 l/m 7,3 km/h (2 Bft) SW 221 0 min 0,000 mm 0,0 UV-I 0 W/m 1,2 C 2,2 C 11,3 km/h (2 Bft) 100,00 %
19.02.2016 06:49 3,1 C 87 % 1017,2 hPa 0,0 l/m 6,3 km/h (2 Bft) W-SW 244 0 min 0,000 mm 0,0 UV-I 0 W/m 1,2 C 3,1 C 11,3 km/h (2 Bft) 100,00 %
19.02.2016 06:50 3,1 C 87 % 1017,2 hPa 0,0 l/m 7,8 km/h (2 Bft) SW 223 0 min 0,000 mm 0,0 UV-I 0 W/m 1,2 C 1,8 C 12,9 km/h (3 Bft) 100,00 %
19.02.2016 06:51 3,1 C 87 % 1017,3 hPa 0,0 l/m 5,9 km/h (2 Bft) S-SW 209 0 min 0,000 mm 0,0 UV-I 0 W/m 1,2 C 3,1 C 9,7 km/h (2 Bft) 100,00 %
19.02.2016 06:52 3,1 C 87 % 1017,3 hPa 0,0 l/m 8,1 km/h (2 Bft) W-SW 250 0 min 0,000 mm 0,0 UV-I 0 W/m 1,2 C 1,5 C 11,3 km/h (2 Bft) 95,65 %
19.02.2016 06:53 3,1 C 87 % 1017,3 hPa 0,0 l/m 9,5 km/h (2 Bft) SW 226 0 min 0,000 mm 0,0 UV-I 0 W/m 1,2 C 0,4 C 11,3 km/h (2 Bft) 100,00 %
19.02.2016 06:54 3,1 C 87 % 1017,3 hPa 0,0 l/m 12,1 km/h (2 Bft) SW 233 0 min 0,000 mm 0,0 UV-I 0 W/m 1,2 C -1,5 C 16,1 km/h (3 Bft) 100,00 %
19.02.2016 06:55 3,1 C 86 % 1017,3 hPa 0,0 l/m 10,1 km/h (2 Bft) SW 222 0 min 0,000 mm 0,0 UV-I 0 W/m 1,0 C -0,1 C 12,9 km/h (3 Bft) 100,00 %
19.02.2016 06:56 3,1 C 86 % 1017,3 hPa 0,0 l/m 11,1 km/h (2 Bft) W-SW 242 0 min 0,000 mm 0,0 UV-I 0 W/m 1,0 C -0,8 C 16,1 km/h (3 Bft) 95,65 %
19.02.2016 06:57 3,1 C 86 % 1017,3 hPa 0,0 l/m 8,7 km/h (2 Bft) SW 234 0 min 0,000 mm 0,0 UV-I 0 W/m 1,0 C 1,0 C 11,3 km/h (2 Bft) 100,00 %
19.02.2016 06:58 3,1 C 86 % 1017,3 hPa 0,0 l/m 10,4 km/h (2 Bft) SW 234 0 min 0,000 mm 0,0 UV-I 0 W/m 1,0 C -0,3 C 14,5 km/h (3 Bft) 100,00 %
19.02.2016 06:59 3,1 C 86 % 1017,3 hPa 0,0 l/m 11,1 km/h (2 Bft) SW 230 0 min 0,000 mm 0,0 UV-I 0 W/m 1,0 C -0,8 C 16,1 km/h (3 Bft) 100,00 %
19.02.2016 07:00 3,1 C 86 % 1017,3 hPa 0,0 l/m 9,2 km/h (2 Bft) SW 234 0 min 0,000 mm 0,0 UV-I 0 W/m 1,0 C 0,6 C 14,5 km/h (3 Bft) 100,00 %
19.02.2016 07:01 3,2 C 86 % 1017,4 hPa 0,0 l/m 11,4 km/h (2 Bft) W-SW 238 0 min 0,000 mm 0,0 UV-I 0 W/m 1,1 C -0,9 C 19,3 km/h (3 Bft) 100,00 %
19.02.2016 07:02 3,2 C 86 % 1017,3 hPa 0,0 l/m 10,9 km/h (2 Bft) SW 220 0 min 0,000 mm 0,0 UV-I 0 W/m 1,1 C -0,6 C 16,1 km/h (3 Bft) 100,00 %
19.02.2016 07:03 3,2 C 86 % 1017,3 hPa 0,0 l/m 11,0 km/h (2 Bft) W-SW 246 0 min 0,000 mm 0,0 UV-I 0 W/m 1,1 C -0,6 C 12,9 km/h (3 Bft) 96,15 %
19.02.2016 07:04 3,2 C 86 % 1017,3 hPa 0,0 l/m 12,2 km/h (2 Bft) SW 231 0 min 0,000 mm 0,0 UV-I 0 W/m 1,1 C -1,4 C 16,1 km/h (3 Bft) 100,00 %
19.02.2016 07:05 3,2 C 86 % 1017,3 hPa 0,0 l/m 11,7 km/h (2 Bft) W-SW 237 0 min 0,000 mm 0,0 UV-I 0 W/m 1,1 C -1,1 C 14,5 km/h (3 Bft) 95,65 %
19.02.2016 07:06 3,2 C 86 % 1017,3 hPa 0,0 l/m 9,8 km/h (2 Bft) SW 232 0 min 0,000 mm 0,0 UV-I 0 W/m 1,1 C 0,2 C 14,5 km/h (3 Bft) 100,00 %
19.02.2016 07:07 3,2 C 86 % 1017,3 hPa 0,0 l/m 10,3 km/h (2 Bft) W-SW 248 0 min 0,000 mm 0,0 UV-I 0 W/m 1,1 C -0,1 C 14,5 km/h (3 Bft) 100,00 %
19.02.2016 07:08 3,2 C 86 % 1017,4 hPa 0,0 l/m 10,5 km/h (2 Bft) S-SW 205 0 min 0,000 mm 0,0 UV-I 0 W/m 1,1 C -0,3 C 12,9 km/h (3 Bft) 100,00 %
19.02.2016 07:09 3,2 C 86 % 1017,4 hPa 0,0 l/m 10,2 km/h (2 Bft) W-SW 237 0 min 0,000 mm 0,0 UV-I 0 W/m 1,1 C -0,1 C 16,1 km/h (3 Bft) 100,00 %
19.02.2016 07:10 3,1 C 86 % 1017,4 hPa 0,0 l/m 9,9 km/h (2 Bft) SW 215 0 min 0,000 mm 0,0 UV-I 0 W/m 1,0 C 0,0 C 14,5 km/h (3 Bft) 100,00 %
19.02.2016 07:11 3,2 C 86 % 1017,4 hPa 0,0 l/m 10,6 km/h (2 Bft) W-SW 238 0 min 0,000 mm 0,0 UV-I 0 W/m 1,1 C -0,4 C 14,5 km/h (3 Bft) 95,65 %
19.02.2016 07:12 3,2 C 86 % 1017,4 hPa 0,0 l/m 11,4 km/h (2 Bft) SW 226 0 min 0,000 mm 0,0 UV-I 0 W/m 1,1 C -0,9 C 14,5 km/h (3 Bft) 100,00 %
19.02.2016 07:13 3,2 C 86 % 1017,4 hPa 0,0 l/m 9,7 km/h (2 Bft) S-SW 212 0 min 0,000 mm 0,0 UV-I 0 W/m 1,1 C 0,3 C 12,9 km/h (3 Bft) 100,00 %
19.02.2016 07:14 3,2 C 86 % 1017,4 hPa 0,0 l/m 8,9 km/h (2 Bft) SW 229 0 min 0,000 mm 0,0 UV-I 0 W/m 1,1 C 0,9 C 14,5 km/h (3 Bft) 100,00 %
19.02.2016 07:15 3,2 C 86 % 1017,4 hPa 0,0 l/m 8,0 km/h (2 Bft) SW 232 0 min 0,000 mm 0,0 UV-I 0 W/m 1,1 C 1,7 C 11,3 km/h (2 Bft) 100,00 %
19.02.2016 07:16 3,2 C 86 % 1017,5 hPa 0,0 l/m 8,2 km/h (2 Bft) W-SW 250 0 min 0,000 mm 0,0 UV-I 0 W/m 1,1 C 1,5 C 11,3 km/h (2 Bft) 100,00 %
19.02.2016 07:17 3,1 C 86 % 1017,5 hPa 0,0 l/m 9,6 km/h (2 Bft) W-SW 245 0 min 0,000 mm 0,0 UV-I 0 W/m 1,0 C 0,3 C 12,9 km/h (3 Bft) 100,00 %
19.02.2016 07:18 3,1 C 86 % 1017,5 hPa 0,0 l/m 9,1 km/h (2 Bft) SW 217 0 min 0,000 mm 0,0 UV-I 0 W/m 1,0 C 0,7 C 11,3 km/h (2 Bft) 100,00 %
19.02.2016 07:19 3,1 C 86 % 1017,5 hPa 0,0 l/m 9,6 km/h (2 Bft) W-SW 243 0 min 0,000 mm 0,0 UV-I 0 W/m 1,0 C 0,3 C 12,9 km/h (3 Bft) 100,00 %
19.02.2016 07:20 3,1 C 86 % 1017,5 hPa 0,0 l/m 7,5 km/h (2 Bft) S-SW 203 0 min 0,000 mm 0,0 UV-I 0 W/m 1,0 C 2,1 C 9,7 km/h (2 Bft) 100,00 %
19.02.2016 07:21 3,1 C 86 % 1017,5 hPa 0,0 l/m 7,2 km/h (2 Bft) W-SW 242 0 min 0,000 mm 0,0 UV-I 0 W/m 1,0 C 2,3 C 14,5 km/h (3 Bft) 100,00 %
19.02.2016 07:22 3,2 C 86 % 1017,5 hPa 0,0 l/m 9,1 km/h (2 Bft) W 267 0 min 0,000 mm 0,0 UV-I 0 W/m 1,1 C 0,8 C 14,5 km/h (3 Bft) 100,00 %
19.02.2016 07:23 3,2 C 86 % 1017,5 hPa 0,0 l/m 8,1 km/h (2 Bft) W-SW 248 0 min 0,000 mm 0,0 UV-I 0 W/m 1,1 C 1,6 C 12,9 km/h (3 Bft) 100,00 %
19.02.2016 07:24 3,2 C 86 % 1017,5 hPa 0,0 l/m 10,9 km/h (2 Bft) W-SW 254 0 min 0,000 mm 0,0 UV-I 0 W/m 1,1 C -0,6 C 16,1 km/h (3 Bft) 100,00 %
19.02.2016 07:25 3,2 C 86 % 1017,6 hPa 0,0 l/m 8,2 km/h (2 Bft) W-SW 243 0 min 0,000 mm 0,0 UV-I 0 W/m 1,1 C 1,5 C 11,3 km/h (2 Bft) 100,00 %
19.02.2016 07:26 3,2 C 86 % 1017,6 hPa 0,0 l/m 8,3 km/h (2 Bft) W-SW 255 0 min 0,000 mm 0,0 UV-I 0 W/m 1,1 C 1,5 C 11,3 km/h (2 Bft) 100,00 %
19.02.2016 07:27 3,2 C 86 % 1017,6 hPa 0,0 l/m 7,7 km/h (2 Bft) SW 229 0 min 0,000 mm 0,0 UV-I 0 W/m 1,1 C 2,0 C 9,7 km/h (2 Bft) 100,00 %
19.02.2016 07:28 3,2 C 86 % 1017,6 hPa 0,0 l/m 9,2 km/h (2 Bft) SW 234 0 min 0,000 mm 0,0 UV-I 0 W/m 1,1 C 0,7 C 14,5 km/h (3 Bft) 100,00 %
19.02.2016 07:29 3,2 C 86 % 1017,6 hPa 0,0 l/m 8,7 km/h (2 Bft) SW 222 0 min 0,000 mm 0,0 UV-I 0 W/m 1,1 C 1,1 C 14,5 km/h (3 Bft) 100,00 %
19.02.2016 07:30 3,2 C 86 % 1017,6 hPa 0,0 l/m 9,0 km/h (2 Bft) W-SW 238 0 min 0,000 mm 0,0 UV-I 0 W/m 1,1 C 0,9 C 12,9 km/h (3 Bft) 96,15 %
19.02.2016 07:31 3,2 C 86 % 1017,6 hPa 0,0 l/m 9,1 km/h (2 Bft) SW 217 0 min 0,000 mm 0,0 UV-I 0 W/m 1,1 C 0,8 C 12,9 km/h (3 Bft) 100,00 %
19.02.2016 07:32 3,2 C 86 % 1017,6 hPa 0,0 l/m 8,3 km/h (2 Bft) W-SW 238 0 min 0,000 mm 0,0 UV-I 4 W/m 1,1 C 1,5 C 11,3 km/h (2 Bft) 100,00 %
19.02.2016 07:33 3,2 C 86 % 1017,6 hPa 0,0 l/m 9,5 km/h (2 Bft) S-SW 202 0 min 0,000 mm 0,0 UV-I 5 W/m 1,1 C 0,5 C 11,3 km/h (2 Bft) 100,00 %
19.02.2016 07:34 3,2 C 86 % 1017,7 hPa 0,0 l/m 9,9 km/h (2 Bft) W-SW 252 0 min 0,000 mm 0,0 UV-I 5 W/m 1,1 C 0,2 C 14,5 km/h (3 Bft) 100,00 %
19.02.2016 07:35 3,2 C 86 % 1017,6 hPa 0,0 l/m 10,1 km/h (2 Bft) W-SW 238 0 min 0,000 mm 0,0 UV-I 5 W/m 1,1 C 0,0 C 14,5 km/h (3 Bft) 100,00 %
19.02.2016 07:36 3,2 C 86 % 1017,6 hPa 0,0 l/m 8,5 km/h (2 Bft) W-SW 250 0 min 0,000 mm 0,0 UV-I 5 W/m 1,1 C 1,3 C 11,3 km/h (2 Bft) 100,00 %
19.02.2016 07:37 3,2 C 86 % 1017,7 hPa 0,0 l/m 8,5 km/h (2 Bft) SW 233 0 min 0,000 mm 0,0 UV-I 5 W/m 1,1 C 1,3 C 12,9 km/h (3 Bft) 100,00 %
19.02.2016 07:38 3,2 C 86 % 1017,7 hPa 0,0 l/m 9,6 km/h (2 Bft) S-SW 212 0 min 0,000 mm 0,0 UV-I 5 W/m 1,1 C 0,4 C 12,9 km/h (3 Bft) 100,00 %
19.02.2016 07:39 3,2 C 86 % 1017,8 hPa 0,0 l/m 9,3 km/h (2 Bft) W-SW 252 0 min 0,000 mm 0,0 UV-I 5 W/m 1,1 C 0,6 C 12,9 km/h (3 Bft) 95,83 %
19.02.2016 07:40 3,2 C 86 % 1017,8 hPa 0,0 l/m 9,2 km/h (2 Bft) W-SW 238 0 min 0,000 mm 0,0 UV-I 7 W/m 1,1 C 0,7 C 14,5 km/h (3 Bft) 100,00 %
19.02.2016 07:41 3,2 C 86 % 1017,8 hPa 0,0 l/m 10,1 km/h (2 Bft) W-SW 237 0 min 0,000 mm 0,0 UV-I 7 W/m 1,1 C 0,0 C 16,1 km/h (3 Bft) 100,00 %
19.02.2016 07:42 3,2 C 86 % 1017,8 hPa 0,0 l/m 11,4 km/h (2 Bft) SW 227 0 min 0,000 mm 0,0 UV-I 7 W/m 1,1 C -0,9 C 14,5 km/h (3 Bft) 100,00 %
19.02.2016 07:43 3,2 C 86 % 1017,8 hPa 0,0 l/m 11,1 km/h (2 Bft) SW 227 0 min 0,000 mm 0,0 UV-I 7 W/m 1,1 C -0,7 C 14,5 km/h (3 Bft) 91,30 %
19.02.2016 07:44 3,2 C 86 % 1017,8 hPa 0,0 l/m 11,9 km/h (2 Bft) SW 219 0 min 0,000 mm 0,0 UV-I 7 W/m 1,1 C -1,3 C 14,5 km/h (3 Bft) 100,00 %
19.02.2016 07:45 3,2 C 86 % 1017,8 hPa 0,0 l/m 11,7 km/h (2 Bft) SW 225 0 min 0,000 mm 0,0 UV-I 7 W/m 1,1 C -1,1 C 14,5 km/h (3 Bft) 95,65 %
19.02.2016 07:46 3,2 C 86 % 1017,8 hPa 0,0 l/m 8,2 km/h (2 Bft) SW 218 0 min 0,000 mm 0,0 UV-I 7 W/m 1,1 C 1,5 C 12,9 km/h (3 Bft) 95,83 %
19.02.2016 07:47 3,2 C 86 % 1017,9 hPa 0,0 l/m 8,9 km/h (2 Bft) SW 236 0 min 0,000 mm 0,0 UV-I 7 W/m 1,1 C 0,9 C 11,3 km/h (2 Bft) 95,65 %
19.02.2016 07:48 3,2 C 86 % 1017,9 hPa 0,0 l/m 9,1 km/h (2 Bft) SW 219 0 min 0,000 mm 0,0 UV-I 7 W/m 1,1 C 0,8 C 16,1 km/h (3 Bft) 95,83 %
19.02.2016 07:49 3,2 C 86 % 1017,9 hPa 0,0 l/m 9,3 km/h (2 Bft) W-SW 253 0 min 0,000 mm 0,0 UV-I 7 W/m 1,1 C 0,6 C 12,9 km/h (3 Bft) 91,30 %
19.02.2016 07:50 3,2 C 86 % 1017,9 hPa 0,0 l/m 8,6 km/h (2 Bft) SW 235 0 min 0,000 mm 0,0 UV-I 7 W/m 1,1 C 1,2 C 11,3 km/h (2 Bft) 95,83 %
19.02.2016 07:51 3,2 C 86 % 1018,0 hPa 0,0 l/m 11,6 km/h (2 Bft) W-SW 240 0 min 0,000 mm 0,0 UV-I 9 W/m 1,1 C -1,1 C 16,1 km/h (3 Bft) 100,00 %
19.02.2016 07:52 3,2 C 86 % 1018,0 hPa 0,0 l/m 10,3 km/h (2 Bft) S-SW 213 0 min 0,000 mm 0,0 UV-I 9 W/m 1,1 C -0,1 C 16,1 km/h (3 Bft) 95,83 %
19.02.2016 07:53 3,2 C 86 % 1018,1 hPa 0,0 l/m 13,3 km/h (3 Bft) SW 227 0 min 0,000 mm 0,0 UV-I 9 W/m 1,1 C -2,1 C 19,3 km/h (3 Bft) 100,00 %
19.02.2016 07:54 3,2 C 86 % 1018,0 hPa 0,0 l/m 10,0 km/h (2 Bft) SW 228 0 min 0,000 mm 0,0 UV-I 9 W/m 1,1 C 0,1 C 14,5 km/h (3 Bft) 95,83 %
19.02.2016 07:55 3,2 C 86 % 1018,1 hPa 0,0 l/m 12,5 km/h (3 Bft) SW 227 0 min 0,000 mm 0,0 UV-I 9 W/m 1,1 C -1,6 C 14,5 km/h (3 Bft) 95,65 %
19.02.2016 07:56 3,2 C 86 % 1018,1 hPa 0,0 l/m 11,5 km/h (2 Bft) SW 227 0 min 0,000 mm 0,0 UV-I 9 W/m 1,1 C -1,0 C 17,7 km/h (3 Bft) 100,00 %
19.02.2016 07:57 3,2 C 86 % 1018,1 hPa 0,0 l/m 13,1 km/h (3 Bft) SW 223 0 min 0,000 mm 0,0 UV-I 11 W/m 1,1 C -2,0 C 16,1 km/h (3 Bft) 95,83 %
19.02.2016 07:58 3,2 C 86 % 1018,1 hPa 0,0 l/m 11,5 km/h (2 Bft) W-SW 254 0 min 0,000 mm 0,0 UV-I 11 W/m 1,1 C -1,0 C 16,1 km/h (3 Bft) 95,65 %
19.02.2016 07:59 3,2 C 86 % 1018,2 hPa 0,0 l/m 11,3 km/h (2 Bft) SW 228 0 min 0,000 mm 0,0 UV-I 11 W/m 1,1 C -0,8 C 16,1 km/h (3 Bft) 95,83 %
19.02.2016 08:00 3,2 C 86 % 1018,2 hPa 0,0 l/m 14,3 km/h (3 Bft) SW 227 0 min 0,025 mm 0,0 UV-I 11 W/m 1,1 C -2,7 C 17,7 km/h (3 Bft) 100,00 %
19.02.2016 08:01 3,2 C 86 % 1018,2 hPa 0,0 l/m 13,9 km/h (3 Bft) W-SW 239 0 min 0,000 mm 0,0 UV-I 11 W/m 1,1 C -2,5 C 17,7 km/h (3 Bft) 95,83 %
19.02.2016 08:02 3,2 C 86 % 1018,2 hPa 0,0 l/m 10,2 km/h (2 Bft) SW 214 0 min 0,000 mm 0,0 UV-I 11 W/m 1,1 C -0,1 C 14,5 km/h (3 Bft) 95,65 %
19.02.2016 08:03 3,2 C 85 % 1018,2 hPa 0,0 l/m 11,1 km/h (2 Bft) SW 214 0 min 0,000 mm 0,0 UV-I 12 W/m 0,9 C -0,7 C 14,5 km/h (3 Bft) 100,00 %
19.02.2016 08:04 3,2 C 86 % 1018,3 hPa 0,0 l/m 12,1 km/h (2 Bft) SW 221 0 min 0,000 mm 0,0 UV-I 12 W/m 1,1 C -1,4 C 14,5 km/h (3 Bft) 96,15 %
19.02.2016 08:05 3,3 C 85 % 1018,2 hPa 0,0 l/m 8,0 km/h (2 Bft) SW 214 0 min 0,000 mm 0,0 UV-I 12 W/m 1,0 C 1,8 C 11,3 km/h (2 Bft) 100,00 %
19.02.2016 08:06 3,3 C 85 % 1018,2 hPa 0,0 l/m 11,2 km/h (2 Bft) SW 220 0 min 0,000 mm 0,0 UV-I 12 W/m 1,0 C -0,7 C 17,7 km/h (3 Bft) 91,30 %
19.02.2016 08:07 3,2 C 85 % 1018,3 hPa 0,0 l/m 10,1 km/h (2 Bft) S-SW 212 0 min 0,000 mm 0,0 UV-I 12 W/m 0,9 C 0,0 C 17,7 km/h (3 Bft) 95,83 %
19.02.2016 08:08 3,3 C 85 % 1018,2 hPa 0,0 l/m 10,8 km/h (2 Bft) SW 215 0 min 0,000 mm 0,0 UV-I 12 W/m 1,0 C -0,4 C 16,1 km/h (3 Bft) 95,65 %
19.02.2016 08:09 3,3 C 85 % 1018,2 hPa 0,0 l/m 10,1 km/h (2 Bft) W-SW 237 0 min 0,000 mm 0,0 UV-I 12 W/m 1,0 C 0,1 C 14,5 km/h (3 Bft) 96,30 %
19.02.2016 08:10 3,3 C 85 % 1018,3 hPa 0,0 l/m 12,7 km/h (3 Bft) S-SW 211 0 min 0,000 mm 0,0 UV-I 12 W/m 1,0 C -1,6 C 16,1 km/h (3 Bft) 95,65 %
19.02.2016 08:11 3,3 C 85 % 1018,2 hPa 0,0 l/m 11,9 km/h (2 Bft) W-SW 250 0 min 0,000 mm 0,0 UV-I 12 W/m 1,0 C -1,1 C 17,7 km/h (3 Bft) 95,83 %
19.02.2016 08:12 3,3 C 85 % 1018,3 hPa 0,0 l/m 12,0 km/h (2 Bft) W-SW 237 0 min 0,000 mm 0,0 UV-I 12 W/m 1,0 C -1,2 C 17,7 km/h (3 Bft) 100,00 %
19.02.2016 08:13 3,3 C 86 % 1018,3 hPa 0,0 l/m 13,5 km/h (3 Bft) SW 226 0 min 0,000 mm 0,0 UV-I 14 W/m 1,2 C -2,1 C 19,3 km/h (3 Bft) 95,83 %
19.02.2016 08:14 3,3 C 85 % 1018,3 hPa 0,0 l/m 11,3 km/h (2 Bft) SW 221 0 min 0,000 mm 0,0 UV-I 14 W/m 1,0 C -0,7 C 16,1 km/h (3 Bft) 100,00 %
19.02.2016 08:15 3,3 C 85 % 1018,2 hPa 0,0 l/m 13,9 km/h (3 Bft) SW 234 0 min 0,000 mm 0,0 UV-I 14 W/m 1,0 C -2,4 C 17,7 km/h (3 Bft) 95,83 %
19.02.2016 08:16 3,3 C 85 % 1018,2 hPa 0,0 l/m 10,8 km/h (2 Bft) W-SW 237 0 min 0,000 mm 0,0 UV-I 14 W/m 1,0 C -0,4 C 16,1 km/h (3 Bft) 100,00 %
19.02.2016 08:17 3,3 C 85 % 1018,2 hPa 0,0 l/m 9,9 km/h (2 Bft) SW 236 0 min 0,000 mm 0,0 UV-I 15 W/m 1,0 C 0,3 C 11,3 km/h (2 Bft) 95,83 %
19.02.2016 08:18 3,3 C 85 % 1018,3 hPa 0,0 l/m 9,7 km/h (2 Bft) SW 236 0 min 0,000 mm 0,0 UV-I 16 W/m 1,0 C 0,4 C 12,9 km/h (3 Bft) 100,00 %
19.02.2016 08:19 3,3 C 85 % 1018,2 hPa 0,0 l/m 12,5 km/h (3 Bft) W-SW 244 0 min 0,000 mm 0,0 UV-I 16 W/m 1,0 C -1,5 C 16,1 km/h (3 Bft) 100,00 %
19.02.2016 08:20 3,3 C 85 % 1018,2 hPa 0,0 l/m 11,7 km/h (2 Bft) W-SW 244 0 min 0,000 mm 0,0 UV-I 18 W/m 1,0 C -1,0 C 16,1 km/h (3 Bft) 100,00 %
19.02.2016 08:21 3,3 C 85 % 1018,2 hPa 0,0 l/m 9,9 km/h (2 Bft) SW 236 0 min 0,000 mm 0,0 UV-I 18 W/m 1,0 C 0,3 C 14,5 km/h (3 Bft) 100,00 %
19.02.2016 08:22 3,3 C 85 % 1018,2 hPa 0,0 l/m 9,4 km/h (2 Bft) SW 222 0 min 0,000 mm 0,0 UV-I 19 W/m 1,0 C 0,7 C 12,9 km/h (3 Bft) 100,00 %
19.02.2016 08:23 3,3 C 85 % 1018,3 hPa 0,0 l/m 8,7 km/h (2 Bft) W-SW 237 0 min 0,000 mm 0,0 UV-I 19 W/m 1,0 C 1,2 C 12,9 km/h (3 Bft) 91,30 %
19.02.2016 08:24 3,3 C 85 % 1018,3 hPa 0,0 l/m 8,4 km/h (2 Bft) W-SW 242 0 min 0,000 mm 0,0 UV-I 19 W/m 1,0 C 1,5 C 12,9 km/h (3 Bft) 100,00 %
19.02.2016 08:25 3,3 C 85 % 1018,2 hPa 0,0 l/m 11,8 km/h (2 Bft) SW 224 0 min 0,000 mm 0,0 UV-I 21 W/m 1,0 C -1,1 C 16,1 km/h (3 Bft) 100,00 %
19.02.2016 08:26 3,3 C 85 % 1018,2 hPa 0,0 l/m 7,7 km/h (2 Bft) SW 221 0 min 0,000 mm 0,0 UV-I 21 W/m 1,0 C 2,1 C 14,5 km/h (3 Bft) 95,83 %
19.02.2016 08:27 3,3 C 85 % 1018,2 hPa 0,0 l/m 9,3 km/h (2 Bft) SW 234 0 min 0,000 mm 0,0 UV-I 23 W/m 1,0 C 0,7 C 14,5 km/h (3 Bft) 100,00 %
19.02.2016 08:28 3,3 C 85 % 1018,1 hPa 0,0 l/m 12,2 km/h (2 Bft) S-SW 211 0 min 0,000 mm 0,0 UV-I 24 W/m 1,0 C -1,3 C 16,1 km/h (3 Bft) 100,00 %
19.02.2016 08:29 3,3 C 85 % 1018,2 hPa 0,0 l/m 10,8 km/h (2 Bft) W-SW 243 0 min 0,000 mm 0,0 UV-I 25 W/m 1,0 C -0,4 C 14,5 km/h (3 Bft) 96,15 %
19.02.2016 08:30 3,3 C 85 % 1018,2 hPa 0,0 l/m 6,9 km/h (2 Bft) SW 215 0 min 0,000 mm 0,0 UV-I 25 W/m 1,0 C 2,8 C 9,7 km/h (2 Bft) 95,83 %
19.02.2016 08:31 3,4 C 85 % 1018,2 hPa 0,0 l/m 10,4 km/h (2 Bft) SW 223 0 min 0,000 mm 0,0 UV-I 26 W/m 1,1 C 0,0 C 14,5 km/h (3 Bft) 95,65 %
19.02.2016 08:32 3,4 C 85 % 1018,2 hPa 0,0 l/m 13,2 km/h (3 Bft) W-SW 244 0 min 0,000 mm 0,0 UV-I 28 W/m 1,1 C -1,8 C 17,7 km/h (3 Bft) 95,83 %
19.02.2016 08:33 3,4 C 85 % 1018,1 hPa 0,0 l/m 10,8 km/h (2 Bft) W-SW 242 0 min 0,000 mm 0,0 UV-I 29 W/m 1,1 C -0,3 C 17,7 km/h (3 Bft) 100,00 %
19.02.2016 08:34 3,4 C 84 % 1018,1 hPa 0,0 l/m 12,7 km/h (3 Bft) W-SW 238 0 min 0,000 mm 0,0 UV-I 31 W/m 1,0 C -1,5 C 16,1 km/h (3 Bft) 100,00 %
19.02.2016 08:35 3,4 C 85 % 1018,1 hPa 0,0 l/m 11,3 km/h (2 Bft) W-SW 245 0 min 0,000 mm 0,0 UV-I 33 W/m 1,1 C -0,6 C 16,1 km/h (3 Bft) 95,65 %
19.02.2016 08:36 3,4 C 85 % 1018,2 hPa 0,0 l/m 9,9 km/h (2 Bft) SW 217 0 min 0,000 mm 0,0 UV-I 35 W/m 1,1 C 0,4 C 14,5 km/h (3 Bft) 100,00 %
19.02.2016 08:37 3,5 C 84 % 1018,1 hPa 0,0 l/m 15,5 km/h (3 Bft) SW 224 0 min 0,000 mm 0,0 UV-I 37 W/m 1,1 C -3,0 C 20,9 km/h (4 Bft) 100,00 %
19.02.2016 08:38 3,5 C 84 % 1018,1 hPa 0,0 l/m 12,7 km/h (3 Bft) SW 214 0 min 0,000 mm 0,0 UV-I 39 W/m 1,1 C -1,4 C 17,7 km/h (3 Bft) 100,00 %
19.02.2016 08:39 3,5 C 84 % 1018,1 hPa 0,0 l/m 10,0 km/h (2 Bft) S-SW 205 0 min 0,000 mm 0,0 UV-I 41 W/m 1,1 C 0,4 C 12,9 km/h (3 Bft) 100,00 %
19.02.2016 08:40 3,5 C 84 % 1018,2 hPa 0,0 l/m 9,4 km/h (2 Bft) SW 220 0 min 0,000 mm 0,0 UV-I 43 W/m 1,1 C 0,9 C 14,5 km/h (3 Bft) 100,00 %
19.02.2016 08:41 3,5 C 84 % 1018,1 hPa 0,0 l/m 12,8 km/h (3 Bft) S-SW 196 0 min 0,000 mm 0,0 UV-I 45 W/m 1,1 C -1,5 C 16,1 km/h (3 Bft) 95,83 %
19.02.2016 08:42 3,6 C 84 % 1018,1 hPa 0,0 l/m 11,6 km/h (2 Bft) SW 218 0 min 0,000 mm 0,0 UV-I 46 W/m 1,2 C -0,6 C 17,7 km/h (3 Bft) 95,65 %
19.02.2016 08:43 3,6 C 84 % 1018,1 hPa 0,0 l/m 9,7 km/h (2 Bft) SW 223 0 min 0,000 mm 0,0 UV-I 47 W/m 1,2 C 0,8 C 12,9 km/h (3 Bft) 100,00 %
19.02.2016 08:44 3,6 C 84 % 1018,1 hPa 0,0 l/m 10,4 km/h (2 Bft) SW 227 0 min 0,000 mm 0,0 UV-I 48 W/m 1,2 C 0,2 C 14,5 km/h (3 Bft) 96,15 %
19.02.2016 08:45 3,6 C 84 % 1018,1 hPa 0,0 l/m 10,8 km/h (2 Bft) SW 221 0 min 0,000 mm 0,0 UV-I 49 W/m 1,2 C -0,1 C 14,5 km/h (3 Bft) 100,00 %
19.02.2016 08:46 3,6 C 84 % 1018,1 hPa 0,0 l/m 13,8 km/h (3 Bft) W-SW 243 0 min 0,000 mm 0,0 UV-I 50 W/m 1,2 C -2,0 C 22,5 km/h (4 Bft) 96,15 %
19.02.2016 08:47 3,6 C 84 % 1018,1 hPa 0,0 l/m 12,7 km/h (3 Bft) SW 233 0 min 0,000 mm 0,0 UV-I 52 W/m 1,2 C -1,3 C 20,9 km/h (4 Bft) 100,00 %
19.02.2016 08:48 3,6 C 84 % 1018,1 hPa 0,0 l/m 12,5 km/h (3 Bft) W-SW 255 0 min 0,000 mm 0,0 UV-I 53 W/m 1,2 C -1,2 C 16,1 km/h (3 Bft) 100,00 %
19.02.2016 08:49 3,6 C 84 % 1018,1 hPa 0,0 l/m 13,0 km/h (3 Bft) SW 225 0 min 0,000 mm 0,0 UV-I 54 W/m 1,2 C -1,5 C 19,3 km/h (3 Bft) 100,00 %
19.02.2016 08:50 3,6 C 84 % 1018,0 hPa 0,0 l/m 11,6 km/h (2 Bft) W-SW 245 0 min 0,000 mm 0,0 UV-I 56 W/m 1,2 C -0,6 C 16,1 km/h (3 Bft) 100,00 %
19.02.2016 08:51 3,6 C 84 % 1018,0 hPa 0,0 l/m 8,2 km/h (2 Bft) S 184 0 min 0,000 mm 0,0 UV-I 57 W/m 1,2 C 2,0 C 12,9 km/h (3 Bft) 95,83 %
19.02.2016 08:52 3,6 C 84 % 1018,0 hPa 0,0 l/m 10,9 km/h (2 Bft) SW 227 0 min 0,000 mm 0,0 UV-I 59 W/m 1,2 C -0,1 C 14,5 km/h (3 Bft) 100,00 %
19.02.2016 08:53 3,7 C 84 % 1018,0 hPa 0,0 l/m 13,7 km/h (3 Bft) W 259 0 min 0,000 mm 0,0 UV-I 61 W/m 1,3 C -1,8 C 19,3 km/h (3 Bft) 100,00 %
19.02.2016 08:54 3,7 C 84 % 1018,0 hPa 0,0 l/m 11,1 km/h (2 Bft) S-SW 205 0 min 0,000 mm 0,0 UV-I 63 W/m 1,3 C -0,1 C 14,5 km/h (3 Bft) 100,00 %
19.02.2016 08:55 3,7 C 84 % 1018,1 hPa 0,0 l/m 12,5 km/h (3 Bft) W-SW 250 0 min 0,000 mm 0,0 UV-I 66 W/m 1,3 C -1,1 C 19,3 km/h (3 Bft) 100,00 %
19.02.2016 08:56 3,7 C 84 % 1018,0 hPa 0,0 l/m 10,9 km/h (2 Bft) SW 236 0 min 0,000 mm 0,0 UV-I 69 W/m 1,3 C -0,0 C 16,1 km/h (3 Bft) 95,65 %
19.02.2016 08:57 3,7 C 83 % 1018,0 hPa 0,0 l/m 11,0 km/h (2 Bft) SW 222 0 min 0,000 mm 0,0 UV-I 72 W/m 1,1 C -0,1 C 16,1 km/h (3 Bft) 100,00 %
19.02.2016 08:58 3,7 C 84 % 1018,0 hPa 0,0 l/m 13,6 km/h (3 Bft) SW 225 0 min 0,000 mm 0,0 UV-I 75 W/m 1,3 C -1,7 C 19,3 km/h (3 Bft) 95,65 %
19.02.2016 08:59 3,7 C 84 % 1018,0 hPa 0,0 l/m 10,5 km/h (2 Bft) S-SW 211 0 min 0,000 mm 0,0 UV-I 77 W/m 1,3 C 0,3 C 14,5 km/h (3 Bft) 100,00 %
19.02.2016 09:00 3,7 C 84 % 1018,1 hPa 0,0 l/m 14,7 km/h (3 Bft) W-SW 242 0 min 0,026 mm 0,0 UV-I 81 W/m 1,3 C -2,3 C 19,3 km/h (3 Bft) 100,00 %
19.02.2016 09:01 3,7 C 84 % 1018,0 hPa 0,0 l/m 14,5 km/h (3 Bft) SW 226 0 min 0,000 mm 0,0 UV-I 84 W/m 1,3 C -2,2 C 19,3 km/h (3 Bft) 100,00 %
19.02.2016 09:02 3,7 C 83 % 1018,0 hPa 0,0 l/m 15,2 km/h (3 Bft) SW 232 0 min 0,000 mm 0,0 UV-I 87 W/m 1,1 C -2,6 C 19,3 km/h (3 Bft) 100,00 %
19.02.2016 09:03 3,8 C 84 % 1018,0 hPa 0,0 l/m 13,6 km/h (3 Bft) W-SW 251 0 min 0,000 mm 0,0 UV-I 90 W/m 1,4 C -1,6 C 17,7 km/h (3 Bft) 100,00 %
19.02.2016 09:04 3,8 C 84 % 1018,0 hPa 0,0 l/m 9,9 km/h (2 Bft) SW 236 0 min 0,000 mm 0,0 UV-I 94 W/m 1,4 C 0,8 C 16,1 km/h (3 Bft) 100,00 %
19.02.2016 09:05 3,8 C 83 % 1018,1 hPa 0,0 l/m 10,7 km/h (2 Bft) W-SW 244 0 min 0,000 mm 0,0 UV-I 97 W/m 1,2 C 0,2 C 17,7 km/h (3 Bft) 100,00 %
19.02.2016 09:06 3,8 C 83 % 1018,1 hPa 0,0 l/m 13,3 km/h (3 Bft) SW 222 0 min 0,000 mm 0,0 UV-I 102 W/m 1,2 C -1,4 C 19,3 km/h (3 Bft) 95,83 %
19.02.2016 09:07 3,8 C 83 % 1018,1 hPa 0,0 l/m 12,2 km/h (2 Bft) SW 231 0 min 0,000 mm 0,0 UV-I 108 W/m 1,2 C -0,8 C 14,5 km/h (3 Bft) 100,00 %
19.02.2016 09:08 3,8 C 83 % 1018,1 hPa 0,0 l/m 14,3 km/h (3 Bft) W-SW 242 0 min 0,000 mm 0,0 UV-I 112 W/m 1,2 C -2,0 C 19,3 km/h (3 Bft) 100,00 %
19.02.2016 09:09 3,8 C 83 % 1018,1 hPa 0,0 l/m 10,6 km/h (2 Bft) W-SW 242 0 min 0,000 mm 0,0 UV-I 115 W/m 1,2 C 0,3 C 17,7 km/h (3 Bft) 100,00 %
19.02.2016 09:10 3,8 C 83 % 1018,2 hPa 0,0 l/m 11,2 km/h (2 Bft) SW 221 0 min 0,000 mm 0,0 UV-I 119 W/m 1,2 C -0,1 C 16,1 km/h (3 Bft) 100,00 %
19.02.2016 09:11 3,8 C 83 % 1018,1 hPa 0,0 l/m 12,3 km/h (3 Bft) SW 230 0 min 0,000 mm 0,0 UV-I 123 W/m 1,2 C -0,8 C 16,1 km/h (3 Bft) 92,31 %
19.02.2016 09:12 3,8 C 83 % 1018,1 hPa 0,0 l/m 13,6 km/h (3 Bft) SW 227 0 min 0,000 mm 0,0 UV-I 127 W/m 1,2 C -1,6 C 17,7 km/h (3 Bft) 100,00 %
19.02.2016 09:13 3,9 C 83 % 1018,1 hPa 0,0 l/m 14,4 km/h (3 Bft) SW 230 0 min 0,000 mm 0,0 UV-I 129 W/m 1,3 C -1,9 C 19,3 km/h (3 Bft) 100,00 %
19.02.2016 09:14 3,9 C 83 % 1018,2 hPa 0,0 l/m 11,3 km/h (2 Bft) SW 218 0 min 0,000 mm 0,0 UV-I 133 W/m 1,3 C -0,1 C 19,3 km/h (3 Bft) 100,00 %
19.02.2016 09:15 3,9 C 83 % 1018,2 hPa 0,0 l/m 12,0 km/h (2 Bft) W-SW 240 0 min 0,000 mm 0,0 UV-I 135 W/m 1,3 C -0,5 C 19,3 km/h (3 Bft) 100,00 %
19.02.2016 09:16 3,9 C 83 % 1018,1 hPa 0,0 l/m 11,1 km/h (2 Bft) W-SW 252 0 min 0,000 mm 0,0 UV-I 138 W/m 1,3 C 0,1 C 16,1 km/h (3 Bft) 96,15 %
19.02.2016 09:17 3,9 C 83 % 1018,1 hPa 0,0 l/m 12,5 km/h (3 Bft) W-SW 248 0 min 0,000 mm 0,0 UV-I 141 W/m 1,3 C -0,8 C 17,7 km/h (3 Bft) 100,00 %
19.02.2016 09:18 4,0 C 83 % 1018,1 hPa 0,0 l/m 12,4 km/h (3 Bft) W-SW 246 0 min 0,000 mm 0,0 UV-I 141 W/m 1,4 C -0,6 C 16,1 km/h (3 Bft) 91,30 %
19.02.2016 09:19 4,0 C 83 % 1018,1 hPa 0,0 l/m 15,6 km/h (3 Bft) SW 223 0 min 0,000 mm 0,0 UV-I 142 W/m 1,4 C -2,4 C 22,5 km/h (4 Bft) 100,00 %
19.02.2016 09:20 4,0 C 83 % 1018,1 hPa 0,0 l/m 15,0 km/h (3 Bft) SW 228 0 min 0,000 mm 0,0 UV-I 145 W/m 1,4 C -2,1 C 19,3 km/h (3 Bft) 100,00 %
19.02.2016 09:21 4,1 C 83 % 1018,1 hPa 0,0 l/m 12,5 km/h (3 Bft) S-SW 213 0 min 0,000 mm 0,0 UV-I 147 W/m 1,5 C -0,6 C 16,1 km/h (3 Bft) 100,00 %
19.02.2016 09:22 4,1 C 82 % 1018,1 hPa 0,0 l/m 17,8 km/h (3 Bft) SW 235 0 min 0,000 mm 0,0 UV-I 150 W/m 1,3 C -3,4 C 22,5 km/h (4 Bft) 100,00 %
19.02.2016 09:23 4,1 C 82 % 1018,1 hPa 0,0 l/m 15,1 km/h (3 Bft) SW 234 0 min 0,000 mm 0,0 UV-I 153 W/m 1,3 C -2,1 C 19,3 km/h (3 Bft) 100,00 %
19.02.2016 09:24 4,1 C 83 % 1018,2 hPa 0,0 l/m 12,9 km/h (3 Bft) SW 221 0 min 0,000 mm 0,0 UV-I 155 W/m 1,5 C -0,8 C 17,7 km/h (3 Bft) 100,00 %
19.02.2016 09:25 4,1 C 82 % 1018,1 hPa 0,0 l/m 12,9 km/h (3 Bft) W-SW 250 0 min 0,000 mm 0,0 UV-I 157 W/m 1,3 C -0,8 C 19,3 km/h (3 Bft) 100,00 %
19.02.2016 09:26 4,2 C 82 % 1018,1 hPa 0,0 l/m 14,8 km/h (3 Bft) W-SW 239 0 min 0,000 mm 0,0 UV-I 159 W/m 1,4 C -1,8 C 20,9 km/h (4 Bft) 100,00 %
19.02.2016 09:27 4,2 C 82 % 1018,2 hPa 0,0 l/m 15,0 km/h (3 Bft) W-SW 239 0 min 0,000 mm 0,0 UV-I 161 W/m 1,4 C -1,9 C 20,9 km/h (4 Bft) 100,00 %
19.02.2016 09:28 4,2 C 82 % 1018,2 hPa 0,0 l/m 13,0 km/h (3 Bft) SW 228 0 min 0,000 mm 0,0 UV-I 163 W/m 1,4 C -0,8 C 19,3 km/h (3 Bft) 100,00 %
19.02.2016 09:29 4,2 C 82 % 1018,2 hPa 0,0 l/m 12,8 km/h (3 Bft) W-SW 238 0 min 0,000 mm 0,0 UV-I 165 W/m 1,4 C -0,7 C 17,7 km/h (3 Bft) 100,00 %
19.02.2016 09:30 4,2 C 82 % 1018,2 hPa 0,0 l/m 13,9 km/h (3 Bft) SW 227 0 min 0,000 mm 0,0 UV-I 168 W/m 1,4 C -1,3 C 17,7 km/h (3 Bft) 95,65 %
19.02.2016 09:31 4,3 C 82 % 1018,2 hPa 0,0 l/m 8,2 km/h (2 Bft) W 261 0 min 0,000 mm 0,0 UV-I 171 W/m 1,5 C 2,7 C 11,3 km/h (2 Bft) 100,00 %
19.02.2016 09:32 4,3 C 82 % 1018,2 hPa 0,0 l/m 10,5 km/h (2 Bft) SW 236 0 min 0,000 mm 0,0 UV-I 174 W/m 1,5 C 0,9 C 14,5 km/h (3 Bft) 100,00 %
19.02.2016 09:33 4,3 C 81 % 1018,2 hPa 0,0 l/m 9,0 km/h (2 Bft) W-SW 237 0 min 0,000 mm 0,0 UV-I 178 W/m 1,3 C 2,1 C 14,5 km/h (3 Bft) 95,83 %
19.02.2016 09:34 4,3 C 81 % 1018,2 hPa 0,0 l/m 11,2 km/h (2 Bft) SW 217 0 min 0,000 mm 0,0 UV-I 180 W/m 1,3 C 0,5 C 16,1 km/h (3 Bft) 100,00 %
19.02.2016 09:35 4,4 C 81 % 1018,2 hPa 0,0 l/m 10,5 km/h (2 Bft) W-SW 244 0 min 0,000 mm 0,0 UV-I 183 W/m 1,4 C 1,1 C 14,5 km/h (3 Bft) 100,00 %
19.02.2016 09:36 4,4 C 81 % 1018,2 hPa 0,0 l/m 12,3 km/h (3 Bft) SW 219 0 min 0,000 mm 0,0 UV-I 183 W/m 1,4 C -0,1 C 22,5 km/h (4 Bft) 100,00 %
19.02.2016 09:37 4,4 C 81 % 1018,2 hPa 0,0 l/m 11,5 km/h (2 Bft) W-SW 246 0 min 0,000 mm 0,0 UV-I 182 W/m 1,4 C 0,4 C 17,7 km/h (3 Bft) 100,00 %
19.02.2016 09:38 4,4 C 81 % 1018,2 hPa 0,0 l/m 10,1 km/h (2 Bft) SW 223 0 min 0,000 mm 0,0 UV-I 181 W/m 1,4 C 1,3 C 14,5 km/h (3 Bft) 95,65 %
19.02.2016 09:39 4,4 C 81 % 1018,2 hPa 0,0 l/m 13,1 km/h (3 Bft) SW 232 0 min 0,000 mm 0,0 UV-I 180 W/m 1,4 C -0,6 C 16,1 km/h (3 Bft) 100,00 %
19.02.2016 09:40 4,4 C 81 % 1018,2 hPa 0,0 l/m 10,6 km/h (2 Bft) SW 215 0 min 0,000 mm 0,0 UV-I 179 W/m 1,4 C 1,0 C 16,1 km/h (3 Bft) 100,00 %
19.02.2016 09:41 4,5 C 81 % 1018,2 hPa 0,0 l/m 8,9 km/h (2 Bft) W-SW 238 0 min 0,000 mm 0,0 UV-I 179 W/m 1,5 C 2,3 C 11,3 km/h (2 Bft) 95,65 %
19.02.2016 09:42 4,5 C 81 % 1018,2 hPa 0,0 l/m 11,1 km/h (2 Bft) W-SW 246 0 min 0,000 mm 0,0 UV-I 178 W/m 1,5 C 0,8 C 16,1 km/h (3 Bft) 100,00 %
19.02.2016 09:43 4,5 C 80 % 1018,2 hPa 0,0 l/m 11,5 km/h (2 Bft) S-SW 199 0 min 0,000 mm 0,0 UV-I 178 W/m 1,4 C 0,5 C 14,5 km/h (3 Bft) 100,00 %
19.02.2016 09:44 4,5 C 81 % 1018,2 hPa 0,0 l/m 9,3 km/h (2 Bft) W-SW 257 0 min 0,000 mm 0,0 UV-I 178 W/m 1,5 C 2,0 C 12,9 km/h (3 Bft) 95,83 %
19.02.2016 09:45 4,5 C 81 % 1018,2 hPa 0,0 l/m 10,8 km/h (2 Bft) W-SW 252 0 min 0,000 mm 0,0 UV-I 178 W/m 1,5 C 1,0 C 14,5 km/h (3 Bft) 100,00 %
19.02.2016 09:46 4,5 C 81 % 1018,2 hPa 0,0 l/m 9,3 km/h (2 Bft) SW 216 0 min 0,000 mm 0,0 UV-I 178 W/m 1,5 C 2,0 C 16,1 km/h (3 Bft) 91,67 %
19.02.2016 09:47 4,6 C 80 % 1018,2 hPa 0,0 l/m 12,7 km/h (3 Bft) SW 225 0 min 0,000 mm 0,0 UV-I 179 W/m 1,5 C -0,1 C 17,7 km/h (3 Bft) 96,15 %
19.02.2016 09:48 4,6 C 81 % 1018,2 hPa 0,0 l/m 11,7 km/h (2 Bft) S-SW 212 0 min 0,000 mm 0,0 UV-I 179 W/m 1,6 C 0,5 C 16,1 km/h (3 Bft) 91,67 %
19.02.2016 09:49 4,6 C 81 % 1018,2 hPa 0,0 l/m 9,9 km/h (2 Bft) SW 232 0 min 0,000 mm 0,0 UV-I 182 W/m 1,6 C 1,7 C 16,1 km/h (3 Bft) 95,65 %
19.02.2016 09:50 4,6 C 80 % 1018,2 hPa 0,0 l/m 9,6 km/h (2 Bft) SW 236 0 min 0,000 mm 0,0 UV-I 183 W/m 1,5 C 1,9 C 16,1 km/h (3 Bft) 95,83 %
19.02.2016 09:51 4,6 C 80 % 1018,3 hPa 0,0 l/m 12,3 km/h (3 Bft) SW 234 0 min 0,000 mm 0,0 UV-I 184 W/m 1,5 C 0,1 C 16,1 km/h (3 Bft) 95,65 %
19.02.2016 09:52 4,6 C 80 % 1018,2 hPa 0,0 l/m 13,7 km/h (3 Bft) W-SW 245 0 min 0,000 mm 0,0 UV-I 186 W/m 1,5 C -0,7 C 17,7 km/h (3 Bft) 95,83 %
19.02.2016 09:53 4,6 C 80 % 1018,2 hPa 0,0 l/m 10,9 km/h (2 Bft) W-SW 250 0 min 0,000 mm 0,0 UV-I 188 W/m 1,5 C 1,0 C 16,1 km/h (3 Bft) 95,65 %
19.02.2016 09:54 4,6 C 80 % 1018,2 hPa 0,0 l/m 9,3 km/h (2 Bft) SW 228 0 min 0,000 mm 0,0 UV-I 188 W/m 1,5 C 2,1 C 12,9 km/h (3 Bft) 96,30 %
19.02.2016 09:55 4,6 C 80 % 1018,2 hPa 0,0 l/m 9,8 km/h (2 Bft) W-SW 252 0 min 0,000 mm 0,0 UV-I 190 W/m 1,5 C 1,8 C 12,9 km/h (3 Bft) 95,65 %
19.02.2016 09:56 4,6 C 80 % 1018,2 hPa 0,0 l/m 9,6 km/h (2 Bft) W-SW 240 0 min 0,000 mm 0,0 UV-I 190 W/m 1,5 C 1,9 C 14,5 km/h (3 Bft) 100,00 %
19.02.2016 09:57 4,6 C 80 % 1018,3 hPa 0,0 l/m 12,0 km/h (2 Bft) W-SW 248 0 min 0,000 mm 0,2 UV-I 191 W/m 1,5 C 0,3 C 17,7 km/h (3 Bft) 96,15 %
19.02.2016 09:58 4,7 C 80 % 1018,3 hPa 0,0 l/m 13,7 km/h (3 Bft) W-SW 244 0 min 0,000 mm 0,5 UV-I 193 W/m 1,6 C -0,6 C 16,1 km/h (3 Bft) 100,00 %
19.02.2016 09:59 4,7 C 81 % 1018,3 hPa 0,0 l/m 9,5 km/h (2 Bft) W 261 0 min 0,000 mm 0,5 UV-I 195 W/m 1,7 C 2,1 C 12,9 km/h (3 Bft) 96,30 %
19.02.2016 10:00 4,7 C 80 % 1018,3 hPa 0,0 l/m 12,5 km/h (3 Bft) S 188 0 min 0,076 mm 0,5 UV-I 196 W/m 1,6 C 0,1 C 17,7 km/h (3 Bft) 100,00 %
19.02.2016 10:01 4,7 C 80 % 1018,3 hPa 0,0 l/m 9,9 km/h (2 Bft) SW 219 0 min 0,000 mm 0,5 UV-I 198 W/m 1,6 C 1,8 C 14,5 km/h (3 Bft) 95,83 %
19.02.2016 10:02 4,7 C 80 % 1018,3 hPa 0,0 l/m 11,1 km/h (2 Bft) SW 236 0 min 0,000 mm 0,5 UV-I 200 W/m 1,6 C 1,0 C 16,1 km/h (3 Bft) 100,00 %
19.02.2016 10:03 4,7 C 80 % 1018,3 hPa 0,0 l/m 9,7 km/h (2 Bft) W-SW 248 0 min 0,000 mm 0,5 UV-I 201 W/m 1,6 C 2,0 C 14,5 km/h (3 Bft) 95,83 %
19.02.2016 10:04 4,7 C 80 % 1018,3 hPa 0,0 l/m 10,8 km/h (2 Bft) W 274 0 min 0,000 mm 0,5 UV-I 204 W/m 1,6 C 1,2 C 14,5 km/h (3 Bft) 92,31 %
19.02.2016 10:05 4,8 C 80 % 1018,3 hPa 0,0 l/m 8,2 km/h (2 Bft) W-SW 249 0 min 0,000 mm 0,5 UV-I 206 W/m 1,6 C 3,2 C 14,5 km/h (3 Bft) 100,00 %
19.02.2016 10:06 4,8 C 80 % 1018,3 hPa 0,0 l/m 7,6 km/h (2 Bft) W-SW 242 0 min 0,000 mm 0,5 UV-I 208 W/m 1,6 C 3,7 C 9,7 km/h (2 Bft) 95,65 %
19.02.2016 10:07 4,8 C 80 % 1018,3 hPa 0,0 l/m 9,1 km/h (2 Bft) SW 225 0 min 0,000 mm 0,5 UV-I 212 W/m 1,6 C 2,5 C 14,5 km/h (3 Bft) 100,00 %
19.02.2016 10:08 4,8 C 80 % 1018,3 hPa 0,0 l/m 9,9 km/h (2 Bft) SW 220 0 min 0,000 mm 0,5 UV-I 215 W/m 1,6 C 1,9 C 12,9 km/h (3 Bft) 95,65 %
19.02.2016 10:09 4,9 C 80 % 1018,3 hPa 0,0 l/m 8,9 km/h (2 Bft) SW 224 0 min 0,000 mm 0,5 UV-I 217 W/m 1,7 C 2,8 C 12,9 km/h (3 Bft) 100,00 %
19.02.2016 10:10 4,9 C 79 % 1018,4 hPa 0,0 l/m 12,9 km/h (3 Bft) SW 227 0 min 0,000 mm 0,5 UV-I 222 W/m 1,6 C 0,1 C 17,7 km/h (3 Bft) 91,30 %
19.02.2016 10:11 4,9 C 79 % 1018,4 hPa 0,0 l/m 8,3 km/h (2 Bft) W-SW 255 1 min 0,000 mm 0,5 UV-I 229 W/m 1,6 C 3,3 C 12,9 km/h (3 Bft) 95,83 %
19.02.2016 10:12 5,0 C 79 % 1018,3 hPa 0,0 l/m 11,5 km/h (2 Bft) W-SW 241 1 min 0,000 mm 0,5 UV-I 231 W/m 1,7 C 1,1 C 16,1 km/h (3 Bft) 95,65 %
19.02.2016 10:13 4,9 C 79 % 1018,4 hPa 0,0 l/m 8,8 km/h (2 Bft) SW 222 1 min 0,000 mm 0,5 UV-I 235 W/m 1,6 C 2,9 C 12,9 km/h (3 Bft) 96,30 %
19.02.2016 10:14 4,9 C 79 % 1018,4 hPa 0,0 l/m 6,2 km/h (2 Bft) W-SW 243 1 min 0,000 mm 0,6 UV-I 238 W/m 1,6 C 4,9 C 8,0 km/h (2 Bft) 100,00 %
19.02.2016 10:15 4,9 C 79 % 1018,4 hPa 0,0 l/m 10,3 km/h (2 Bft) W-SW 242 1 min 0,000 mm 0,6 UV-I 242 W/m 1,6 C 1,8 C 16,1 km/h (3 Bft) 95,83 %
19.02.2016 10:16 4,9 C 79 % 1018,4 hPa 0,0 l/m 9,3 km/h (2 Bft) W-SW 241 1 min 0,000 mm 0,6 UV-I 246 W/m 1,6 C 2,5 C 12,9 km/h (3 Bft) 95,65 %
19.02.2016 10:17 5,0 C 79 % 1018,4 hPa 0,0 l/m 13,3 km/h (3 Bft) W-SW 239 1 min 0,000 mm 0,6 UV-I 250 W/m 1,7 C -0,0 C 17,7 km/h (3 Bft) 100,00 %
19.02.2016 10:18 5,1 C 79 % 1018,4 hPa 0,0 l/m 12,5 km/h (3 Bft) S-SW 211 1 min 0,000 mm 0,6 UV-I 250 W/m 1,8 C 0,6 C 17,7 km/h (3 Bft) 100,00 %
19.02.2016 10:19 5,1 C 80 % 1018,4 hPa 0,0 l/m 11,6 km/h (2 Bft) W-NW 284 1 min 0,000 mm 0,6 UV-I 250 W/m 1,9 C 1,1 C 17,7 km/h (3 Bft) 100,00 %
19.02.2016 10:20 5,2 C 79 % 1018,5 hPa 0,0 l/m 12,9 km/h (3 Bft) W-SW 248 1 min 0,000 mm 0,6 UV-I 253 W/m 1,9 C 0,5 C 17,7 km/h (3 Bft) 95,83 %
19.02.2016 10:21 5,2 C 79 % 1018,5 hPa 0,0 l/m 12,9 km/h (3 Bft) W 259 1 min 0,000 mm 0,6 UV-I 246 W/m 1,9 C 0,5 C 17,7 km/h (3 Bft) 100,00 %
19.02.2016 10:22 5,3 C 79 % 1018,4 hPa 0,0 l/m 10,7 km/h (2 Bft) W 271 1 min 0,000 mm 0,6 UV-I 239 W/m 2,0 C 1,9 C 16,1 km/h (3 Bft) 95,83 %
19.02.2016 10:23 5,3 C 79 % 1018,5 hPa 0,0 l/m 7,0 km/h (2 Bft) W-SW 253 0 min 0,000 mm 0,6 UV-I 229 W/m 2,0 C 4,8 C 12,9 km/h (3 Bft) 91,30 %
19.02.2016 10:24 5,3 C 78 % 1018,5 hPa 0,0 l/m 13,3 km/h (3 Bft) SW 217 0 min 0,000 mm 0,6 UV-I 226 W/m 1,8 C 0,3 C 20,9 km/h (4 Bft) 100,00 %
19.02.2016 10:25 5,3 C 78 % 1018,5 hPa 0,0 l/m 11,0 km/h (2 Bft) W-SW 243 0 min 0,000 mm 0,6 UV-I 222 W/m 1,8 C 1,7 C 14,5 km/h (3 Bft) 100,00 %
19.02.2016 10:26 5,2 C 79 % 1018,5 hPa 0,0 l/m 12,5 km/h (3 Bft) W-SW 251 0 min 0,000 mm 0,6 UV-I 222 W/m 1,9 C 0,7 C 17,7 km/h (3 Bft) 95,83 %
19.02.2016 10:27 5,2 C 79 % 1018,5 hPa 0,0 l/m 13,6 km/h (3 Bft) W-SW 243 0 min 0,000 mm 0,6 UV-I 220 W/m 1,9 C 0,1 C 19,3 km/h (3 Bft) 100,00 %
19.02.2016 10:28 5,2 C 78 % 1018,5 hPa 0,0 l/m 17,4 km/h (3 Bft) W-SW 252 0 min 0,000 mm 0,6 UV-I 223 W/m 1,7 C -1,8 C 20,9 km/h (4 Bft) 100,00 %
19.02.2016 10:29 5,2 C 78 % 1018,5 hPa 0,0 l/m 13,4 km/h (3 Bft) W-SW 252 0 min 0,000 mm 0,6 UV-I 229 W/m 1,7 C 0,2 C 17,7 km/h (3 Bft) 95,65 %
19.02.2016 10:30 5,2 C 78 % 1018,5 hPa 0,0 l/m 12,9 km/h (3 Bft) SW 232 0 min 0,000 mm 0,6 UV-I 239 W/m 1,7 C 0,5 C 17,7 km/h (3 Bft) 98,28 %
19.02.2016 10:31 5,2 C 78 % 1018,5 hPa 0,0 l/m 12,2 km/h (2 Bft) SW 230 0 min 0,000 mm 0,6 UV-I 241 W/m 1,7 C 0,9 C 16,1 km/h (3 Bft) 100,00 %
19.02.2016 10:32 5,2 C 78 % 1018,5 hPa 0,0 l/m 11,6 km/h (2 Bft) W-SW 246 0 min 0,000 mm 0,6 UV-I 243 W/m 1,7 C 1,2 C 17,7 km/h (3 Bft) 100,00 %
19.02.2016 10:33 5,2 C 78 % 1018,6 hPa 0,0 l/m 16,2 km/h (3 Bft) W-SW 257 0 min 0,000 mm 0,6 UV-I 241 W/m 1,7 C -1,3 C 20,9 km/h (4 Bft) 100,00 %
19.02.2016 10:34 5,2 C 78 % 1018,5 hPa 0,0 l/m 12,9 km/h (3 Bft) SW 235 0 min 0,000 mm 0,6 UV-I 231 W/m 1,7 C 0,5 C 16,1 km/h (3 Bft) 95,83 %
19.02.2016 10:35 5,2 C 78 % 1018,5 hPa 0,0 l/m 11,4 km/h (2 Bft) SW 214 0 min 0,000 mm 0,6 UV-I 229 W/m 1,7 C 1,4 C 16,1 km/h (3 Bft) 95,83 %
19.02.2016 10:36 5,2 C 78 % 1018,6 hPa 0,0 l/m 10,5 km/h (2 Bft) W-SW 239 0 min 0,000 mm 0,6 UV-I 226 W/m 1,7 C 1,9 C 14,5 km/h (3 Bft) 95,65 %
19.02.2016 10:37 5,2 C 78 % 1018,6 hPa 0,0 l/m 12,2 km/h (2 Bft) SW 233 0 min 0,000 mm 0,6 UV-I 218 W/m 1,7 C 0,9 C 16,1 km/h (3 Bft) 100,00 %
19.02.2016 10:38 5,2 C 79 % 1018,6 hPa 0,0 l/m 9,0 km/h (2 Bft) SW 225 0 min 0,000 mm 0,6 UV-I 216 W/m 1,9 C 3,0 C 11,3 km/h (2 Bft) 95,65 %
19.02.2016 10:39 5,3 C 78 % 1018,6 hPa 0,0 l/m 6,8 km/h (2 Bft) W-NW 284 0 min 0,000 mm 0,6 UV-I 216 W/m 1,8 C 5,0 C 11,3 km/h (2 Bft) 100,00 %
19.02.2016 10:40 5,3 C 79 % 1018,6 hPa 0,0 l/m 10,1 km/h (2 Bft) W 265 0 min 0,000 mm 0,6 UV-I 216 W/m 2,0 C 2,3 C 17,7 km/h (3 Bft) 95,65 %
19.02.2016 10:41 5,3 C 78 % 1018,6 hPa 0,0 l/m 9,4 km/h (2 Bft) W-SW 255 0 min 0,000 mm 0,6 UV-I 212 W/m 1,8 C 2,8 C 14,5 km/h (3 Bft) 100,00 %
19.02.2016 10:42 5,3 C 78 % 1018,6 hPa 0,0 l/m 8,8 km/h (2 Bft) SW 232 0 min 0,000 mm 0,6 UV-I 210 W/m 1,8 C 3,3 C 14,5 km/h (3 Bft) 100,00 %
19.02.2016 10:43 5,3 C 78 % 1018,6 hPa 0,0 l/m 8,9 km/h (2 Bft) W-SW 254 0 min 0,000 mm 0,6 UV-I 207 W/m 1,8 C 3,2 C 12,9 km/h (3 Bft) 95,83 %
19.02.2016 10:44 5,3 C 78 % 1018,7 hPa 0,0 l/m 10,5 km/h (2 Bft) W 264 0 min 0,000 mm 0,6 UV-I 203 W/m 1,8 C 2,1 C 16,1 km/h (3 Bft) 91,30 %
19.02.2016 10:45 5,3 C 78 % 1018,7 hPa 0,0 l/m 10,5 km/h (2 Bft) SW 236 0 min 0,000 mm 0,6 UV-I 200 W/m 1,8 C 2,1 C 14,5 km/h (3 Bft) 100,00 %
19.02.2016 10:46 5,3 C 78 % 1018,7 hPa 0,0 l/m 8,5 km/h (2 Bft) SW 229 0 min 0,000 mm 0,6 UV-I 200 W/m 1,8 C 3,5 C 11,3 km/h (2 Bft) 100,00 %
19.02.2016 10:47 5,3 C 78 % 1018,7 hPa 0,0 l/m 10,5 km/h (2 Bft) W-SW 244 0 min 0,000 mm 0,6 UV-I 200 W/m 1,8 C 2,1 C 16,1 km/h (3 Bft) 100,00 %
19.02.2016 10:48 5,3 C 77 % 1018,6 hPa 0,0 l/m 8,1 km/h (2 Bft) SW 223 0 min 0,000 mm 0,6 UV-I 200 W/m 1,6 C 3,8 C 12,9 km/h (3 Bft) 95,65 %
19.02.2016 10:49 5,3 C 78 % 1018,6 hPa 0,0 l/m 11,6 km/h (2 Bft) W 261 0 min 0,000 mm 0,6 UV-I 199 W/m 1,8 C 1,3 C 14,5 km/h (3 Bft) 100,00 %
19.02.2016 10:50 5,3 C 78 % 1018,7 hPa 0,0 l/m 11,8 km/h (2 Bft) SW 220 0 min 0,000 mm 0,6 UV-I 199 W/m 1,8 C 1,2 C 16,1 km/h (3 Bft) 92,86 %
19.02.2016 10:51 5,3 C 77 % 1018,6 hPa 0,0 l/m 16,4 km/h (3 Bft) W-SW 243 0 min 0,000 mm 0,6 UV-I 197 W/m 1,6 C -1,2 C 24,1 km/h (4 Bft) 100,00 %
19.02.2016 10:52 5,3 C 77 % 1018,7 hPa 0,0 l/m 16,5 km/h (3 Bft) W-SW 242 0 min 0,000 mm 0,6 UV-I 197 W/m 1,6 C -1,3 C 22,5 km/h (4 Bft) 100,00 %
19.02.2016 10:53 5,3 C 77 % 1018,7 hPa 0,0 l/m 17,7 km/h (3 Bft) SW 236 0 min 0,000 mm 0,6 UV-I 197 W/m 1,6 C -1,8 C 22,5 km/h (4 Bft) 100,00 %
19.02.2016 10:54 5,3 C 77 % 1018,7 hPa 0,0 l/m 11,8 km/h (2 Bft) W 265 0 min 0,000 mm 0,6 UV-I 196 W/m 1,6 C 1,2 C 17,7 km/h (3 Bft) 100,00 %
19.02.2016 10:55 5,3 C 77 % 1018,7 hPa 0,0 l/m 8,8 km/h (2 Bft) SW 236 0 min 0,000 mm 0,6 UV-I 194 W/m 1,6 C 3,3 C 11,3 km/h (2 Bft) 95,65 %
19.02.2016 10:56 5,3 C 77 % 1018,7 hPa 0,0 l/m 11,4 km/h (2 Bft) W 274 0 min 0,000 mm 0,6 UV-I 192 W/m 1,6 C 1,5 C 14,5 km/h (3 Bft) 100,00 %
19.02.2016 10:57 5,3 C 77 % 1018,7 hPa 0,0 l/m 9,1 km/h (2 Bft) SW 222 0 min 0,000 mm 0,6 UV-I 190 W/m 1,6 C 3,1 C 14,5 km/h (3 Bft) 100,00 %
19.02.2016 10:58 5,3 C 78 % 1018,7 hPa 0,0 l/m 10,6 km/h (2 Bft) W-SW 250 0 min 0,000 mm 0,5 UV-I 188 W/m 1,8 C 2,0 C 12,9 km/h (3 Bft) 100,00 %
19.02.2016 10:59 5,3 C 78 % 1018,7 hPa 0,0 l/m 12,8 km/h (3 Bft) W-SW 249 0 min 0,000 mm 0,5 UV-I 185 W/m 1,8 C 0,6 C 16,1 km/h (3 Bft) 100,00 %
19.02.2016 11:00 5,4 C 77 % 1018,7 hPa 0,0 l/m 9,7 km/h (2 Bft) SW 236 0 min 0,102 mm 0,5 UV-I 182 W/m 1,7 C 2,7 C 14,5 km/h (3 Bft) 100,00 %
19.02.2016 11:01 5,4 C 78 % 1018,7 hPa 0,0 l/m 7,8 km/h (2 Bft) W 275 0 min 0,000 mm 0,5 UV-I 180 W/m 1,9 C 4,2 C 14,5 km/h (3 Bft) 100,00 %
19.02.2016 11:02 5,4 C 78 % 1018,7 hPa 0,0 l/m 7,4 km/h (2 Bft) W 267 0 min 0,000 mm 0,5 UV-I 179 W/m 1,9 C 4,5 C 17,7 km/h (3 Bft) 100,00 %
19.02.2016 11:03 5,4 C 78 % 1018,7 hPa 0,0 l/m 10,3 km/h (2 Bft) W-SW 246 0 min 0,000 mm 0,5 UV-I 178 W/m 1,9 C 2,3 C 14,5 km/h (3 Bft) 100,00 %
19.02.2016 11:04 5,4 C 77 % 1018,8 hPa 0,0 l/m 7,1 km/h (2 Bft) W-SW 252 0 min 0,000 mm 0,5 UV-I 174 W/m 1,7 C 4,8 C 14,5 km/h (3 Bft) 100,00 %
19.02.2016 11:05 5,4 C 77 % 1018,8 hPa 0,0 l/m 4,6 km/h (1 Bft) W 261 0 min 0,000 mm 0,5 UV-I 171 W/m 1,7 C 5,4 C 6,4 km/h (2 Bft) 100,00 %
19.02.2016 11:06 5,4 C 77 % 1018,8 hPa 0,0 l/m 9,5 km/h (2 Bft) W-NW 296 0 min 0,000 mm 0,5 UV-I 168 W/m 1,7 C 2,9 C 14,5 km/h (3 Bft) 100,00 %
19.02.2016 11:07 5,4 C 77 % 1018,8 hPa 0,0 l/m 8,4 km/h (2 Bft) W 279 0 min 0,000 mm 0,5 UV-I 166 W/m 1,7 C 3,7 C 11,3 km/h (2 Bft) 100,00 %
19.02.2016 11:08 5,4 C 77 % 1018,9 hPa 0,0 l/m 8,9 km/h (2 Bft) W-SW 257 0 min 0,000 mm 0,5 UV-I 165 W/m 1,7 C 3,3 C 14,5 km/h (3 Bft) 100,00 %
19.02.2016 11:09 5,4 C 77 % 1018,8 hPa 0,0 l/m 12,4 km/h (3 Bft) W-SW 244 0 min 0,000 mm 0,5 UV-I 165 W/m 1,7 C 1,0 C 17,7 km/h (3 Bft) 95,65 %
19.02.2016 11:10 5,4 C 77 % 1018,8 hPa 0,0 l/m 13,2 km/h (3 Bft) W 279 0 min 0,000 mm 0,5 UV-I 167 W/m 1,7 C 0,5 C 16,1 km/h (3 Bft) 100,00 %
19.02.2016 11:11 5,4 C 76 % 1018,8 hPa 0,0 l/m 10,3 km/h (2 Bft) W-SW 242 0 min 0,000 mm 0,5 UV-I 170 W/m 1,5 C 2,3 C 19,3 km/h (3 Bft) 100,00 %
19.02.2016 11:12 5,4 C 77 % 1018,9 hPa 0,0 l/m 11,8 km/h (2 Bft) W 267 0 min 0,000 mm 0,5 UV-I 174 W/m 1,7 C 1,3 C 16,1 km/h (3 Bft) 100,00 %
19.02.2016 11:13 5,4 C 77 % 1018,8 hPa 0,0 l/m 8,4 km/h (2 Bft) W 260 0 min 0,000 mm 0,6 UV-I 180 W/m 1,7 C 3,7 C 12,9 km/h (3 Bft) 92,31 %
19.02.2016 11:14 5,4 C 77 % 1018,8 hPa 0,0 l/m 9,7 km/h (2 Bft) W 265 0 min 0,000 mm 0,6 UV-I 186 W/m 1,7 C 2,7 C 12,9 km/h (3 Bft) 100,00 %
19.02.2016 11:15 5,4 C 77 % 1018,7 hPa 0,0 l/m 8,3 km/h (2 Bft) W 281 0 min 0,000 mm 0,6 UV-I 193 W/m 1,7 C 3,8 C 11,3 km/h (2 Bft) 91,30 %
19.02.2016 11:16 5,4 C 77 % 1018,8 hPa 0,0 l/m 8,4 km/h (2 Bft) SW 222 0 min 0,000 mm 0,6 UV-I 200 W/m 1,7 C 3,7 C 12,9 km/h (3 Bft) 100,00 %
19.02.2016 11:17 5,4 C 77 % 1018,7 hPa 0,0 l/m 10,1 km/h (2 Bft) W 267 0 min 0,000 mm 0,6 UV-I 205 W/m 1,7 C 2,4 C 12,9 km/h (3 Bft) 100,00 %
19.02.2016 11:18 5,4 C 76 % 1018,8 hPa 0,0 l/m 10,7 km/h (2 Bft) W 274 0 min 0,000 mm 0,6 UV-I 209 W/m 1,5 C 2,0 C 16,1 km/h (3 Bft) 100,00 %
19.02.2016 11:19 5,4 C 76 % 1018,8 hPa 0,0 l/m 10,7 km/h (2 Bft) W 274 0 min 0,000 mm 0,6 UV-I 212 W/m 1,5 C 2,0 C 14,5 km/h (3 Bft) 100,00 %
19.02.2016 11:20 5,4 C 76 % 1018,7 hPa 0,0 l/m 8,8 km/h (2 Bft) W 275 0 min 0,000 mm 0,6 UV-I 211 W/m 1,5 C 3,4 C 16,1 km/h (3 Bft) 95,83 %
19.02.2016 11:21 5,4 C 76 % 1018,8 hPa 0,0 l/m 5,8 km/h (2 Bft) W-NW 282 0 min 0,000 mm 0,6 UV-I 207 W/m 1,5 C 5,4 C 11,3 km/h (2 Bft) 100,00 %
19.02.2016 11:22 5,5 C 76 % 1018,7 hPa 0,0 l/m 4,0 km/h (1 Bft) W-SW 246 0 min 0,000 mm 0,6 UV-I 200 W/m 1,6 C 5,5 C 6,4 km/h (2 Bft) 100,00 %
19.02.2016 11:23 5,5 C 76 % 1018,7 hPa 0,0 l/m 6,6 km/h (2 Bft) W-NW 298 0 min 0,000 mm 0,6 UV-I 193 W/m 1,6 C 5,3 C 9,7 km/h (2 Bft) 100,00 %
19.02.2016 11:24 5,6 C 77 % 1018,7 hPa 0,0 l/m 7,7 km/h (2 Bft) SW 227 0 min 0,000 mm 0,6 UV-I 188 W/m 1,9 C 4,5 C 14,5 km/h (3 Bft) 95,65 %
19.02.2016 11:25 5,6 C 76 % 1018,8 hPa 0,0 l/m 13,1 km/h (3 Bft) W 270 0 min 0,000 mm 0,6 UV-I 182 W/m 1,7 C 0,8 C 16,1 km/h (3 Bft) 100,00 %
19.02.2016 11:26 5,6 C 76 % 1018,8 hPa 0,0 l/m 8,2 km/h (2 Bft) W-SW 250 0 min 0,000 mm 0,5 UV-I 178 W/m 1,7 C 4,1 C 12,9 km/h (3 Bft) 100,00 %
19.02.2016 11:27 5,6 C 76 % 1018,7 hPa 0,0 l/m 4,0 km/h (1 Bft) W-SW 244 0 min 0,000 mm 0,5 UV-I 176 W/m 1,7 C 5,6 C 8,0 km/h (2 Bft) 100,00 %
19.02.2016 11:28 5,6 C 77 % 1018,8 hPa 0,0 l/m 7,2 km/h (2 Bft) W 269 0 min 0,000 mm 0,5 UV-I 176 W/m 1,9 C 4,9 C 11,3 km/h (2 Bft) 95,65 %
19.02.2016 11:29 5,6 C 76 % 1018,8 hPa 0,0 l/m 6,7 km/h (2 Bft) W-SW 257 0 min 0,000 mm 0,5 UV-I 176 W/m 1,7 C 5,4 C 9,7 km/h (2 Bft) 95,83 %
19.02.2016 11:30 5,6 C 76 % 1018,7 hPa 0,0 l/m 6,7 km/h (2 Bft) SW 231 0 min 0,000 mm 0,5 UV-I 176 W/m 1,7 C 5,4 C 9,7 km/h (2 Bft) 100,00 %
19.02.2016 11:31 5,6 C 76 % 1018,7 hPa 0,0 l/m 7,0 km/h (2 Bft) W-NW 285 0 min 0,000 mm 0,5 UV-I 175 W/m 1,7 C 5,1 C 11,3 km/h (2 Bft) 100,00 %
19.02.2016 11:32 5,6 C 76 % 1018,7 hPa 0,0 l/m 10,1 km/h (2 Bft) SW 231 0 min 0,000 mm 0,5 UV-I 174 W/m 1,7 C 2,7 C 14,5 km/h (3 Bft) 95,65 %
19.02.2016 11:33 5,6 C 76 % 1018,7 hPa 0,0 l/m 11,2 km/h (2 Bft) SW 236 0 min 0,000 mm 0,5 UV-I 174 W/m 1,7 C 1,9 C 16,1 km/h (3 Bft) 100,00 %
19.02.2016 11:34 5,6 C 76 % 1018,7 hPa 0,0 l/m 7,0 km/h (2 Bft) W-NW 285 0 min 0,000 mm 0,5 UV-I 172 W/m 1,7 C 5,1 C 11,3 km/h (2 Bft) 95,83 %
19.02.2016 11:35 5,6 C 77 % 1018,7 hPa 0,0 l/m 6,1 km/h (2 Bft) W 279 0 min 0,000 mm 0,5 UV-I 172 W/m 1,9 C 5,6 C 12,9 km/h (3 Bft) 100,00 %
19.02.2016 11:36 5,6 C 77 % 1018,8 hPa 0,0 l/m 4,6 km/h (1 Bft) W-NW 290 0 min 0,000 mm 0,5 UV-I 173 W/m 1,9 C 5,6 C 6,4 km/h (2 Bft) 96,30 %
19.02.2016 11:37 5,7 C 77 % 1018,8 hPa 0,0 l/m 7,9 km/h (2 Bft) W-SW 258 0 min 0,000 mm 0,6 UV-I 177 W/m 2,0 C 4,4 C 14,5 km/h (3 Bft) 95,65 %
19.02.2016 11:38 5,7 C 76 % 1018,8 hPa 0,0 l/m 8,0 km/h (2 Bft) W-SW 246 0 min 0,000 mm 0,6 UV-I 185 W/m 1,8 C 4,3 C 12,9 km/h (3 Bft) 100,00 %
19.02.2016 11:39 5,7 C 76 % 1018,7 hPa 0,0 l/m 5,0 km/h (1 Bft) W-SW 254 0 min 0,000 mm 0,6 UV-I 196 W/m 1,8 C 5,7 C 8,0 km/h (2 Bft) 95,65 %
19.02.2016 11:40 5,7 C 76 % 1018,7 hPa 0,0 l/m 3,5 km/h (1 Bft) W 263 0 min 0,000 mm 0,6 UV-I 207 W/m 1,8 C 5,7 C 6,4 km/h (2 Bft) 95,83 %
19.02.2016 11:41 5,7 C 77 % 1018,7 hPa 0,0 l/m 3,8 km/h (1 Bft) W 277 0 min 0,000 mm 0,7 UV-I 216 W/m 2,0 C 5,7 C 6,4 km/h (2 Bft) 95,65 %
19.02.2016 11:42 5,7 C 76 % 1018,7 hPa 0,0 l/m 9,7 km/h (2 Bft) W-SW 248 0 min 0,000 mm 0,7 UV-I 224 W/m 1,8 C 3,1 C 12,9 km/h (3 Bft) 100,00 %
19.02.2016 11:43 5,8 C 76 % 1018,7 hPa 0,0 l/m 10,3 km/h (2 Bft) W 262 0 min 0,000 mm 0,7 UV-I 226 W/m 1,9 C 2,8 C 12,9 km/h (3 Bft) 95,65 %
19.02.2016 11:44 5,8 C 76 % 1018,7 hPa 0,0 l/m 7,6 km/h (2 Bft) W-SW 240 0 min 0,000 mm 0,7 UV-I 223 W/m 1,9 C 4,8 C 12,9 km/h (3 Bft) 100,00 %
19.02.2016 11:45 5,8 C 76 % 1018,7 hPa 0,0 l/m 10,5 km/h (2 Bft) W-SW 254 0 min 0,000 mm 0,7 UV-I 222 W/m 1,9 C 2,6 C 14,5 km/h (3 Bft) 96,15 %
19.02.2016 11:46 5,8 C 76 % 1018,7 hPa 0,0 l/m 11,1 km/h (2 Bft) W 263 0 min 0,000 mm 0,7 UV-I 218 W/m 1,9 C 2,2 C 16,1 km/h (3 Bft) 95,83 %
19.02.2016 11:47 5,8 C 75 % 1018,7 hPa 0,0 l/m 10,7 km/h (2 Bft) SW 235 0 min 0,000 mm 0,7 UV-I 219 W/m 1,7 C 2,5 C 12,9 km/h (3 Bft) 100,00 %
19.02.2016 11:48 5,8 C 75 % 1018,7 hPa 0,0 l/m 10,0 km/h (2 Bft) W-SW 253 0 min 0,000 mm 0,7 UV-I 223 W/m 1,7 C 3,0 C 14,5 km/h (3 Bft) 95,83 %
19.02.2016 11:49 5,8 C 75 % 1018,8 hPa 0,0 l/m 10,1 km/h (2 Bft) W-SW 248 0 min 0,000 mm 0,7 UV-I 230 W/m 1,7 C 2,9 C 14,5 km/h (3 Bft) 100,00 %
19.02.2016 11:50 5,8 C 75 % 1018,8 hPa 0,0 l/m 6,3 km/h (2 Bft) W-SW 248 0 min 0,000 mm 0,7 UV-I 239 W/m 1,7 C 5,8 C 11,3 km/h (2 Bft) 95,83 %
19.02.2016 11:51 5,8 C 75 % 1018,7 hPa 0,0 l/m 9,2 km/h (2 Bft) SW 222 0 min 0,000 mm 0,7 UV-I 244 W/m 1,7 C 3,5 C 12,9 km/h (3 Bft) 100,00 %
19.02.2016 11:52 5,8 C 75 % 1018,7 hPa 0,0 l/m 10,1 km/h (2 Bft) SW 236 0 min 0,000 mm 0,7 UV-I 243 W/m 1,7 C 2,9 C 16,1 km/h (3 Bft) 95,83 %
19.02.2016 11:53 5,9 C 75 % 1018,7 hPa 0,0 l/m 9,7 km/h (2 Bft) W-SW 246 0 min 0,000 mm 0,7 UV-I 239 W/m 1,8 C 3,3 C 14,5 km/h (3 Bft) 100,00 %
19.02.2016 11:54 5,9 C 74 % 1018,8 hPa 0,0 l/m 9,5 km/h (2 Bft) W 263 0 min 0,000 mm 0,7 UV-I 237 W/m 1,6 C 3,4 C 12,9 km/h (3 Bft) 86,96 %
19.02.2016 11:55 5,9 C 74 % 1018,7 hPa 0,0 l/m 11,2 km/h (2 Bft) W-SW 252 0 min 0,000 mm 0,8 UV-I 239 W/m 1,6 C 2,3 C 14,5 km/h (3 Bft) 100,00 %
19.02.2016 11:56 5,9 C 74 % 1018,8 hPa 0,0 l/m 9,3 km/h (2 Bft) W-SW 252 0 min 0,000 mm 0,8 UV-I 243 W/m 1,6 C 3,6 C 14,5 km/h (3 Bft) 95,65 %
19.02.2016 11:57 5,9 C 74 % 1018,7 hPa 0,0 l/m 7,4 km/h (2 Bft) S-SW 213 0 min 0,000 mm 0,8 UV-I 244 W/m 1,6 C 5,0 C 11,3 km/h (2 Bft) 96,30 %
19.02.2016 11:58 5,9 C 74 % 1018,8 hPa 0,0 l/m 12,0 km/h (2 Bft) W-SW 250 0 min 0,000 mm 0,7 UV-I 243 W/m 1,6 C 1,8 C 17,7 km/h (3 Bft) 91,30 %
19.02.2016 11:59 5,9 C 74 % 1018,7 hPa 0,0 l/m 11,4 km/h (2 Bft) W 268 0 min 0,000 mm 0,7 UV-I 242 W/m 1,6 C 2,2 C 14,5 km/h (3 Bft) 95,83 %
19.02.2016 12:00 5,9 C 74 % 1018,7 hPa 0,0 l/m 9,4 km/h (2 Bft) SW 221 0 min 0,000 mm 0,7 UV-I 242 W/m 1,6 C 3,5 C 12,9 km/h (3 Bft) 100,00 %
19.02.2016 12:01 5,9 C 74 % 1018,7 hPa 0,0 l/m 6,3 km/h (2 Bft) W 267 0 min 0,101 mm 0,7 UV-I 244 W/m 1,6 C 5,9 C 8,0 km/h (2 Bft) 95,83 %
19.02.2016 12:02 5,9 C 74 % 1018,7 hPa 0,0 l/m 9,1 km/h (2 Bft) W-SW 254 0 min 0,000 mm 0,7 UV-I 244 W/m 1,6 C 3,7 C 12,9 km/h (3 Bft) 91,30 %
19.02.2016 12:03 5,9 C 74 % 1018,7 hPa 0,0 l/m 5,9 km/h (2 Bft) W-NW 294 0 min 0,000 mm 0,7 UV-I 243 W/m 1,6 C 5,9 C 11,3 km/h (2 Bft) 91,67 %
19.02.2016 12:04 5,9 C 74 % 1018,7 hPa 0,0 l/m 6,8 km/h (2 Bft) W 277 0 min 0,000 mm 0,7 UV-I 238 W/m 1,6 C 5,6 C 11,3 km/h (2 Bft) 91,30 %
19.02.2016 12:05 6,0 C 74 % 1018,8 hPa 0,0 l/m 10,7 km/h (2 Bft) SW 227 0 min 0,000 mm 0,7 UV-I 236 W/m 1,7 C 2,7 C 14,5 km/h (3 Bft) 100,00 %
19.02.2016 12:06 6,0 C 74 % 1018,8 hPa 0,0 l/m 11,2 km/h (2 Bft) W-SW 245 0 min 0,000 mm 0,7 UV-I 236 W/m 1,7 C 2,4 C 16,1 km/h (3 Bft) 92,31 %
19.02.2016 12:07 6,0 C 73 % 1018,8 hPa 0,0 l/m 9,9 km/h (2 Bft) W-SW 252 0 min 0,000 mm 0,7 UV-I 238 W/m 1,5 C 3,2 C 12,9 km/h (3 Bft) 100,00 %
19.02.2016 12:08 6,1 C 73 % 1018,7 hPa 0,0 l/m 14,0 km/h (3 Bft) W 260 0 min 0,000 mm 0,7 UV-I 241 W/m 1,6 C 0,9 C 17,7 km/h (3 Bft) 91,30 %
19.02.2016 12:09 6,0 C 73 % 1018,7 hPa 0,0 l/m 12,6 km/h (3 Bft) W-SW 239 0 min 0,000 mm 0,7 UV-I 243 W/m 1,5 C 1,6 C 16,1 km/h (3 Bft) 95,83 %
19.02.2016 12:10 6,0 C 73 % 1018,7 hPa 0,0 l/m 9,8 km/h (2 Bft) W 259 0 min 0,000 mm 0,7 UV-I 244 W/m 1,5 C 3,3 C 12,9 km/h (3 Bft) 98,17 %
19.02.2016 12:11 6,0 C 74 % 1018,7 hPa 0,0 l/m 9,3 km/h (2 Bft) W 266 0 min 0,000 mm 0,7 UV-I 242 W/m 1,7 C 3,7 C 12,9 km/h (3 Bft) 97,56 %
19.02.2016 12:12 5,9 C 73 % 1018,7 hPa 0,0 l/m 11,0 km/h (2 Bft) W 267 0 min 0,000 mm 0,7 UV-I 241 W/m 1,4 C 2,4 C 14,5 km/h (3 Bft) 100,00 %
19.02.2016 12:13 6,0 C 74 % 1018,7 hPa 0,0 l/m 10,3 km/h (2 Bft) W-SW 254 0 min 0,000 mm 0,7 UV-I 243 W/m 1,7 C 3,0 C 14,5 km/h (3 Bft) 95,83 %
19.02.2016 12:14 6,0 C 74 % 1018,6 hPa 0,0 l/m 9,0 km/h (2 Bft) W 273 0 min 0,000 mm 0,7 UV-I 244 W/m 1,7 C 3,9 C 12,9 km/h (3 Bft) 100,00 %
19.02.2016 12:15 6,0 C 74 % 1018,6 hPa 0,0 l/m 6,0 km/h (2 Bft) W-SW 257 0 min 0,000 mm 0,7 UV-I 245 W/m 1,7 C 6,0 C 12,9 km/h (3 Bft) 95,65 %
19.02.2016 12:16 6,0 C 74 % 1018,6 hPa 0,0 l/m 7,2 km/h (2 Bft) W-SW 237 0 min 0,000 mm 0,7 UV-I 243 W/m 1,7 C 5,3 C 14,5 km/h (3 Bft) 100,00 %
19.02.2016 12:17 6,1 C 73 % 1018,6 hPa 0,0 l/m 9,7 km/h (2 Bft) W 264 0 min 0,000 mm 0,7 UV-I 238 W/m 1,6 C 3,5 C 14,5 km/h (3 Bft) 100,00 %
19.02.2016 12:18 6,1 C 73 % 1018,6 hPa 0,0 l/m 6,8 km/h (2 Bft) W-NW 298 0 min 0,000 mm 0,7 UV-I 230 W/m 1,6 C 5,8 C 11,3 km/h (2 Bft) 100,00 %
19.02.2016 12:19 6,1 C 73 % 1018,6 hPa 0,0 l/m 4,8 km/h (1 Bft) W 261 0 min 0,000 mm 0,7 UV-I 215 W/m 1,6 C 6,1 C 6,4 km/h (2 Bft) 96,15 %
19.02.2016 12:20 6,1 C 73 % 1018,6 hPa 0,0 l/m 6,2 km/h (2 Bft) W-NW 293 0 min 0,000 mm 0,6 UV-I 200 W/m 1,6 C 6,1 C 11,3 km/h (2 Bft) 100,00 %
19.02.2016 12:21 6,1 C 74 % 1018,6 hPa 0,0 l/m 6,7 km/h (2 Bft) W-SW 246 0 min 0,000 mm 0,6 UV-I 187 W/m 1,8 C 5,9 C 9,7 km/h (2 Bft) 100,00 %
19.02.2016 12:22 6,1 C 75 % 1018,6 hPa 0,0 l/m 7,1 km/h (2 Bft) W-SW 256 0 min 0,000 mm 0,6 UV-I 175 W/m 2,0 C 5,5 C 11,3 km/h (2 Bft) 100,00 %
19.02.2016 12:23 6,1 C 73 % 1018,6 hPa 0,0 l/m 4,2 km/h (1 Bft) W-SW 250 0 min 0,000 mm 0,5 UV-I 166 W/m 1,6 C 6,1 C 8,0 km/h (2 Bft) 100,00 %
19.02.2016 12:24 6,1 C 74 % 1018,6 hPa 0,0 l/m 3,8 km/h (1 Bft) W-SW 250 0 min 0,000 mm 0,5 UV-I 157 W/m 1,8 C 6,1 C 4,8 km/h (1 Bft) 100,00 %
19.02.2016 12:25 6,1 C 74 % 1018,7 hPa 0,0 l/m 4,1 km/h (1 Bft) W-SW 255 0 min 0,000 mm 0,5 UV-I 151 W/m 1,8 C 6,1 C 6,4 km/h (2 Bft) 100,00 %
19.02.2016 12:26 6,1 C 75 % 1018,6 hPa 0,0 l/m 5,8 km/h (2 Bft) W 265 0 min 0,000 mm 0,5 UV-I 148 W/m 2,0 C 6,1 C 11,3 km/h (2 Bft) 100,00 %
19.02.2016 12:27 6,1 C 74 % 1018,6 hPa 0,0 l/m 3,6 km/h (1 Bft) W 277 0 min 0,000 mm 0,5 UV-I 145 W/m 1,8 C 6,1 C 9,7 km/h (2 Bft) 100,00 %
19.02.2016 12:28 6,1 C 75 % 1018,6 hPa 0,0 l/m 7,0 km/h (2 Bft) W 273 0 min 0,000 mm 0,5 UV-I 141 W/m 2,0 C 5,6 C 9,7 km/h (2 Bft) 100,00 %
19.02.2016 12:29 6,2 C 75 % 1018,6 hPa 0,0 l/m 7,0 km/h (2 Bft) S-SW 201 0 min 0,000 mm 0,5 UV-I 136 W/m 2,1 C 5,7 C 12,9 km/h (3 Bft) 100,00 %
19.02.2016 12:30 6,2 C 73 % 1018,7 hPa 0,0 l/m 9,3 km/h (2 Bft) W-SW 245 0 min 0,000 mm 0,2 UV-I 130 W/m 1,7 C 3,9 C 14,5 km/h (3 Bft) 100,00 %
19.02.2016 12:31 6,1 C 73 % 1018,6 hPa 0,0 l/m 12,4 km/h (3 Bft) W-SW 252 0 min 0,000 mm 0,0 UV-I 122 W/m 1,6 C 1,8 C 16,1 km/h (3 Bft) 95,65 %
19.02.2016 12:32 6,1 C 73 % 1018,6 hPa 0,0 l/m 13,8 km/h (3 Bft) W-SW 246 0 min 0,000 mm 0,0 UV-I 118 W/m 1,6 C 1,0 C 16,1 km/h (3 Bft) 100,00 %
19.02.2016 12:33 6,0 C 73 % 1018,7 hPa 0,0 l/m 12,5 km/h (3 Bft) W 279 0 min 0,000 mm 0,0 UV-I 117 W/m 1,5 C 1,6 C 16,1 km/h (3 Bft) 100,00 %
19.02.2016 12:34 5,9 C 73 % 1018,7 hPa 0,0 l/m 9,2 km/h (2 Bft) W-SW 252 0 min 0,000 mm 0,0 UV-I 114 W/m 1,4 C 3,6 C 14,5 km/h (3 Bft) 100,00 %
19.02.2016 12:35 5,9 C 73 % 1018,7 hPa 0,0 l/m 9,9 km/h (2 Bft) W 261 0 min 0,000 mm 0,0 UV-I 112 W/m 1,4 C 3,1 C 12,9 km/h (3 Bft) 100,00 %
19.02.2016 12:36 5,9 C 74 % 1018,7 hPa 0,0 l/m 7,2 km/h (2 Bft) W 261 0 min 0,000 mm 0,0 UV-I 109 W/m 1,6 C 5,2 C 11,3 km/h (2 Bft) 93,33 %
19.02.2016 12:37 5,9 C 73 % 1018,7 hPa 0,0 l/m 5,7 km/h (1 Bft) W-SW 245 0 min 0,000 mm 0,0 UV-I 111 W/m 1,4 C 5,9 C 6,4 km/h (2 Bft) 100,00 %
19.02.2016 12:38 5,9 C 73 % 1018,7 hPa 0,0 l/m 4,7 km/h (1 Bft) W-SW 237 0 min 0,000 mm 0,0 UV-I 109 W/m 1,4 C 5,9 C 8,0 km/h (2 Bft) 95,65 %
19.02.2016 12:39 5,8 C 74 % 1018,6 hPa 0,0 l/m 5,9 km/h (2 Bft) W-SW 248 0 min 0,000 mm 0,0 UV-I 109 W/m 1,5 C 5,8 C 8,0 km/h (2 Bft) 100,00 %
19.02.2016 12:40 5,8 C 74 % 1018,7 hPa 0,0 l/m 4,5 km/h (1 Bft) W-SW 252 0 min 0,000 mm 0,0 UV-I 111 W/m 1,5 C 5,8 C 6,4 km/h (2 Bft) 95,65 %
19.02.2016 12:41 5,8 C 74 % 1018,6 hPa 0,0 l/m 5,0 km/h (1 Bft) W-SW 258 0 min 0,000 mm 0,0 UV-I 118 W/m 1,5 C 5,8 C 9,7 km/h (2 Bft) 100,00 %
19.02.2016 12:42 5,9 C 75 % 1018,6 hPa 0,0 l/m 6,0 km/h (2 Bft) W 279 0 min 0,000 mm 0,0 UV-I 126 W/m 1,8 C 5,9 C 9,7 km/h (2 Bft) 100,00 %
19.02.2016 12:43 5,9 C 75 % 1018,6 hPa 0,0 l/m 6,8 km/h (2 Bft) SW 225 0 min 0,000 mm 0,4 UV-I 137 W/m 1,8 C 5,6 C 9,7 km/h (2 Bft) 100,00 %
19.02.2016 12:44 5,9 C 75 % 1018,6 hPa 0,0 l/m 7,0 km/h (2 Bft) SW 228 0 min 0,000 mm 0,5 UV-I 142 W/m 1,8 C 5,4 C 11,3 km/h (2 Bft) 100,00 %
19.02.2016 12:45 5,9 C 75 % 1018,6 hPa 0,0 l/m 8,6 km/h (2 Bft) W 261 0 min 0,000 mm 0,5 UV-I 142 W/m 1,8 C 4,1 C 11,3 km/h (2 Bft) 100,00 %
19.02.2016 12:46 5,9 C 75 % 1018,6 hPa 0,0 l/m 6,3 km/h (2 Bft) W-SW 252 0 min 0,000 mm 0,5 UV-I 142 W/m 1,8 C 5,9 C 9,7 km/h (2 Bft) 100,00 %
19.02.2016 12:47 5,9 C 75 % 1018,6 hPa 0,0 l/m 6,7 km/h (2 Bft) W-SW 239 0 min 0,000 mm 0,5 UV-I 143 W/m 1,8 C 5,7 C 11,3 km/h (2 Bft) 100,00 %
19.02.2016 12:48 5,9 C 75 % 1018,6 hPa 0,0 l/m 4,9 km/h (1 Bft) SW 215 0 min 0,000 mm 0,5 UV-I 147 W/m 1,8 C 5,9 C 8,0 km/h (2 Bft) 100,00 %
19.02.2016 12:49 6,0 C 74 % 1018,6 hPa 0,0 l/m 5,4 km/h (1 Bft) W 259 0 min 0,000 mm 0,5 UV-I 149 W/m 1,7 C 6,0 C 8,0 km/h (2 Bft) 100,00 %
19.02.2016 12:50 6,0 C 75 % 1018,6 hPa 0,0 l/m 5,4 km/h (1 Bft) W-SW 254 0 min 0,000 mm 0,5 UV-I 152 W/m 1,9 C 6,0 C 6,4 km/h (2 Bft) 100,00 %
19.02.2016 12:51 6,0 C 75 % 1018,6 hPa 0,0 l/m 5,2 km/h (1 Bft) SW 232 0 min 0,000 mm 0,5 UV-I 157 W/m 1,9 C 6,0 C 6,4 km/h (2 Bft) 100,00 %
19.02.2016 12:52 6,1 C 76 % 1018,6 hPa 0,0 l/m 9,1 km/h (2 Bft) W 264 0 min 0,000 mm 0,5 UV-I 164 W/m 2,2 C 3,9 C 11,3 km/h (2 Bft) 100,00 %
19.02.2016 12:53 6,1 C 75 % 1018,6 hPa 0,0 l/m 7,3 km/h (2 Bft) W-SW 250 0 min 0,000 mm 0,5 UV-I 170 W/m 2,0 C 5,3 C 11,3 km/h (2 Bft) 100,00 %
19.02.2016 12:54 6,1 C 76 % 1018,6 hPa 0,0 l/m 7,1 km/h (2 Bft) SW 230 0 min 0,000 mm 0,6 UV-I 178 W/m 2,2 C 5,5 C 11,3 km/h (2 Bft) 100,00 %
19.02.2016 12:55 6,1 C 75 % 1018,6 hPa 0,0 l/m 3,1 km/h (1 Bft) W-SW 248 0 min 0,000 mm 0,6 UV-I 187 W/m 2,0 C 6,1 C 4,8 km/h (1 Bft) 100,00 %
19.02.2016 12:56 6,2 C 75 % 1018,6 hPa 0,0 l/m 4,6 km/h (1 Bft) SW 227 0 min 0,000 mm 0,6 UV-I 197 W/m 2,1 C 6,2 C 6,4 km/h (2 Bft) 100,00 %
19.02.2016 12:57 6,2 C 75 % 1018,6 hPa 0,0 l/m 8,6 km/h (2 Bft) W-SW 251 0 min 0,000 mm 0,6 UV-I 205 W/m 2,1 C 4,4 C 11,3 km/h (2 Bft) 100,00 %
19.02.2016 12:58 6,2 C 75 % 1018,6 hPa 0,0 l/m 8,1 km/h (2 Bft) SW 219 0 min 0,000 mm 0,6 UV-I 213 W/m 2,1 C 4,8 C 11,3 km/h (2 Bft) 100,00 %
19.02.2016 12:59 6,2 C 75 % 1018,6 hPa 0,0 l/m 7,5 km/h (2 Bft) W-NW 294 0 min 0,000 mm 0,7 UV-I 221 W/m 2,1 C 5,3 C 12,9 km/h (3 Bft) 100,00 %
19.02.2016 13:00 6,2 C 74 % 1018,6 hPa 0,0 l/m 6,3 km/h (2 Bft) W-SW 248 0 min 0,000 mm 0,7 UV-I 231 W/m 1,9 C 6,2 C 12,9 km/h (3 Bft) 100,00 %
19.02.2016 13:01 6,2 C 75 % 1018,6 hPa 0,0 l/m 8,8 km/h (2 Bft) W-SW 257 0 min 0,102 mm 0,7 UV-I 242 W/m 2,1 C 4,2 C 12,9 km/h (3 Bft) 100,00 %
19.02.2016 13:02 6,3 C 74 % 1018,6 hPa 0,0 l/m 6,4 km/h (2 Bft) SW 235 0 min 0,000 mm 0,7 UV-I 250 W/m 2,0 C 6,3 C 11,3 km/h (2 Bft) 100,00 %
19.02.2016 13:03 6,3 C 75 % 1018,6 hPa 0,0 l/m 10,1 km/h (2 Bft) W-SW 249 0 min 0,000 mm 0,7 UV-I 257 W/m 2,2 C 3,4 C 14,5 km/h (3 Bft) 100,00 %
19.02.2016 13:04 6,3 C 74 % 1018,6 hPa 0,0 l/m 8,0 km/h (2 Bft) W-SW 242 0 min 0,000 mm 0,8 UV-I 263 W/m 2,0 C 5,0 C 11,3 km/h (2 Bft) 100,00 %
19.02.2016 13:05 6,3 C 74 % 1018,6 hPa 0,0 l/m 8,8 km/h (2 Bft) S-SW 213 0 min 0,000 mm 0,8 UV-I 269 W/m 2,0 C 4,4 C 12,9 km/h (3 Bft) 95,65 %
19.02.2016 13:06 6,3 C 74 % 1018,6 hPa 0,0 l/m 7,9 km/h (2 Bft) SW 233 1 min 0,000 mm 0,8 UV-I 275 W/m 2,0 C 5,0 C 12,9 km/h (3 Bft) 100,00 %
19.02.2016 13:07 6,3 C 74 % 1018,6 hPa 0,0 l/m 7,7 km/h (2 Bft) S-SW 205 1 min 0,000 mm 0,8 UV-I 282 W/m 2,0 C 5,2 C 11,3 km/h (2 Bft) 100,00 %
19.02.2016 13:08 6,4 C 73 % 1018,5 hPa 0,0 l/m 9,5 km/h (2 Bft) W-SW 240 1 min 0,000 mm 0,8 UV-I 299 W/m 1,9 C 4,0 C 14,5 km/h (3 Bft) 100,00 %
19.02.2016 13:09 6,4 C 73 % 1018,6 hPa 0,0 l/m 8,4 km/h (2 Bft) W-SW 240 1 min 0,000 mm 0,8 UV-I 297 W/m 1,9 C 4,8 C 12,9 km/h (3 Bft) 95,65 %
19.02.2016 13:10 6,4 C 73 % 1018,5 hPa 0,0 l/m 8,7 km/h (2 Bft) SW 222 1 min 0,000 mm 0,8 UV-I 291 W/m 1,9 C 4,5 C 12,9 km/h (3 Bft) 100,00 %
19.02.2016 13:11 6,4 C 72 % 1018,5 hPa 0,0 l/m 10,8 km/h (2 Bft) SW 232 1 min 0,000 mm 0,7 UV-I 278 W/m 1,7 C 3,1 C 14,5 km/h (3 Bft) 96,15 %
19.02.2016 13:12 6,4 C 72 % 1018,6 hPa 0,0 l/m 9,8 km/h (2 Bft) S-SW 213 0 min 0,000 mm 0,7 UV-I 257 W/m 1,7 C 3,8 C 12,9 km/h (3 Bft) 100,00 %
19.02.2016 13:13 6,4 C 72 % 1018,5 hPa 0,0 l/m 9,8 km/h (2 Bft) W 269 0 min 0,000 mm 0,7 UV-I 245 W/m 1,7 C 3,8 C 12,9 km/h (3 Bft) 100,00 %
19.02.2016 13:14 6,4 C 73 % 1018,5 hPa 0,0 l/m 8,3 km/h (2 Bft) SW 236 0 min 0,000 mm 0,7 UV-I 236 W/m 1,9 C 4,8 C 12,9 km/h (3 Bft) 100,00 %
19.02.2016 13:15 6,4 C 72 % 1018,5 hPa 0,0 l/m 8,8 km/h (2 Bft) SW 234 0 min 0,000 mm 0,7 UV-I 222 W/m 1,7 C 4,5 C 12,9 km/h (3 Bft) 100,00 %
19.02.2016 13:16 6,4 C 73 % 1018,5 hPa 0,0 l/m 8,4 km/h (2 Bft) W-SW 249 0 min 0,000 mm 0,6 UV-I 205 W/m 1,9 C 4,8 C 14,5 km/h (3 Bft) 100,00 %
19.02.2016 13:17 6,4 C 73 % 1018,5 hPa 0,0 l/m 8,3 km/h (2 Bft) W-SW 250 0 min 0,000 mm 0,6 UV-I 191 W/m 1,9 C 4,8 C 11,3 km/h (2 Bft) 100,00 %
19.02.2016 13:18 6,4 C 72 % 1018,5 hPa 0,0 l/m 7,7 km/h (2 Bft) W-SW 250 0 min 0,000 mm 0,5 UV-I 173 W/m 1,7 C 5,3 C 11,3 km/h (2 Bft) 92,31 %
19.02.2016 13:19 6,4 C 73 % 1018,5 hPa 0,0 l/m 5,6 km/h (1 Bft) S 187 0 min 0,000 mm 0,5 UV-I 156 W/m 1,9 C 6,4 C 11,3 km/h (2 Bft) 100,00 %
19.02.2016 13:20 6,4 C 72 % 1018,5 hPa 0,0 l/m 9,5 km/h (2 Bft) SW 215 0 min 0,000 mm 0,0 UV-I 142 W/m 1,7 C 4,0 C 14,5 km/h (3 Bft) 100,00 %
19.02.2016 13:21 6,3 C 72 % 1018,5 hPa 0,0 l/m 8,3 km/h (2 Bft) S-SW 208 0 min 0,000 mm 0,0 UV-I 130 W/m 1,6 C 4,7 C 14,5 km/h (3 Bft) 100,00 %
19.02.2016 13:22 6,3 C 72 % 1018,5 hPa 0,0 l/m 5,6 km/h (1 Bft) S-SW 197 0 min 0,000 mm 0,0 UV-I 130 W/m 1,6 C 6,3 C 8,0 km/h (2 Bft) 100,00 %
19.02.2016 13:23 6,3 C 72 % 1018,4 hPa 0,0 l/m 7,7 km/h (2 Bft) S 190 0 min 0,000 mm 0,0 UV-I 140 W/m 1,6 C 5,2 C 11,3 km/h (2 Bft) 100,00 %
19.02.2016 13:24 6,2 C 72 % 1018,4 hPa 0,0 l/m 7,8 km/h (2 Bft) SW 231 0 min 0,000 mm 0,4 UV-I 156 W/m 1,5 C 5,0 C 12,9 km/h (3 Bft) 100,00 %
19.02.2016 13:25 6,2 C 73 % 1018,4 hPa 0,0 l/m 8,1 km/h (2 Bft) W-SW 249 0 min 0,000 mm 0,5 UV-I 157 W/m 1,7 C 4,8 C 14,5 km/h (3 Bft) 100,00 %
19.02.2016 13:26 6,3 C 73 % 1018,4 hPa 0,0 l/m 7,5 km/h (2 Bft) SW 234 0 min 0,000 mm 0,5 UV-I 146 W/m 1,8 C 5,4 C 11,3 km/h (2 Bft) 100,00 %
19.02.2016 13:27 6,2 C 72 % 1018,4 hPa 0,0 l/m 8,2 km/h (2 Bft) SW 233 0 min 0,000 mm 0,3 UV-I 129 W/m 1,5 C 4,7 C 11,3 km/h (2 Bft) 100,00 %
19.02.2016 13:28 6,2 C 73 % 1018,4 hPa 0,0 l/m 7,2 km/h (2 Bft) SW 223 0 min 0,000 mm 0,0 UV-I 117 W/m 1,7 C 5,5 C 9,7 km/h (2 Bft) 100,00 %
19.02.2016 13:29 6,3 C 73 % 1018,4 hPa 0,0 l/m 9,2 km/h (2 Bft) SW 232 0 min 0,000 mm 0,0 UV-I 112 W/m 1,8 C 4,1 C 12,9 km/h (3 Bft) 100,00 %
19.02.2016 13:30 6,3 C 73 % 1018,4 hPa 0,0 l/m 10,9 km/h (2 Bft) W-SW 246 0 min 0,000 mm 0,0 UV-I 105 W/m 1,8 C 2,9 C 14,5 km/h (3 Bft) 100,00 %
19.02.2016 13:31 6,3 C 73 % 1018,5 hPa 0,0 l/m 9,9 km/h (2 Bft) SW 217 0 min 0,000 mm 0,0 UV-I 102 W/m 1,8 C 3,6 C 12,9 km/h (3 Bft) 95,83 %
19.02.2016 13:32 6,3 C 73 % 1018,5 hPa 0,0 l/m 7,8 km/h (2 Bft) W-SW 248 0 min 0,000 mm 0,0 UV-I 99 W/m 1,8 C 5,1 C 11,3 km/h (2 Bft) 100,00 %
19.02.2016 13:33 6,3 C 73 % 1018,5 hPa 0,0 l/m 10,4 km/h (2 Bft) W 263 0 min 0,000 mm 0,0 UV-I 94 W/m 1,8 C 3,2 C 16,1 km/h (3 Bft) 100,00 %
19.02.2016 13:34 6,3 C 73 % 1018,5 hPa 0,0 l/m 11,1 km/h (2 Bft) SW 234 0 min 0,000 mm 0,0 UV-I 87 W/m 1,8 C 2,8 C 14,5 km/h (3 Bft) 95,45 %
19.02.2016 13:35 6,3 C 73 % 1018,5 hPa 0,0 l/m 7,2 km/h (2 Bft) W-SW 255 0 min 0,000 mm 0,0 UV-I 86 W/m 1,8 C 5,6 C 9,7 km/h (2 Bft) 100,00 %
19.02.2016 13:36 6,3 C 74 % 1018,5 hPa 0,0 l/m 6,1 km/h (2 Bft) W 269 0 min 0,000 mm 0,0 UV-I 90 W/m 2,0 C 6,3 C 8,0 km/h (2 Bft) 95,65 %
19.02.2016 13:37 6,3 C 73 % 1018,5 hPa 0,0 l/m 7,3 km/h (2 Bft) W 262 0 min 0,000 mm 0,0 UV-I 84 W/m 1,8 C 5,5 C 12,9 km/h (3 Bft) 95,83 %
19.02.2016 13:38 6,3 C 74 % 1018,5 hPa 0,0 l/m 6,8 km/h (2 Bft) W-SW 258 0 min 0,000 mm 0,0 UV-I 77 W/m 2,0 C 6,0 C 11,3 km/h (2 Bft) 100,00 %
19.02.2016 13:39 6,3 C 74 % 1018,5 hPa 0,0 l/m 6,5 km/h (2 Bft) W-SW 241 0 min 0,000 mm 0,0 UV-I 72 W/m 2,0 C 6,2 C 8,0 km/h (2 Bft) 91,67 %
19.02.2016 13:40 6,3 C 73 % 1018,5 hPa 0,0 l/m 7,6 km/h (2 Bft) W 262 0 min 0,000 mm 0,0 UV-I 71 W/m 1,8 C 5,3 C 11,3 km/h (2 Bft) 100,00 %
19.02.2016 13:41 6,3 C 73 % 1018,5 hPa 0,0 l/m 2,3 km/h (1 Bft) W 262 0 min 0,000 mm 0,0 UV-I 81 W/m 1,8 C 6,3 C 4,8 km/h (1 Bft) 91,30 %
19.02.2016 13:42 6,3 C 74 % 1018,5 hPa 0,0 l/m 3,9 km/h (1 Bft) W 275 0 min 0,000 mm 0,0 UV-I 99 W/m 2,0 C 6,3 C 4,8 km/h (1 Bft) 100,00 %
19.02.2016 13:43 6,3 C 74 % 1018,4 hPa 0,0 l/m 2,8 km/h (1 Bft) W 265 0 min 0,000 mm 0,0 UV-I 105 W/m 2,0 C 6,3 C 4,8 km/h (1 Bft) 95,65 %
19.02.2016 13:44 6,3 C 74 % 1018,4 hPa 0,0 l/m 4,0 km/h (1 Bft) W-SW 243 0 min 0,000 mm 0,0 UV-I 103 W/m 2,0 C 6,3 C 6,4 km/h (2 Bft) 95,83 %
19.02.2016 13:45 6,3 C 73 % 1018,4 hPa 0,0 l/m 10,3 km/h (2 Bft) W-SW 249 0 min 0,000 mm 0,0 UV-I 104 W/m 1,8 C 3,3 C 14,5 km/h (3 Bft) 88,46 %
19.02.2016 13:46 6,3 C 73 % 1018,4 hPa 0,0 l/m 11,6 km/h (2 Bft) W-SW 255 0 min 0,000 mm 0,0 UV-I 111 W/m 1,8 C 2,5 C 16,1 km/h (3 Bft) 100,00 %
19.02.2016 13:47 6,3 C 73 % 1018,4 hPa 0,0 l/m 7,0 km/h (2 Bft) W-SW 257 0 min 0,000 mm 0,0 UV-I 122 W/m 1,8 C 5,8 C 11,3 km/h (2 Bft) 91,30 %
19.02.2016 13:48 6,3 C 73 % 1018,4 hPa 0,0 l/m 5,4 km/h (1 Bft) W-SW 240 0 min 0,000 mm 0,0 UV-I 139 W/m 1,8 C 6,3 C 6,4 km/h (2 Bft) 95,83 %
19.02.2016 13:49 6,3 C 73 % 1018,5 hPa 0,0 l/m 6,1 km/h (2 Bft) W-SW 254 0 min 0,000 mm 0,1 UV-I 150 W/m 1,8 C 6,3 C 8,0 km/h (2 Bft) 100,00 %
19.02.2016 13:50 6,3 C 74 % 1018,4 hPa 0,0 l/m 5,7 km/h (1 Bft) W 273 0 min 0,000 mm 0,4 UV-I 150 W/m 2,0 C 6,3 C 8,0 km/h (2 Bft) 91,67 %
19.02.2016 13:51 6,3 C 74 % 1018,4 hPa 0,0 l/m 5,4 km/h (1 Bft) W-SW 258 0 min 0,000 mm 0,0 UV-I 138 W/m 2,0 C 6,3 C 11,3 km/h (2 Bft) 100,00 %
19.02.2016 13:52 6,4 C 73 % 1018,4 hPa 0,0 l/m 7,0 km/h (2 Bft) W 269 0 min 0,000 mm 0,0 UV-I 129 W/m 1,9 C 5,9 C 11,3 km/h (2 Bft) 95,83 %
19.02.2016 13:53 6,4 C 74 % 1018,4 hPa 0,0 l/m 9,9 km/h (2 Bft) W 274 0 min 0,000 mm 0,0 UV-I 128 W/m 2,1 C 3,7 C 12,9 km/h (3 Bft) 100,00 %
19.02.2016 13:54 6,4 C 73 % 1018,4 hPa 0,0 l/m 8,2 km/h (2 Bft) W-SW 254 0 min 0,000 mm 0,0 UV-I 121 W/m 1,9 C 4,9 C 14,5 km/h (3 Bft) 95,83 %
19.02.2016 13:55 6,4 C 73 % 1018,4 hPa 0,0 l/m 13,3 km/h (3 Bft) W-SW 257 0 min 0,000 mm 0,0 UV-I 113 W/m 1,9 C 1,6 C 17,7 km/h (3 Bft) 100,00 %
19.02.2016 13:56 6,4 C 73 % 1018,4 hPa 0,0 l/m 9,7 km/h (2 Bft) W-SW 250 0 min 0,000 mm 0,0 UV-I 111 W/m 1,9 C 3,8 C 12,9 km/h (3 Bft) 92,31 %
19.02.2016 13:57 6,4 C 72 % 1018,4 hPa 0,0 l/m 7,9 km/h (2 Bft) W 268 0 min 0,000 mm 0,0 UV-I 120 W/m 1,7 C 5,2 C 11,3 km/h (2 Bft) 95,65 %
19.02.2016 13:58 6,4 C 73 % 1018,4 hPa 0,0 l/m 10,1 km/h (2 Bft) W 262 0 min 0,000 mm 0,0 UV-I 128 W/m 1,9 C 3,6 C 12,9 km/h (3 Bft) 100,00 %
19.02.2016 13:59 6,4 C 73 % 1018,4 hPa 0,0 l/m 5,9 km/h (2 Bft) W 273 0 min 0,000 mm 0,4 UV-I 141 W/m 1,9 C 6,4 C 11,3 km/h (2 Bft) 95,83 %
19.02.2016 14:00 6,4 C 73 % 1018,4 hPa 0,0 l/m 4,5 km/h (1 Bft) W-SW 257 0 min 0,000 mm 0,5 UV-I 148 W/m 1,9 C 6,4 C 6,4 km/h (2 Bft) 100,00 %
19.02.2016 14:01 6,5 C 73 % 1018,3 hPa 0,0 l/m 4,4 km/h (1 Bft) SW 229 0 min 0,076 mm 0,5 UV-I 149 W/m 2,0 C 6,5 C 6,4 km/h (2 Bft) 93,33 %
19.02.2016 14:02 6,5 C 74 % 1018,4 hPa 0,0 l/m 7,8 km/h (2 Bft) W 265 0 min 0,000 mm 0,5 UV-I 148 W/m 2,2 C 5,3 C 14,5 km/h (3 Bft) 100,00 %
19.02.2016 14:03 6,6 C 73 % 1018,4 hPa 0,0 l/m 3,8 km/h (1 Bft) N-NW 338 0 min 0,000 mm 0,5 UV-I 145 W/m 2,1 C 6,6 C 8,0 km/h (2 Bft) 95,83 %
19.02.2016 14:04 6,6 C 73 % 1018,4 hPa 0,0 l/m 11,1 km/h (2 Bft) W-SW 255 0 min 0,000 mm 0,5 UV-I 136 W/m 2,1 C 3,1 C 22,5 km/h (4 Bft) 100,00 %
19.02.2016 14:05 6,6 C 72 % 1018,4 hPa 0,0 l/m 15,0 km/h (3 Bft) W 278 0 min 0,000 mm 0,1 UV-I 124 W/m 1,9 C 1,0 C 22,5 km/h (4 Bft) 95,83 %
19.02.2016 14:06 6,6 C 71 % 1018,4 hPa 0,0 l/m 9,4 km/h (2 Bft) W-SW 255 0 min 0,000 mm 0,0 UV-I 111 W/m 1,7 C 4,2 C 16,1 km/h (3 Bft) 95,65 %
19.02.2016 14:07 6,6 C 71 % 1018,4 hPa 0,0 l/m 14,1 km/h (3 Bft) W 277 0 min 0,000 mm 0,0 UV-I 101 W/m 1,7 C 1,5 C 17,7 km/h (3 Bft) 95,83 %
19.02.2016 14:08 6,6 C 72 % 1018,4 hPa 0,0 l/m 12,9 km/h (3 Bft) W-SW 258 0 min 0,000 mm 0,0 UV-I 94 W/m 1,9 C 2,1 C 19,3 km/h (3 Bft) 100,00 %
19.02.2016 14:09 6,6 C 71 % 1018,4 hPa 0,0 l/m 15,5 km/h (3 Bft) SW 231 0 min 0,000 mm 0,0 UV-I 89 W/m 1,7 C 0,8 C 25,7 km/h (4 Bft) 100,00 %
19.02.2016 14:10 6,6 C 70 % 1018,4 hPa 0,0 l/m 16,9 km/h (3 Bft) W 280 0 min 0,000 mm 0,0 UV-I 88 W/m 1,5 C 0,1 C 22,5 km/h (4 Bft) 100,00 %
19.02.2016 14:11 6,6 C 71 % 1018,5 hPa 0,0 l/m 15,6 km/h (3 Bft) W 265 0 min 0,000 mm 0,0 UV-I 90 W/m 1,7 C 0,7 C 24,1 km/h (4 Bft) 100,00 %
19.02.2016 14:12 6,6 C 71 % 1018,4 hPa 0,0 l/m 16,2 km/h (3 Bft) W 275 0 min 0,000 mm 0,0 UV-I 89 W/m 1,7 C 0,5 C 25,7 km/h (4 Bft) 96,30 %
19.02.2016 14:13 6,5 C 71 % 1018,4 hPa 0,0 l/m 15,7 km/h (3 Bft) W-NW 287 0 min 0,000 mm 0,0 UV-I 85 W/m 1,6 C 0,6 C 22,5 km/h (4 Bft) 95,65 %
19.02.2016 14:14 6,5 C 70 % 1018,5 hPa 0,0 l/m 14,7 km/h (3 Bft) W 261 0 min 0,000 mm 0,0 UV-I 84 W/m 1,4 C 1,0 C 25,7 km/h (4 Bft) 100,00 %
19.02.2016 14:15 6,5 C 70 % 1018,5 hPa 0,0 l/m 12,7 km/h (3 Bft) W-SW 249 0 min 0,000 mm 0,0 UV-I 84 W/m 1,4 C 2,1 C 19,3 km/h (3 Bft) 95,65 %
19.02.2016 14:16 6,4 C 71 % 1018,5 hPa 0,0 l/m 11,5 km/h (2 Bft) W 262 0 min 0,000 mm 0,0 UV-I 86 W/m 1,5 C 2,7 C 16,1 km/h (3 Bft) 100,00 %
19.02.2016 14:17 6,4 C 71 % 1018,5 hPa 0,0 l/m 15,2 km/h (3 Bft) W-SW 252 0 min 0,000 mm 0,0 UV-I 84 W/m 1,5 C 0,7 C 22,5 km/h (4 Bft) 96,15 %
19.02.2016 14:18 6,4 C 71 % 1018,5 hPa 0,0 l/m 10,7 km/h (2 Bft) W-SW 248 0 min 0,000 mm 0,0 UV-I 82 W/m 1,5 C 3,2 C 20,9 km/h (4 Bft) 100,00 %
19.02.2016 14:19 6,4 C 71 % 1018,5 hPa 0,0 l/m 15,3 km/h (3 Bft) W-SW 251 0 min 0,000 mm 0,0 UV-I 80 W/m 1,5 C 0,6 C 20,9 km/h (4 Bft) 100,00 %
19.02.2016 14:20 6,4 C 72 % 1018,5 hPa 0,0 l/m 10,1 km/h (2 Bft) W-NW 298 0 min 0,000 mm 0,0 UV-I 78 W/m 1,7 C 3,6 C 12,9 km/h (3 Bft) 100,00 %
19.02.2016 14:21 6,4 C 72 % 1018,5 hPa 0,0 l/m 11,2 km/h (2 Bft) W-SW 250 0 min 0,000 mm 0,0 UV-I 77 W/m 1,7 C 2,8 C 14,5 km/h (3 Bft) 100,00 %
19.02.2016 14:22 6,3 C 72 % 1018,5 hPa 0,0 l/m 11,2 km/h (2 Bft) W-SW 244 0 min 0,000 mm 0,0 UV-I 76 W/m 1,6 C 2,7 C 17,7 km/h (3 Bft) 95,83 %
19.02.2016 14:23 6,3 C 72 % 1018,5 hPa 0,0 l/m 11,5 km/h (2 Bft) W 281 0 min 0,000 mm 0,0 UV-I 74 W/m 1,6 C 2,6 C 17,7 km/h (3 Bft) 100,00 %
19.02.2016 14:24 6,3 C 72 % 1018,5 hPa 0,0 l/m 10,7 km/h (2 Bft) W-SW 258 0 min 0,000 mm 0,0 UV-I 71 W/m 1,6 C 3,0 C 16,1 km/h (3 Bft) 100,00 %
19.02.2016 14:25 6,3 C 72 % 1018,5 hPa 0,0 l/m 8,9 km/h (2 Bft) W 262 0 min 0,000 mm 0,0 UV-I 68 W/m 1,6 C 4,3 C 12,9 km/h (3 Bft) 100,00 %
19.02.2016 14:26 6,3 C 73 % 1018,5 hPa 0,0 l/m 8,3 km/h (2 Bft) W 268 0 min 0,000 mm 0,0 UV-I 65 W/m 1,8 C 4,7 C 17,7 km/h (3 Bft) 92,59 %
19.02.2016 14:27 6,3 C 73 % 1018,5 hPa 0,0 l/m 12,0 km/h (2 Bft) W-SW 248 0 min 0,000 mm 0,0 UV-I 61 W/m 1,8 C 2,3 C 22,5 km/h (4 Bft) 100,00 %
19.02.2016 14:28 6,2 C 72 % 1018,5 hPa 0,0 l/m 14,9 km/h (3 Bft) W 265 0 min 0,000 mm 0,0 UV-I 56 W/m 1,5 C 0,6 C 22,5 km/h (4 Bft) 100,00 %
19.02.2016 14:29 6,2 C 73 % 1018,5 hPa 0,0 l/m 12,9 km/h (3 Bft) W-SW 250 0 min 0,000 mm 0,0 UV-I 52 W/m 1,7 C 1,6 C 19,3 km/h (3 Bft) 100,00 %
19.02.2016 14:30 6,2 C 73 % 1018,5 hPa 0,0 l/m 13,9 km/h (3 Bft) W 269 0 min 0,000 mm 0,0 UV-I 48 W/m 1,7 C 1,1 C 17,7 km/h (3 Bft) 100,00 %
19.02.2016 14:31 6,2 C 73 % 1018,5 hPa 0,0 l/m 14,7 km/h (3 Bft) W-SW 257 0 min 0,000 mm 0,0 UV-I 45 W/m 1,7 C 0,7 C 20,9 km/h (4 Bft) 100,00 %
19.02.2016 14:32 6,2 C 73 % 1018,6 hPa 0,0 l/m 13,0 km/h (3 Bft) W 281 0 min 0,000 mm 0,0 UV-I 39 W/m 1,7 C 1,6 C 17,7 km/h (3 Bft) 100,00 %
19.02.2016 14:33 6,2 C 73 % 1018,5 hPa 0,0 l/m 13,7 km/h (3 Bft) W-SW 252 0 min 0,000 mm 0,0 UV-I 34 W/m 1,7 C 1,2 C 20,9 km/h (4 Bft) 100,00 %
19.02.2016 14:34 6,2 C 73 % 1018,6 hPa 0,0 l/m 9,9 km/h (2 Bft) W 263 0 min 0,000 mm 0,0 UV-I 32 W/m 1,7 C 3,5 C 12,9 km/h (3 Bft) 100,00 %
19.02.2016 14:35 6,1 C 74 % 1018,6 hPa 0,0 l/m 8,1 km/h (2 Bft) W-SW 257 0 min 0,000 mm 0,0 UV-I 30 W/m 1,8 C 4,7 C 12,9 km/h (3 Bft) 95,83 %
19.02.2016 14:36 6,1 C 74 % 1018,6 hPa 0,0 l/m 7,8 km/h (2 Bft) W 270 0 min 0,000 mm 0,0 UV-I 31 W/m 1,8 C 4,9 C 12,9 km/h (3 Bft) 100,00 %
19.02.2016 14:37 6,1 C 74 % 1018,6 hPa 0,0 l/m 6,8 km/h (2 Bft) W 269 0 min 0,000 mm 0,0 UV-I 31 W/m 1,8 C 5,8 C 11,3 km/h (2 Bft) 95,83 %
19.02.2016 14:38 6,1 C 74 % 1018,6 hPa 0,0 l/m 10,7 km/h (2 Bft) W-SW 250 0 min 0,000 mm 0,0 UV-I 30 W/m 1,8 C 2,8 C 16,1 km/h (3 Bft) 95,65 %
19.02.2016 14:39 6,1 C 74 % 1018,6 hPa 0,0 l/m 10,2 km/h (2 Bft) W 269 0 min 0,000 mm 0,0 UV-I 28 W/m 1,8 C 3,2 C 14,5 km/h (3 Bft) 100,00 %
19.02.2016 14:40 6,0 C 75 % 1018,6 hPa 0,0 l/m 12,5 km/h (3 Bft) W-SW 253 0 min 0,000 mm 0,0 UV-I 26 W/m 1,9 C 1,6 C 17,7 km/h (3 Bft) 100,00 %
19.02.2016 14:41 6,0 C 75 % 1018,6 hPa 0,0 l/m 11,4 km/h (2 Bft) W-SW 242 0 min 0,000 mm 0,0 UV-I 25 W/m 1,9 C 2,3 C 17,7 km/h (3 Bft) 100,00 %
19.02.2016 14:42 5,9 C 75 % 1018,7 hPa 0,0 l/m 11,4 km/h (2 Bft) W-SW 248 0 min 0,000 mm 0,0 UV-I 24 W/m 1,8 C 2,2 C 14,5 km/h (3 Bft) 95,65 %
19.02.2016 14:43 5,9 C 75 % 1018,7 hPa 0,0 l/m 11,7 km/h (2 Bft) W 278 0 min 0,000 mm 0,0 UV-I 22 W/m 1,8 C 2,0 C 16,1 km/h (3 Bft) 100,00 %
19.02.2016 14:44 5,9 C 75 % 1018,7 hPa 0,0 l/m 9,2 km/h (2 Bft) W 267 0 min 0,000 mm 0,0 UV-I 20 W/m 1,8 C 3,6 C 16,1 km/h (3 Bft) 95,65 %
19.02.2016 14:45 5,9 C 75 % 1018,7 hPa 0,0 l/m 19,3 km/h (3 Bft) W 265 0 min 0,000 mm 0,0 UV-I 18 W/m 1,8 C -1,7 C 24,1 km/h (4 Bft) 100,00 %
19.02.2016 14:46 5,9 C 75 % 1018,7 hPa 0,0 l/m 11,4 km/h (2 Bft) W 276 0 min 0,000 mm 0,0 UV-I 16 W/m 1,8 C 2,2 C 20,9 km/h (4 Bft) 100,00 %
19.02.2016 14:47 5,9 C 76 % 1018,7 hPa 0,0 l/m 16,2 km/h (3 Bft) W 277 0 min 0,000 mm 0,0 UV-I 14 W/m 2,0 C -0,4 C 25,7 km/h (4 Bft) 100,00 %
19.02.2016 14:48 5,8 C 76 % 1018,8 hPa 0,0 l/m 12,4 km/h (3 Bft) W-SW 245 0 min 0,000 mm 0,0 UV-I 13 W/m 1,9 C 1,4 C 19,3 km/h (3 Bft) 91,30 %
19.02.2016 14:49 5,8 C 76 % 1018,8 hPa 0,0 l/m 14,6 km/h (3 Bft) NW 307 0 min 0,000 mm 0,0 UV-I 13 W/m 1,9 C 0,2 C 24,1 km/h (4 Bft) 95,83 %
19.02.2016 14:50 5,8 C 76 % 1018,8 hPa 0,0 l/m 13,3 km/h (3 Bft) W-SW 252 0 min 0,000 mm 0,0 UV-I 14 W/m 1,9 C 0,9 C 20,9 km/h (4 Bft) 100,00 %
19.02.2016 14:51 5,8 C 76 % 1018,8 hPa 0,0 l/m 15,0 km/h (3 Bft) W-NW 290 0 min 0,000 mm 0,0 UV-I 16 W/m 1,9 C 0,0 C 22,5 km/h (4 Bft) 100,00 %
19.02.2016 14:52 5,7 C 77 % 1018,9 hPa 0,0 l/m 11,2 km/h (2 Bft) W 273 0 min 0,000 mm 0,0 UV-I 16 W/m 2,0 C 2,1 C 19,3 km/h (3 Bft) 100,00 %
19.02.2016 14:53 5,7 C 77 % 1018,9 hPa 0,0 l/m 9,4 km/h (2 Bft) W 273 0 min 0,000 mm 0,0 UV-I 16 W/m 2,0 C 3,3 C 16,1 km/h (3 Bft) 91,30 %
19.02.2016 14:54 5,7 C 78 % 1018,8 hPa 0,0 l/m 13,9 km/h (3 Bft) W 269 0 min 0,000 mm 0,0 UV-I 16 W/m 2,2 C 0,5 C 20,9 km/h (4 Bft) 100,00 %
19.02.2016 14:55 5,6 C 78 % 1018,9 hPa 0,0 l/m 12,9 km/h (3 Bft) W-SW 252 0 min 0,000 mm 0,0 UV-I 16 W/m 2,1 C 0,9 C 22,5 km/h (4 Bft) 96,15 %
19.02.2016 14:56 5,6 C 77 % 1018,8 hPa 0,0 l/m 13,4 km/h (3 Bft) W 267 0 min 0,000 mm 0,0 UV-I 16 W/m 1,9 C 0,6 C 20,9 km/h (4 Bft) 100,00 %
19.02.2016 14:57 5,6 C 77 % 1018,9 hPa 0,0 l/m 11,7 km/h (2 Bft) W 265 0 min 0,000 mm 0,0 UV-I 18 W/m 1,9 C 1,6 C 12,9 km/h (3 Bft) 100,00 %
19.02.2016 14:58 5,6 C 77 % 1018,9 hPa 0,0 l/m 11,9 km/h (2 Bft) W 267 0 min 0,000 mm 0,0 UV-I 19 W/m 1,9 C 1,5 C 17,7 km/h (3 Bft) 95,83 %
19.02.2016 14:59 5,6 C 77 % 1018,9 hPa 0,0 l/m 16,2 km/h (3 Bft) W-NW 295 0 min 0,000 mm 0,0 UV-I 19 W/m 1,9 C -0,8 C 25,7 km/h (4 Bft) 100,00 %
19.02.2016 15:00 5,6 C 78 % 1018,9 hPa 0,0 l/m 11,6 km/h (2 Bft) W-SW 242 0 min 0,000 mm 0,0 UV-I 18 W/m 2,1 C 1,7 C 16,1 km/h (3 Bft) 100,00 %
19.02.2016 15:01 5,5 C 77 % 1018,9 hPa 0,0 l/m 8,7 km/h (2 Bft) W-SW 256 0 min 0,051 mm 0,0 UV-I 18 W/m 1,8 C 3,6 C 12,9 km/h (3 Bft) 100,00 %
19.02.2016 15:02 5,5 C 77 % 1018,9 hPa 0,0 l/m 7,2 km/h (2 Bft) W-SW 258 0 min 0,000 mm 0,0 UV-I 17 W/m 1,8 C 4,8 C 12,9 km/h (3 Bft) 100,00 %
19.02.2016 15:03 5,5 C 78 % 1018,9 hPa 0,0 l/m 12,5 km/h (3 Bft) W-NW 290 0 min 0,000 mm 0,0 UV-I 16 W/m 2,0 C 1,0 C 20,9 km/h (4 Bft) 95,65 %
19.02.2016 15:04 5,4 C 78 % 1019,0 hPa 0,0 l/m 10,9 km/h (2 Bft) W-NW 291 0 min 0,000 mm 0,0 UV-I 16 W/m 1,9 C 1,9 C 17,7 km/h (3 Bft) 100,00 %
19.02.2016 15:05 5,4 C 77 % 1018,9 hPa 0,0 l/m 11,6 km/h (2 Bft) W 267 0 min 0,000 mm 0,0 UV-I 15 W/m 1,7 C 1,5 C 17,7 km/h (3 Bft) 100,00 %
19.02.2016 15:06 5,4 C 78 % 1018,9 hPa 0,0 l/m 16,6 km/h (3 Bft) W 278 0 min 0,000 mm 0,0 UV-I 14 W/m 1,9 C -1,2 C 24,1 km/h (4 Bft) 95,83 %
19.02.2016 15:07 5,4 C 78 % 1019,0 hPa 0,0 l/m 18,8 km/h (3 Bft) W 274 0 min 0,000 mm 0,0 UV-I 14 W/m 1,9 C -2,2 C 27,4 km/h (4 Bft) 100,00 %
19.02.2016 15:08 5,4 C 78 % 1019,0 hPa 0,0 l/m 20,4 km/h (4 Bft) W 271 0 min 0,000 mm 0,0 UV-I 14 W/m 1,9 C -2,8 C 27,4 km/h (4 Bft) 100,00 %
19.02.2016 15:09 5,4 C 78 % 1019,0 hPa 0,0 l/m 16,0 km/h (3 Bft) W-NW 294 0 min 0,000 mm 0,0 UV-I 14 W/m 1,9 C -0,9 C 22,5 km/h (4 Bft) 100,00 %
19.02.2016 15:10 5,4 C 78 % 1019,0 hPa 0,0 l/m 17,1 km/h (3 Bft) W-SW 255 0 min 0,000 mm 0,0 UV-I 12 W/m 1,9 C -1,4 C 24,1 km/h (4 Bft) 100,00 %
19.02.2016 15:11 5,4 C 78 % 1019,0 hPa 0,0 l/m 16,0 km/h (3 Bft) W 267 0 min 0,000 mm 0,0 UV-I 13 W/m 1,9 C -0,9 C 30,6 km/h (5 Bft) 100,00 %
19.02.2016 15:12 5,3 C 79 % 1019,1 hPa 0,0 l/m 20,7 km/h (4 Bft) W-SW 238 0 min 0,000 mm 0,0 UV-I 14 W/m 2,0 C -3,1 C 30,6 km/h (5 Bft) 100,00 %
19.02.2016 15:13 5,3 C 79 % 1019,1 hPa 0,0 l/m 21,3 km/h (4 Bft) W-SW 258 0 min 0,000 mm 0,0 UV-I 14 W/m 2,0 C -3,3 C 27,4 km/h (4 Bft) 100,00 %
19.02.2016 15:14 5,3 C 80 % 1019,1 hPa 0,0 l/m 29,1 km/h (5 Bft) W-SW 249 0 min 0,000 mm 0,0 UV-I 14 W/m 2,1 C -5,7 C 45,1 km/h (6 Bft) 100,00 %
19.02.2016 15:15 5,2 C 80 % 1019,2 hPa 0,0 l/m 21,3 km/h (4 Bft) W-SW 250 0 min 0,000 mm 0,0 UV-I 14 W/m 2,0 C -3,4 C 30,6 km/h (5 Bft) 100,00 %
19.02.2016 15:16 5,2 C 81 % 1019,2 hPa 0,0 l/m 21,1 km/h (4 Bft) W 262 0 min 0,000 mm 0,0 UV-I 14 W/m 2,2 C -3,3 C 29,0 km/h (5 Bft) 100,00 %
19.02.2016 15:17 5,1 C 81 % 1019,2 hPa 0,0 l/m 17,4 km/h (3 Bft) W 265 0 min 0,000 mm 0,0 UV-I 15 W/m 2,1 C -1,9 C 24,1 km/h (4 Bft) 95,83 %
19.02.2016 15:18 5,0 C 82 % 1019,3 hPa 0,0 l/m 21,3 km/h (4 Bft) W-SW 252 0 min 0,000 mm 0,0 UV-I 17 W/m 2,2 C -3,7 C 27,4 km/h (4 Bft) 100,00 %
19.02.2016 15:19 4,9 C 83 % 1019,3 hPa 0,0 l/m 15,0 km/h (3 Bft) W 271 0 min 0,000 mm 0,0 UV-I 20 W/m 2,3 C -1,0 C 20,9 km/h (4 Bft) 100,00 %
19.02.2016 15:20 4,8 C 84 % 1019,3 hPa 0,0 l/m 16,4 km/h (3 Bft) W 281 0 min 0,000 mm 0,0 UV-I 24 W/m 2,3 C -1,9 C 30,6 km/h (5 Bft) 95,65 %
19.02.2016 15:21 4,8 C 84 % 1019,3 hPa 0,0 l/m 20,5 km/h (4 Bft) W-SW 252 0 min 0,000 mm 0,0 UV-I 23 W/m 2,3 C -3,6 C 27,4 km/h (4 Bft) 95,83 %
19.02.2016 15:22 4,7 C 84 % 1019,4 hPa 0,0 l/m 16,0 km/h (3 Bft) W 267 0 min 0,000 mm 0,0 UV-I 23 W/m 2,2 C -1,8 C 20,9 km/h (4 Bft) 100,00 %
19.02.2016 15:23 4,7 C 84 % 1019,3 hPa 0,0 l/m 12,4 km/h (3 Bft) W-SW 248 0 min 0,000 mm 0,0 UV-I 21 W/m 2,2 C 0,2 C 20,9 km/h (4 Bft) 95,83 %
19.02.2016 15:24 4,6 C 85 % 1019,4 hPa 0,0 l/m 18,5 km/h (3 Bft) W 263 0 min 0,000 mm 0,0 UV-I 21 W/m 2,3 C -3,1 C 24,1 km/h (4 Bft) 100,00 %
19.02.2016 15:25 4,6 C 85 % 1019,4 hPa 0,0 l/m 16,2 km/h (3 Bft) W 281 0 min 0,000 mm 0,0 UV-I 21 W/m 2,3 C -2,0 C 17,7 km/h (3 Bft) 100,00 %
19.02.2016 15:26 4,5 C 85 % 1019,4 hPa 0,0 l/m 16,9 km/h (3 Bft) W-SW 244 0 min 0,000 mm 0,0 UV-I 23 W/m 2,2 C -2,5 C 25,7 km/h (4 Bft) 100,00 %
19.02.2016 15:27 4,4 C 85 % 1019,4 hPa 0,0 l/m 17,6 km/h (3 Bft) W-SW 252 0 min 0,000 mm 0,0 UV-I 23 W/m 2,1 C -2,9 C 33,8 km/h (5 Bft) 100,00 %
19.02.2016 15:28 4,4 C 85 % 1019,4 hPa 0,0 l/m 15,2 km/h (3 Bft) W-SW 246 0 min 0,000 mm 0,0 UV-I 25 W/m 2,1 C -1,8 C 29,0 km/h (5 Bft) 100,00 %
19.02.2016 15:29 4,4 C 86 % 1019,4 hPa 0,0 l/m 15,5 km/h (3 Bft) W 277 0 min 0,000 mm 0,0 UV-I 27 W/m 2,3 C -1,9 C 22,5 km/h (4 Bft) 100,00 %
19.02.2016 15:30 4,4 C 86 % 1019,4 hPa 0,0 l/m 15,0 km/h (3 Bft) W-SW 256 0 min 0,000 mm 0,0 UV-I 30 W/m 2,3 C -1,7 C 20,9 km/h (4 Bft) 100,00 %
19.02.2016 15:31 4,3 C 86 % 1019,4 hPa 0,0 l/m 15,4 km/h (3 Bft) W 264 0 min 0,000 mm 0,0 UV-I 33 W/m 2,2 C -2,0 C 24,1 km/h (4 Bft) 100,00 %
19.02.2016 15:32 4,3 C 87 % 1019,5 hPa 0,0 l/m 17,3 km/h (3 Bft) W 259 0 min 0,000 mm 0,0 UV-I 37 W/m 2,3 C -2,9 C 25,7 km/h (4 Bft) 100,00 %
19.02.2016 15:33 4,3 C 87 % 1019,5 hPa 0,0 l/m 15,9 km/h (3 Bft) W-SW 254 0 min 0,000 mm 0,0 UV-I 37 W/m 2,3 C -2,2 C 27,4 km/h (4 Bft) 100,00 %
19.02.2016 15:34 4,3 C 87 % 1019,5 hPa 0,0 l/m 16,4 km/h (3 Bft) W 263 0 min 0,000 mm 0,0 UV-I 35 W/m 2,3 C -2,5 C 25,7 km/h (4 Bft) 91,67 %
19.02.2016 15:35 4,2 C 87 % 1019,6 hPa 0,0 l/m 19,6 km/h (3 Bft) W-SW 244 0 min 0,000 mm 0,0 UV-I 32 W/m 2,2 C -4,0 C 27,4 km/h (4 Bft) 100,00 %
19.02.2016 15:36 4,2 C 88 % 1019,5 hPa 0,0 l/m 20,9 km/h (4 Bft) W 275 0 min 0,000 mm 0,0 UV-I 28 W/m 2,4 C -4,6 C 30,6 km/h (5 Bft) 95,83 %
19.02.2016 15:37 4,2 C 88 % 1019,5 hPa 0,0 l/m 16,6 km/h (3 Bft) W 271 0 min 0,000 mm 0,0 UV-I 25 W/m 2,4 C -2,7 C 25,7 km/h (4 Bft) 90,91 %
19.02.2016 15:38 4,2 C 88 % 1019,6 hPa 0,0 l/m 19,5 km/h (3 Bft) W-SW 248 0 min 0,000 mm 0,0 UV-I 26 W/m 2,4 C -4,0 C 25,7 km/h (4 Bft) 96,30 %
19.02.2016 15:39 4,2 C 88 % 1019,6 hPa 0,0 l/m 14,9 km/h (3 Bft) W-SW 244 0 min 0,000 mm 0,0 UV-I 28 W/m 2,4 C -1,8 C 20,9 km/h (4 Bft) 100,00 %
19.02.2016 15:40 4,1 C 88 % 1019,6 hPa 0,0 l/m 15,6 km/h (3 Bft) W 264 0 min 0,000 mm 0,0 UV-I 29 W/m 2,3 C -2,3 C 25,7 km/h (4 Bft) 95,83 %
19.02.2016 15:41 4,1 C 88 % 1019,6 hPa 0,0 l/m 17,4 km/h (3 Bft) W-SW 246 0 min 0,000 mm 0,0 UV-I 33 W/m 2,3 C -3,2 C 24,1 km/h (4 Bft) 95,65 %
19.02.2016 15:42 4,1 C 89 % 1019,6 hPa 0,0 l/m 14,8 km/h (3 Bft) W 273 0 min 0,000 mm 0,0 UV-I 38 W/m 2,5 C -1,9 C 19,3 km/h (3 Bft) 95,83 %
19.02.2016 15:43 4,1 C 89 % 1019,6 hPa 0,0 l/m 15,0 km/h (3 Bft) W-NW 284 0 min 0,000 mm 0,0 UV-I 43 W/m 2,5 C -2,0 C 17,7 km/h (3 Bft) 96,15 %
19.02.2016 15:44 4,1 C 89 % 1019,6 hPa 0,0 l/m 15,8 km/h (3 Bft) W 263 0 min 0,000 mm 0,0 UV-I 46 W/m 2,5 C -2,4 C 20,9 km/h (4 Bft) 100,00 %
19.02.2016 15:45 4,1 C 89 % 1019,6 hPa 0,0 l/m 13,5 km/h (3 Bft) W-NW 284 0 min 0,000 mm 0,0 UV-I 47 W/m 2,5 C -1,2 C 16,1 km/h (3 Bft) 95,65 %
19.02.2016 15:46 4,1 C 89 % 1019,7 hPa 0,0 l/m 14,5 km/h (3 Bft) W-SW 255 0 min 0,000 mm 0,0 UV-I 47 W/m 2,5 C -1,7 C 22,5 km/h (4 Bft) 95,83 %
19.02.2016 15:47 4,0 C 89 % 1019,6 hPa 0,0 l/m 17,1 km/h (3 Bft) W 275 0 min 0,000 mm 0,0 UV-I 44 W/m 2,4 C -3,2 C 20,9 km/h (4 Bft) 91,30 %
19.02.2016 15:48 4,0 C 89 % 1019,6 hPa 0,0 l/m 12,7 km/h (3 Bft) W-SW 242 0 min 0,000 mm 0,0 UV-I 40 W/m 2,4 C -0,8 C 16,1 km/h (3 Bft) 100,00 %
19.02.2016 15:49 4,0 C 89 % 1019,6 hPa 0,0 l/m 17,4 km/h (3 Bft) W 259 0 min 0,000 mm 0,0 UV-I 36 W/m 2,4 C -3,3 C 22,5 km/h (4 Bft) 91,30 %
19.02.2016 15:50 4,0 C 89 % 1019,7 hPa 0,0 l/m 14,5 km/h (3 Bft) W 270 0 min 0,000 mm 0,0 UV-I 38 W/m 2,4 C -1,9 C 22,5 km/h (4 Bft) 98,25 %
19.02.2016 15:55 4,1 C 88 % 1019,7 hPa 0,0 l/m 14,5 km/h (3 Bft) W-SW 247 0 min 0,000 mm 0,0 UV-I 33 W/m 2,3 C -1,7 C 24,1 km/h (4 Bft) 100,00 %
19.02.2016 16:00 4,1 C 86 % 1019,7 hPa 0,0 l/m 17,7 km/h (3 Bft) W-SW 247 0 min 0,025 mm 0,0 UV-I 33 W/m 2,0 C -3,3 C 27,4 km/h (4 Bft) 99,12 %
19.02.2016 16:05 4,1 C 85 % 1019,7 hPa 0,0 l/m 14,5 km/h (3 Bft) W-SW 247 0 min 0,000 mm 0,0 UV-I 40 W/m 1,8 C -1,7 C 22,5 km/h (4 Bft) 100,00 %
19.02.2016 16:08 4,1 C 84 % 1019,7 hPa 0,0 l/m 18,0 km/h (3 Bft) W-SW 257 0 min 0,000 mm 0,0 UV-I 41 W/m 1,6 C -3,5 C 30,6 km/h (5 Bft) 96,82 %
19.02.2016 16:09 4,1 C 84 % 1019,8 hPa 0,0 l/m 12,8 km/h (3 Bft) W 263 0 min 0,000 mm 0,0 UV-I 40 W/m 1,6 C -0,8 C 17,7 km/h (3 Bft) 100,00 %
19.02.2016 16:10 4,2 C 84 % 1019,8 hPa 0,0 l/m 16,0 km/h (3 Bft) W 269 0 min 0,000 mm 0,0 UV-I 40 W/m 1,7 C -2,4 C 19,3 km/h (3 Bft) 100,00 %
19.02.2016 16:11 4,2 C 84 % 1019,8 hPa 0,0 l/m 12,9 km/h (3 Bft) SW 234 0 min 0,000 mm 0,0 UV-I 41 W/m 1,7 C -0,7 C 20,9 km/h (4 Bft) 100,00 %
19.02.2016 16:12 4,1 C 84 % 1019,8 hPa 0,0 l/m 16,7 km/h (3 Bft) SW 234 0 min 0,000 mm 0,0 UV-I 42 W/m 1,6 C -2,9 C 22,5 km/h (4 Bft) 91,30 %
19.02.2016 16:13 4,2 C 84 % 1019,8 hPa 0,0 l/m 14,8 km/h (3 Bft) W 281 0 min 0,000 mm 0,0 UV-I 42 W/m 1,7 C -1,8 C 20,9 km/h (4 Bft) 100,00 %
19.02.2016 16:14 4,2 C 84 % 1019,9 hPa 0,0 l/m 12,9 km/h (3 Bft) W 260 0 min 0,000 mm 0,0 UV-I 49 W/m 1,7 C -0,7 C 16,1 km/h (3 Bft) 100,00 %
19.02.2016 16:15 4,2 C 84 % 1019,9 hPa 0,0 l/m 15,1 km/h (3 Bft) W-SW 243 0 min 0,000 mm 0,0 UV-I 56 W/m 1,7 C -1,9 C 19,3 km/h (3 Bft) 100,00 %
19.02.2016 16:16 4,2 C 84 % 1019,9 hPa 0,0 l/m 20,2 km/h (4 Bft) W 275 0 min 0,000 mm 0,0 UV-I 57 W/m 1,7 C -4,3 C 27,4 km/h (4 Bft) 100,00 %
19.02.2016 16:17 4,2 C 84 % 1019,9 hPa 0,0 l/m 17,4 km/h (3 Bft) W-SW 253 0 min 0,000 mm 0,0 UV-I 61 W/m 1,7 C -3,1 C 25,7 km/h (4 Bft) 100,00 %
19.02.2016 16:18 4,1 C 84 % 1019,8 hPa 0,0 l/m 15,8 km/h (3 Bft) W-SW 243 0 min 0,000 mm 0,0 UV-I 63 W/m 1,6 C -2,4 C 24,1 km/h (4 Bft) 100,00 %
19.02.2016 16:19 4,1 C 84 % 1019,9 hPa 0,0 l/m 19,5 km/h (3 Bft) W 263 0 min 0,000 mm 0,0 UV-I 65 W/m 1,6 C -4,1 C 29,0 km/h (5 Bft) 96,15 %
19.02.2016 16:20 4,1 C 84 % 1019,9 hPa 0,0 l/m 19,0 km/h (3 Bft) W 263 0 min 0,000 mm 0,0 UV-I 69 W/m 1,6 C -3,9 C 29,0 km/h (5 Bft) 100,00 %
19.02.2016 16:21 4,1 C 84 % 1020,0 hPa 0,0 l/m 14,1 km/h (3 Bft) W 259 0 min 0,000 mm 0,0 UV-I 69 W/m 1,6 C -1,5 C 20,9 km/h (4 Bft) 96,15 %
19.02.2016 16:22 4,1 C 84 % 1020,0 hPa 0,0 l/m 17,2 km/h (3 Bft) W-SW 253 0 min 0,000 mm 0,0 UV-I 75 W/m 1,6 C -3,1 C 27,4 km/h (4 Bft) 100,00 %
19.02.2016 16:23 4,1 C 84 % 1020,0 hPa 0,0 l/m 19,0 km/h (3 Bft) W-SW 251 0 min 0,000 mm 0,0 UV-I 82 W/m 1,6 C -3,9 C 29,0 km/h (5 Bft) 100,00 %
19.02.2016 16:24 4,1 C 84 % 1020,0 hPa 0,0 l/m 24,2 km/h (4 Bft) W-SW 250 0 min 0,000 mm 0,0 UV-I 88 W/m 1,6 C -5,9 C 33,8 km/h (5 Bft) 100,00 %
19.02.2016 16:25 4,1 C 83 % 1020,0 hPa 0,0 l/m 24,1 km/h (4 Bft) W 266 1 min 0,000 mm 0,0 UV-I 92 W/m 1,5 C -5,9 C 32,2 km/h (5 Bft) 96,15 %
19.02.2016 16:26 4,1 C 83 % 1020,0 hPa 0,0 l/m 18,3 km/h (3 Bft) W-SW 255 1 min 0,000 mm 0,0 UV-I 98 W/m 1,5 C -3,6 C 24,1 km/h (4 Bft) 100,00 %
19.02.2016 16:27 4,1 C 83 % 1020,0 hPa 0,0 l/m 17,1 km/h (3 Bft) W 264 1 min 0,000 mm 0,0 UV-I 101 W/m 1,5 C -3,1 C 22,5 km/h (4 Bft) 100,00 %
19.02.2016 16:28 4,1 C 83 % 1020,0 hPa 0,0 l/m 18,6 km/h (3 Bft) W-SW 252 1 min 0,000 mm 0,0 UV-I 104 W/m 1,5 C -3,7 C 24,1 km/h (4 Bft) 95,83 %
19.02.2016 16:29 4,1 C 83 % 1020,1 hPa 0,0 l/m 16,9 km/h (3 Bft) W-SW 245 1 min 0,000 mm 0,0 UV-I 108 W/m 1,5 C -3,0 C 20,9 km/h (4 Bft) 100,00 %
19.02.2016 16:30 4,1 C 83 % 1020,1 hPa 0,0 l/m 23,5 km/h (4 Bft) SW 234 1 min 0,000 mm 0,0 UV-I 110 W/m 1,5 C -5,7 C 35,4 km/h (5 Bft) 95,83 %
19.02.2016 16:31 4,1 C 83 % 1020,0 hPa 0,0 l/m 21,1 km/h (4 Bft) W-SW 250 1 min 0,000 mm 0,0 UV-I 114 W/m 1,5 C -4,8 C 37,0 km/h (5 Bft) 100,00 %
19.02.2016 16:32 4,1 C 83 % 1020,1 hPa 0,0 l/m 16,3 km/h (3 Bft) W-SW 258 1 min 0,000 mm 0,0 UV-I 116 W/m 1,5 C -2,7 C 24,1 km/h (4 Bft) 100,00 %
19.02.2016 16:33 4,1 C 83 % 1020,1 hPa 0,0 l/m 14,8 km/h (3 Bft) W 264 1 min 0,000 mm 0,0 UV-I 113 W/m 1,5 C -1,9 C 20,9 km/h (4 Bft) 100,00 %
19.02.2016 16:34 4,1 C 83 % 1020,1 hPa 0,0 l/m 15,7 km/h (3 Bft) NW 312 1 min 0,000 mm 0,0 UV-I 109 W/m 1,5 C -2,4 C 20,9 km/h (4 Bft) 100,00 %
19.02.2016 16:35 4,1 C 83 % 1020,1 hPa 0,0 l/m 11,7 km/h (2 Bft) W-SW 248 1 min 0,000 mm 0,0 UV-I 103 W/m 1,5 C -0,1 C 22,5 km/h (4 Bft) 100,00 %
19.02.2016 16:36 4,1 C 84 % 1020,3 hPa 0,0 l/m 14,3 km/h (3 Bft) W-SW 257 1 min 0,000 mm 0,0 UV-I 99 W/m 1,6 C -1,6 C 20,9 km/h (4 Bft) 100,00 %
19.02.2016 16:37 4,2 C 84 % 1020,3 hPa 0,0 l/m 14,2 km/h (3 Bft) W 259 1 min 0,000 mm 0,0 UV-I 97 W/m 1,7 C -1,5 C 16,1 km/h (3 Bft) 98,23 %
19.02.2016 16:38 4,1 C 83 % 1020,3 hPa 0,0 l/m 15,6 km/h (3 Bft) W 263 1 min 0,000 mm 0,0 UV-I 95 W/m 1,5 C -2,3 C 22,5 km/h (4 Bft) 100,00 %
19.02.2016 16:39 4,1 C 83 % 1020,3 hPa 0,0 l/m 20,5 km/h (4 Bft) W-SW 257 1 min 0,000 mm 0,0 UV-I 94 W/m 1,5 C -4,5 C 32,2 km/h (5 Bft) 91,67 %
19.02.2016 16:40 4,1 C 83 % 1020,3 hPa 0,0 l/m 24,0 km/h (4 Bft) W 260 1 min 0,000 mm 0,0 UV-I 92 W/m 1,5 C -5,8 C 32,2 km/h (5 Bft) 100,00 %
19.02.2016 16:41 4,1 C 83 % 1020,3 hPa 0,0 l/m 15,3 km/h (3 Bft) W-SW 244 1 min 0,000 mm 0,0 UV-I 90 W/m 1,5 C -2,2 C 25,7 km/h (4 Bft) 100,00 %
19.02.2016 16:42 4,1 C 83 % 1020,5 hPa 0,0 l/m 20,3 km/h (4 Bft) W-SW 248 1 min 0,000 mm 0,0 UV-I 87 W/m 1,5 C -4,5 C 25,7 km/h (4 Bft) 100,00 %
19.02.2016 16:43 4,1 C 83 % 1020,3 hPa 0,0 l/m 14,6 km/h (3 Bft) W-SW 257 1 min 0,000 mm 0,0 UV-I 84 W/m 1,5 C -1,8 C 22,5 km/h (4 Bft) 100,00 %
19.02.2016 16:44 4,1 C 83 % 1020,4 hPa 0,0 l/m 10,1 km/h (2 Bft) W-SW 255 1 min 0,000 mm 0,0 UV-I 83 W/m 1,5 C 1,0 C 12,9 km/h (3 Bft) 100,00 %
19.02.2016 16:45 4,1 C 83 % 1020,4 hPa 0,0 l/m 14,1 km/h (3 Bft) W 271 1 min 0,000 mm 0,0 UV-I 80 W/m 1,5 C -1,5 C 25,7 km/h (4 Bft) 100,00 %
19.02.2016 16:46 4,0 C 83 % 1020,4 hPa 0,0 l/m 22,4 km/h (4 Bft) W-NW 297 1 min 0,000 mm 0,0 UV-I 79 W/m 1,4 C -5,4 C 29,0 km/h (5 Bft) 100,00 %
19.02.2016 16:47 4,0 C 83 % 1020,3 hPa 0,0 l/m 17,0 km/h (3 Bft) SW 229 1 min 0,000 mm 0,0 UV-I 77 W/m 1,4 C -3,1 C 27,4 km/h (4 Bft) 100,00 %
19.02.2016 16:48 4,0 C 83 % 1020,4 hPa 0,0 l/m 14,1 km/h (3 Bft) W 260 1 min 0,000 mm 0,0 UV-I 74 W/m 1,4 C -1,6 C 20,9 km/h (4 Bft) 100,00 %
19.02.2016 16:49 3,9 C 83 % 1020,4 hPa 0,0 l/m 15,0 km/h (3 Bft) W 264 1 min 0,000 mm 0,0 UV-I 74 W/m 1,3 C -2,3 C 19,3 km/h (3 Bft) 100,00 %
19.02.2016 16:50 3,9 C 83 % 1020,3 hPa 0,0 l/m 19,1 km/h (3 Bft) NW 324 1 min 0,000 mm 0,0 UV-I 74 W/m 1,3 C -4,2 C 24,1 km/h (4 Bft) 100,00 %
19.02.2016 16:51 3,9 C 83 % 1020,4 hPa 0,0 l/m 12,9 km/h (3 Bft) W 260 1 min 0,000 mm 0,0 UV-I 71 W/m 1,3 C -1,1 C 17,7 km/h (3 Bft) 96,30 %
19.02.2016 16:52 3,9 C 83 % 1020,4 hPa 0,0 l/m 11,5 km/h (2 Bft) W-SW 254 1 min 0,000 mm 0,0 UV-I 69 W/m 1,3 C -0,2 C 16,1 km/h (3 Bft) 100,00 %
19.02.2016 16:53 3,9 C 83 % 1020,4 hPa 0,0 l/m 15,0 km/h (3 Bft) W 265 1 min 0,000 mm 0,0 UV-I 65 W/m 1,3 C -2,3 C 17,7 km/h (3 Bft) 100,00 %
19.02.2016 16:54 3,9 C 83 % 1020,4 hPa 0,0 l/m 12,1 km/h (2 Bft) W-SW 242 1 min 0,000 mm 0,0 UV-I 62 W/m 1,3 C -0,6 C 20,9 km/h (4 Bft) 100,00 %
19.02.2016 16:55 3,9 C 83 % 1020,5 hPa 0,0 l/m 11,6 km/h (2 Bft) W-SW 257 1 min 0,000 mm 0,0 UV-I 62 W/m 1,3 C -0,3 C 19,3 km/h (3 Bft) 100,00 %
19.02.2016 16:56 3,9 C 84 % 1020,4 hPa 0,0 l/m 17,7 km/h (3 Bft) W-SW 254 1 min 0,000 mm 0,0 UV-I 60 W/m 1,4 C -3,6 C 22,5 km/h (4 Bft) 100,00 %
19.02.2016 16:57 3,9 C 84 % 1020,4 hPa 0,0 l/m 13,9 km/h (3 Bft) W 271 1 min 0,000 mm 0,0 UV-I 56 W/m 1,4 C -1,7 C 20,9 km/h (4 Bft) 95,65 %
19.02.2016 16:58 3,9 C 84 % 1020,4 hPa 0,0 l/m 14,1 km/h (3 Bft) W 280 1 min 0,000 mm 0,0 UV-I 52 W/m 1,4 C -1,8 C 20,9 km/h (4 Bft) 100,00 %
19.02.2016 16:59 3,9 C 84 % 1020,5 hPa 0,0 l/m 9,7 km/h (2 Bft) W-SW 238 1 min 0,000 mm 0,0 UV-I 50 W/m 1,4 C 1,1 C 16,1 km/h (3 Bft) 100,00 %
19.02.2016 17:00 3,8 C 83 % 1020,5 hPa 0,0 l/m 20,4 km/h (4 Bft) W 273 1 min 0,000 mm 0,0 UV-I 47 W/m 1,2 C -4,9 C 25,7 km/h (4 Bft) 100,00 %
19.02.2016 17:01 3,9 C 83 % 1020,5 hPa 0,0 l/m 17,9 km/h (3 Bft) W-SW 247 1 min 0,051 mm 0,0 UV-I 40 W/m 1,3 C -3,7 C 25,7 km/h (4 Bft) 100,00 %
19.02.2016 17:02 3,8 C 83 % 1020,6 hPa 0,0 l/m 13,1 km/h (3 Bft) W-SW 254 0 min 0,000 mm 0,0 UV-I 36 W/m 1,2 C -1,3 C 16,1 km/h (3 Bft) 100,00 %
19.02.2016 17:03 3,8 C 83 % 1020,6 hPa 0,0 l/m 16,4 km/h (3 Bft) W 261 0 min 0,000 mm 0,0 UV-I 32 W/m 1,2 C -3,1 C 20,9 km/h (4 Bft) 100,00 %
19.02.2016 17:04 3,8 C 83 % 1020,7 hPa 0,0 l/m 13,0 km/h (3 Bft) W 266 0 min 0,000 mm 0,0 UV-I 29 W/m 1,2 C -1,2 C 17,7 km/h (3 Bft) 100,00 %
19.02.2016 17:05 3,8 C 84 % 1020,6 hPa 0,0 l/m 14,1 km/h (3 Bft) W 262 0 min 0,000 mm 0,0 UV-I 27 W/m 1,4 C -1,9 C 17,7 km/h (3 Bft) 100,00 %
19.02.2016 17:06 3,8 C 84 % 1020,7 hPa 0,0 l/m 10,7 km/h (2 Bft) W 271 0 min 0,000 mm 0,0 UV-I 25 W/m 1,4 C 0,2 C 16,1 km/h (3 Bft) 96,30 %
19.02.2016 17:07 3,8 C 84 % 1020,7 hPa 0,0 l/m 11,7 km/h (2 Bft) SW 236 0 min 0,000 mm 0,0 UV-I 23 W/m 1,4 C -0,4 C 17,7 km/h (3 Bft) 100,00 %
19.02.2016 17:08 3,8 C 84 % 1020,7 hPa 0,0 l/m 11,5 km/h (2 Bft) W-SW 258 0 min 0,000 mm 0,0 UV-I 21 W/m 1,4 C -0,3 C 16,1 km/h (3 Bft) 100,00 %
19.02.2016 17:09 3,8 C 84 % 1020,8 hPa 0,0 l/m 12,2 km/h (2 Bft) W 276 0 min 0,000 mm 0,0 UV-I 20 W/m 1,4 C -0,8 C 16,1 km/h (3 Bft) 95,65 %
19.02.2016 17:10 3,8 C 84 % 1020,7 hPa 0,0 l/m 15,0 km/h (3 Bft) W-NW 296 0 min 0,000 mm 0,0 UV-I 19 W/m 1,4 C -2,4 C 22,5 km/h (4 Bft) 95,83 %
19.02.2016 17:11 3,8 C 84 % 1020,7 hPa 0,0 l/m 12,4 km/h (3 Bft) W-SW 257 0 min 0,000 mm 0,0 UV-I 18 W/m 1,4 C -0,9 C 17,7 km/h (3 Bft) 100,00 %
19.02.2016 17:12 3,8 C 84 % 1020,7 hPa 0,0 l/m 11,1 km/h (2 Bft) W-SW 251 0 min 0,000 mm 0,0 UV-I 16 W/m 1,4 C -0,0 C 17,7 km/h (3 Bft) 100,00 %
19.02.2016 17:13 3,8 C 84 % 1020,8 hPa 0,0 l/m 10,8 km/h (2 Bft) W-SW 256 0 min 0,000 mm 0,0 UV-I 14 W/m 1,4 C 0,2 C 16,1 km/h (3 Bft) 100,00 %
19.02.2016 17:14 3,8 C 84 % 1020,8 hPa 0,0 l/m 11,0 km/h (2 Bft) W-SW 251 0 min 0,000 mm 0,0 UV-I 13 W/m 1,4 C 0,0 C 12,9 km/h (3 Bft) 100,00 %
19.02.2016 17:15 3,8 C 84 % 1020,8 hPa 0,0 l/m 12,0 km/h (2 Bft) W 269 0 min 0,000 mm 0,0 UV-I 12 W/m 1,4 C -0,6 C 16,1 km/h (3 Bft) 100,00 %
19.02.2016 17:16 3,8 C 84 % 1020,8 hPa 0,0 l/m 12,7 km/h (3 Bft) W 263 0 min 0,000 mm 0,0 UV-I 11 W/m 1,4 C -1,1 C 16,1 km/h (3 Bft) 100,00 %
19.02.2016 17:17 3,8 C 84 % 1020,7 hPa 0,0 l/m 11,0 km/h (2 Bft) W 259 0 min 0,000 mm 0,0 UV-I 11 W/m 1,4 C 0,0 C 17,7 km/h (3 Bft) 96,15 %
19.02.2016 17:18 3,7 C 84 % 1020,8 hPa 0,0 l/m 8,1 km/h (2 Bft) W-SW 240 0 min 0,000 mm 0,0 UV-I 11 W/m 1,3 C 2,2 C 11,3 km/h (2 Bft) 100,00 %
19.02.2016 17:19 3,7 C 84 % 1020,8 hPa 0,0 l/m 15,0 km/h (3 Bft) W 273 0 min 0,000 mm 0,0 UV-I 9 W/m 1,3 C -2,5 C 19,3 km/h (3 Bft) 100,00 %
19.02.2016 17:20 3,7 C 84 % 1020,8 hPa 0,0 l/m 11,1 km/h (2 Bft) W-SW 250 0 min 0,000 mm 0,0 UV-I 9 W/m 1,3 C -0,1 C 19,3 km/h (3 Bft) 100,00 %
19.02.2016 17:21 3,7 C 84 % 1020,8 hPa 0,0 l/m 14,8 km/h (3 Bft) W-SW 257 0 min 0,000 mm 0,0 UV-I 8 W/m 1,3 C -2,4 C 19,3 km/h (3 Bft) 100,00 %
19.02.2016 17:22 3,7 C 84 % 1020,8 hPa 0,0 l/m 12,5 km/h (3 Bft) W-SW 255 0 min 0,000 mm 0,0 UV-I 7 W/m 1,3 C -1,1 C 19,3 km/h (3 Bft) 100,00 %
19.02.2016 17:23 3,7 C 84 % 1020,8 hPa 0,0 l/m 11,4 km/h (2 Bft) W-NW 284 0 min 0,000 mm 0,0 UV-I 7 W/m 1,3 C -0,3 C 16,1 km/h (3 Bft) 100,00 %
19.02.2016 17:24 3,7 C 84 % 1020,8 hPa 0,0 l/m 11,8 km/h (2 Bft) W-SW 258 0 min 0,000 mm 0,0 UV-I 5 W/m 1,3 C -0,6 C 16,1 km/h (3 Bft) 100,00 %
19.02.2016 17:25 3,7 C 84 % 1020,8 hPa 0,0 l/m 10,2 km/h (2 Bft) W 262 0 min 0,000 mm 0,0 UV-I 5 W/m 1,3 C 0,5 C 12,9 km/h (3 Bft) 100,00 %
19.02.2016 17:26 3,7 C 84 % 1020,8 hPa 0,0 l/m 12,3 km/h (3 Bft) W-SW 245 0 min 0,000 mm 0,0 UV-I 5 W/m 1,3 C -0,9 C 16,1 km/h (3 Bft) 100,00 %
19.02.2016 17:27 3,7 C 84 % 1020,9 hPa 0,0 l/m 13,1 km/h (3 Bft) W-SW 254 0 min 0,000 mm 0,0 UV-I 5 W/m 1,3 C -1,4 C 16,1 km/h (3 Bft) 100,00 %
19.02.2016 17:28 3,7 C 84 % 1020,9 hPa 0,0 l/m 12,6 km/h (3 Bft) W-SW 253 0 min 0,000 mm 0,0 UV-I 1 W/m 1,3 C -1,1 C 16,1 km/h (3 Bft) 100,00 %
19.02.2016 17:29 3,7 C 84 % 1020,9 hPa 0,0 l/m 12,2 km/h (2 Bft) W-SW 258 0 min 0,000 mm 0,0 UV-I 0 W/m 1,3 C -0,9 C 16,1 km/h (3 Bft) 100,00 %
19.02.2016 17:30 3,7 C 84 % 1021,0 hPa 0,0 l/m 8,9 km/h (2 Bft) SW 232 0 min 0,000 mm 0,0 UV-I 0 W/m 1,3 C 1,5 C 14,5 km/h (3 Bft) 92,31 %
19.02.2016 17:31 3,7 C 85 % 1020,9 hPa 0,0 l/m 9,4 km/h (2 Bft) W 259 0 min 0,000 mm 0,0 UV-I 0 W/m 1,4 C 1,1 C 14,5 km/h (3 Bft) 100,00 %
19.02.2016 17:32 3,7 C 85 % 1020,9 hPa 0,0 l/m 9,7 km/h (2 Bft) SW 236 0 min 0,000 mm 0,0 UV-I 0 W/m 1,4 C 0,9 C 12,9 km/h (3 Bft) 100,00 %
19.02.2016 17:33 3,7 C 85 % 1020,9 hPa 0,0 l/m 11,1 km/h (2 Bft) W-SW 238 0 min 0,000 mm 0,0 UV-I 0 W/m 1,4 C -0,1 C 14,5 km/h (3 Bft) 100,00 %
19.02.2016 17:34 3,7 C 85 % 1021,0 hPa 0,0 l/m 9,9 km/h (2 Bft) W-SW 257 0 min 0,000 mm 0,0 UV-I 0 W/m 1,4 C 0,7 C 14,5 km/h (3 Bft) 100,00 %
19.02.2016 17:35 3,7 C 85 % 1021,0 hPa 0,0 l/m 12,2 km/h (2 Bft) W 269 0 min 0,000 mm 0,0 UV-I 0 W/m 1,4 C -0,9 C 17,7 km/h (3 Bft) 100,00 %
19.02.2016 17:36 3,7 C 85 % 1021,0 hPa 0,0 l/m 7,5 km/h (2 Bft) W 269 0 min 0,000 mm 0,0 UV-I 0 W/m 1,4 C 2,7 C 14,5 km/h (3 Bft) 96,15 %
19.02.2016 17:37 3,7 C 85 % 1021,0 hPa 0,0 l/m 11,2 km/h (2 Bft) W 261 0 min 0,000 mm 0,0 UV-I 0 W/m 1,4 C -0,2 C 14,5 km/h (3 Bft) 100,00 %
19.02.2016 17:38 3,7 C 85 % 1021,0 hPa 0,0 l/m 10,7 km/h (2 Bft) W-SW 241 0 min 0,000 mm 0,0 UV-I 0 W/m 1,4 C 0,1 C 16,1 km/h (3 Bft) 98,31 %
19.02.2016 17:39 3,7 C 85 % 1021,0 hPa 0,0 l/m 9,5 km/h (2 Bft) W-SW 256 0 min 0,000 mm 0,0 UV-I 0 W/m 1,4 C 1,0 C 12,9 km/h (3 Bft) 97,37 %
19.02.2016 17:40 3,7 C 85 % 1021,0 hPa 0,0 l/m 11,2 km/h (2 Bft) W-SW 257 0 min 0,000 mm 0,0 UV-I 0 W/m 1,4 C -0,2 C 16,1 km/h (3 Bft) 95,83 %
19.02.2016 17:41 3,7 C 85 % 1021,0 hPa 0,0 l/m 10,2 km/h (2 Bft) SW 217 0 min 0,000 mm 0,0 UV-I 0 W/m 1,4 C 0,5 C 12,9 km/h (3 Bft) 100,00 %
19.02.2016 17:42 3,7 C 85 % 1021,0 hPa 0,0 l/m 8,2 km/h (2 Bft) W-SW 252 0 min 0,000 mm 0,0 UV-I 0 W/m 1,4 C 2,1 C 14,5 km/h (3 Bft) 91,67 %
19.02.2016 17:43 3,7 C 85 % 1021,0 hPa 0,0 l/m 11,5 km/h (2 Bft) SW 235 0 min 0,000 mm 0,0 UV-I 0 W/m 1,4 C -0,4 C 14,5 km/h (3 Bft) 96,55 %
19.02.2016 17:44 3,7 C 85 % 1021,0 hPa 0,0 l/m 8,5 km/h (2 Bft) W-SW 253 0 min 0,000 mm 0,0 UV-I 0 W/m 1,4 C 1,8 C 11,3 km/h (2 Bft) 96,30 %
19.02.2016 17:45 3,7 C 85 % 1021,0 hPa 0,0 l/m 9,6 km/h (2 Bft) W-SW 248 0 min 0,000 mm 0,0 UV-I 0 W/m 1,4 C 0,9 C 14,5 km/h (3 Bft) 95,65 %
19.02.2016 17:46 3,7 C 85 % 1021,0 hPa 0,0 l/m 6,4 km/h (2 Bft) W 264 0 min 0,000 mm 0,0 UV-I 0 W/m 1,4 C 3,7 C 8,0 km/h (2 Bft) 100,00 %
19.02.2016 17:47 3,7 C 85 % 1021,0 hPa 0,0 l/m 8,7 km/h (2 Bft) W 276 0 min 0,000 mm 0,0 UV-I 0 W/m 1,4 C 1,6 C 14,5 km/h (3 Bft) 96,15 %
19.02.2016 17:48 3,7 C 85 % 1021,1 hPa 0,0 l/m 10,8 km/h (2 Bft) W-SW 246 0 min 0,000 mm 0,0 UV-I 0 W/m 1,4 C 0,1 C 14,5 km/h (3 Bft) 100,00 %
19.02.2016 17:49 3,7 C 85 % 1021,1 hPa 0,0 l/m 11,8 km/h (2 Bft) W-SW 250 0 min 0,000 mm 0,0 UV-I 0 W/m 1,4 C -0,6 C 16,1 km/h (3 Bft) 96,15 %
19.02.2016 17:50 3,7 C 85 % 1021,1 hPa 0,0 l/m 10,5 km/h (2 Bft) W-SW 252 0 min 0,000 mm 0,0 UV-I 0 W/m 1,4 C 0,3 C 14,5 km/h (3 Bft) 100,00 %
19.02.2016 17:51 3,7 C 85 % 1021,1 hPa 0,0 l/m 8,0 km/h (2 Bft) W 263 0 min 0,000 mm 0,0 UV-I 0 W/m 1,4 C 2,2 C 12,9 km/h (3 Bft) 92,31 %
19.02.2016 17:52 3,7 C 85 % 1021,1 hPa 0,0 l/m 8,4 km/h (2 Bft) W 265 0 min 0,000 mm 0,0 UV-I 0 W/m 1,4 C 1,9 C 12,9 km/h (3 Bft) 96,30 %
19.02.2016 17:53 3,7 C 85 % 1021,2 hPa 0,0 l/m 9,3 km/h (2 Bft) W-SW 250 0 min 0,000 mm 0,0 UV-I 0 W/m 1,4 C 1,2 C 16,1 km/h (3 Bft) 100,00 %
19.02.2016 17:54 3,7 C 85 % 1021,2 hPa 0,0 l/m 11,8 km/h (2 Bft) W 277 0 min 0,000 mm 0,0 UV-I 0 W/m 1,4 C -0,6 C 14,5 km/h (3 Bft) 93,33 %
19.02.2016 17:55 3,7 C 85 % 1021,2 hPa 0,0 l/m 10,8 km/h (2 Bft) W 261 0 min 0,000 mm 0,0 UV-I 0 W/m 1,4 C 0,1 C 16,1 km/h (3 Bft) 100,00 %
19.02.2016 17:56 3,7 C 85 % 1021,2 hPa 0,0 l/m 9,7 km/h (2 Bft) W 261 0 min 0,000 mm 0,0 UV-I 0 W/m 1,4 C 0,9 C 12,9 km/h (3 Bft) 96,15 %
19.02.2016 17:57 3,7 C 84 % 1021,2 hPa 0,0 l/m 7,2 km/h (2 Bft) W-SW 256 0 min 0,000 mm 0,0 UV-I 0 W/m 1,3 C 3,0 C 9,7 km/h (2 Bft) 100,00 %
19.02.2016 17:58 3,7 C 84 % 1021,2 hPa 0,0 l/m 8,0 km/h (2 Bft) W 259 0 min 0,000 mm 0,0 UV-I 0 W/m 1,3 C 2,2 C 11,3 km/h (2 Bft) 91,67 %
19.02.2016 17:59 3,7 C 84 % 1021,2 hPa 0,0 l/m 11,5 km/h (2 Bft) SW 236 0 min 0,000 mm 0,0 UV-I 0 W/m 1,3 C -0,4 C 16,1 km/h (3 Bft) 100,00 %
19.02.2016 18:00 3,7 C 84 % 1021,2 hPa 0,0 l/m 9,8 km/h (2 Bft) W 270 0 min 0,000 mm 0,0 UV-I 0 W/m 1,3 C 0,8 C 17,7 km/h (3 Bft) 96,15 %
19.02.2016 18:01 3,7 C 84 % 1021,3 hPa 0,0 l/m 6,7 km/h (2 Bft) SW 236 0 min 0,025 mm 0,0 UV-I 0 W/m 1,3 C 3,4 C 11,3 km/h (2 Bft) 93,94 %
19.02.2016 18:02 3,7 C 84 % 1021,3 hPa 0,0 l/m 7,5 km/h (2 Bft) SW 235 0 min 0,000 mm 0,0 UV-I 0 W/m 1,3 C 2,7 C 11,3 km/h (2 Bft) 100,00 %
19.02.2016 18:03 3,7 C 84 % 1021,3 hPa 0,0 l/m 6,7 km/h (2 Bft) W-SW 252 0 min 0,000 mm 0,0 UV-I 0 W/m 1,3 C 3,4 C 12,9 km/h (3 Bft) 96,30 %
19.02.2016 18:04 3,7 C 84 % 1021,3 hPa 0,0 l/m 7,0 km/h (2 Bft) W-SW 248 0 min 0,000 mm 0,0 UV-I 0 W/m 1,3 C 3,1 C 11,3 km/h (2 Bft) 96,55 %
19.02.2016 18:05 3,7 C 84 % 1021,4 hPa 0,0 l/m 5,6 km/h (1 Bft) W-SW 241 0 min 0,000 mm 0,0 UV-I 0 W/m 1,3 C 3,7 C 6,4 km/h (2 Bft) 96,30 %
19.02.2016 18:06 3,7 C 84 % 1021,3 hPa 0,0 l/m 9,2 km/h (2 Bft) W-NW 288 0 min 0,000 mm 0,0 UV-I 0 W/m 1,3 C 1,2 C 11,3 km/h (2 Bft) 94,12 %
19.02.2016 18:07 3,7 C 84 % 1021,3 hPa 0,0 l/m 7,7 km/h (2 Bft) SW 228 0 min 0,000 mm 0,0 UV-I 0 W/m 1,3 C 2,5 C 9,7 km/h (2 Bft) 96,30 %
19.02.2016 18:08 3,7 C 84 % 1021,4 hPa 0,0 l/m 10,4 km/h (2 Bft) W 263 0 min 0,000 mm 0,0 UV-I 0 W/m 1,3 C 0,3 C 14,5 km/h (3 Bft) 100,00 %
19.02.2016 18:09 3,7 C 84 % 1021,4 hPa 0,0 l/m 11,1 km/h (2 Bft) W-SW 252 0 min 0,000 mm 0,0 UV-I 0 W/m 1,3 C -0,1 C 14,5 km/h (3 Bft) 96,67 %
19.02.2016 18:10 3,7 C 84 % 1021,4 hPa 0,0 l/m 8,4 km/h (2 Bft) SW 232 0 min 0,000 mm 0,0 UV-I 0 W/m 1,3 C 1,9 C 12,9 km/h (3 Bft) 100,00 %
19.02.2016 18:11 3,7 C 84 % 1021,5 hPa 0,0 l/m 7,4 km/h (2 Bft) W-SW 252 0 min 0,000 mm 0,0 UV-I 0 W/m 1,3 C 2,8 C 9,7 km/h (2 Bft) 100,00 %
19.02.2016 18:12 3,7 C 84 % 1021,4 hPa 0,0 l/m 10,1 km/h (2 Bft) W-NW 282 0 min 0,000 mm 0,0 UV-I 0 W/m 1,3 C 0,6 C 14,5 km/h (3 Bft) 100,00 %
19.02.2016 18:13 3,7 C 84 % 1021,4 hPa 0,0 l/m 9,8 km/h (2 Bft) W-SW 251 0 min 0,000 mm 0,0 UV-I 0 W/m 1,3 C 0,8 C 12,9 km/h (3 Bft) 100,00 %
19.02.2016 18:14 3,7 C 84 % 1021,4 hPa 0,0 l/m 9,3 km/h (2 Bft) W-SW 249 0 min 0,000 mm 0,0 UV-I 0 W/m 1,3 C 1,2 C 11,3 km/h (2 Bft) 100,00 %
19.02.2016 18:15 3,7 C 85 % 1021,5 hPa 0,0 l/m 10,8 km/h (2 Bft) W-SW 246 0 min 0,000 mm 0,0 UV-I 0 W/m 1,4 C 0,1 C 16,1 km/h (3 Bft) 100,00 %
19.02.2016 18:16 3,7 C 84 % 1021,5 hPa 0,0 l/m 10,7 km/h (2 Bft) W 268 0 min 0,000 mm 0,0 UV-I 0 W/m 1,3 C 0,1 C 12,9 km/h (3 Bft) 100,00 %
19.02.2016 18:17 3,7 C 84 % 1021,5 hPa 0,0 l/m 8,5 km/h (2 Bft) W-SW 238 0 min 0,000 mm 0,0 UV-I 0 W/m 1,3 C 1,8 C 12,9 km/h (3 Bft) 93,10 %
19.02.2016 18:18 3,7 C 84 % 1021,5 hPa 0,0 l/m 6,4 km/h (2 Bft) W-SW 256 0 min 0,000 mm 0,0 UV-I 0 W/m 1,3 C 3,7 C 8,0 km/h (2 Bft) 100,00 %
19.02.2016 18:19 3,7 C 84 % 1021,5 hPa 0,0 l/m 9,0 km/h (2 Bft) SW 230 0 min 0,000 mm 0,0 UV-I 0 W/m 1,3 C 1,4 C 11,3 km/h (2 Bft) 100,00 %
19.02.2016 18:20 3,7 C 85 % 1021,5 hPa 0,0 l/m 8,2 km/h (2 Bft) W-SW 255 0 min 0,000 mm 0,0 UV-I 0 W/m 1,4 C 2,1 C 12,9 km/h (3 Bft) 95,83 %
19.02.2016 18:21 3,7 C 85 % 1021,5 hPa 0,0 l/m 9,1 km/h (2 Bft) W 259 0 min 0,000 mm 0,0 UV-I 0 W/m 1,4 C 1,3 C 12,9 km/h (3 Bft) 100,00 %
19.02.2016 18:22 3,7 C 85 % 1021,5 hPa 0,0 l/m 7,2 km/h (2 Bft) W-SW 252 0 min 0,000 mm 0,0 UV-I 0 W/m 1,4 C 3,0 C 11,3 km/h (2 Bft) 100,00 %
19.02.2016 18:23 3,7 C 85 % 1021,5 hPa 0,0 l/m 7,2 km/h (2 Bft) W-SW 250 0 min 0,000 mm 0,0 UV-I 0 W/m 1,4 C 3,0 C 9,7 km/h (2 Bft) 100,00 %
19.02.2016 18:24 3,7 C 85 % 1021,5 hPa 0,0 l/m 6,0 km/h (2 Bft) W 263 0 min 0,000 mm 0,0 UV-I 0 W/m 1,4 C 3,7 C 9,7 km/h (2 Bft) 100,00 %
19.02.2016 18:25 3,7 C 85 % 1021,6 hPa 0,0 l/m 5,0 km/h (1 Bft) W-SW 249 0 min 0,000 mm 0,0 UV-I 0 W/m 1,4 C 3,7 C 9,7 km/h (2 Bft) 95,65 %
19.02.2016 18:26 3,7 C 85 % 1021,6 hPa 0,0 l/m 7,1 km/h (2 Bft) W-SW 237 0 min 0,000 mm 0,0 UV-I 0 W/m 1,4 C 3,1 C 11,3 km/h (2 Bft) 100,00 %
19.02.2016 18:27 3,7 C 85 % 1021,6 hPa 0,0 l/m 8,9 km/h (2 Bft) W-SW 257 0 min 0,000 mm 0,0 UV-I 0 W/m 1,4 C 1,5 C 12,9 km/h (3 Bft) 96,15 %
19.02.2016 18:28 3,7 C 85 % 1021,6 hPa 0,0 l/m 6,2 km/h (2 Bft) W-SW 257 0 min 0,000 mm 0,0 UV-I 0 W/m 1,4 C 3,7 C 9,7 km/h (2 Bft) 100,00 %
19.02.2016 18:29 3,7 C 85 % 1021,6 hPa 0,0 l/m 5,6 km/h (1 Bft) SW 227 0 min 0,000 mm 0,0 UV-I 0 W/m 1,4 C 3,7 C 8,0 km/h (2 Bft) 100,00 %
19.02.2016 18:30 3,7 C 85 % 1021,6 hPa 0,0 l/m 7,0 km/h (2 Bft) SW 230 0 min 0,000 mm 0,0 UV-I 0 W/m 1,4 C 3,1 C 12,9 km/h (3 Bft) 100,00 %
19.02.2016 18:31 3,7 C 85 % 1021,6 hPa 0,0 l/m 5,8 km/h (2 Bft) W-SW 246 0 min 0,000 mm 0,0 UV-I 0 W/m 1,4 C 3,7 C 8,0 km/h (2 Bft) 96,55 %
19.02.2016 18:32 3,7 C 85 % 1021,6 hPa 0,0 l/m 6,9 km/h (2 Bft) SW 236 0 min 0,000 mm 0,0 UV-I 0 W/m 1,4 C 3,2 C 9,7 km/h (2 Bft) 100,00 %
19.02.2016 18:33 3,7 C 85 % 1021,7 hPa 0,0 l/m 8,2 km/h (2 Bft) W-SW 249 0 min 0,000 mm 0,0 UV-I 0 W/m 1,4 C 2,1 C 14,5 km/h (3 Bft) 100,00 %
19.02.2016 18:34 3,7 C 85 % 1021,7 hPa 0,0 l/m 7,4 km/h (2 Bft) W-SW 239 0 min 0,000 mm 0,0 UV-I 0 W/m 1,4 C 2,8 C 12,9 km/h (3 Bft) 100,00 %
19.02.2016 18:35 3,6 C 86 % 1021,7 hPa 0,0 l/m 6,2 km/h (2 Bft) SW 234 0 min 0,000 mm 0,0 UV-I 0 W/m 1,5 C 3,6 C 8,0 km/h (2 Bft) 100,00 %
19.02.2016 18:36 3,7 C 85 % 1021,7 hPa 0,0 l/m 6,6 km/h (2 Bft) SW 216 0 min 0,000 mm 0,0 UV-I 0 W/m 1,4 C 3,5 C 9,7 km/h (2 Bft) 100,00 %
19.02.2016 18:37 3,6 C 86 % 1021,7 hPa 0,0 l/m 8,3 km/h (2 Bft) W-SW 238 0 min 0,000 mm 0,0 UV-I 0 W/m 1,5 C 1,9 C 11,3 km/h (2 Bft) 100,00 %
19.02.2016 18:38 3,6 C 86 % 1021,7 hPa 0,0 l/m 5,8 km/h (2 Bft) W-SW 248 0 min 0,000 mm 0,0 UV-I 0 W/m 1,5 C 3,6 C 8,0 km/h (2 Bft) 100,00 %
19.02.2016 18:39 3,6 C 86 % 1021,7 hPa 0,0 l/m 9,3 km/h (2 Bft) W-SW 252 0 min 0,000 mm 0,0 UV-I 0 W/m 1,5 C 1,1 C 11,3 km/h (2 Bft) 100,00 %
19.02.2016 18:40 3,6 C 86 % 1021,7 hPa 0,0 l/m 7,2 km/h (2 Bft) W-SW 251 0 min 0,000 mm 0,0 UV-I 0 W/m 1,5 C 2,9 C 11,3 km/h (2 Bft) 100,00 %
19.02.2016 18:41 3,6 C 86 % 1021,7 hPa 0,0 l/m 7,7 km/h (2 Bft) SW 229 0 min 0,000 mm 0,0 UV-I 0 W/m 1,5 C 2,4 C 9,7 km/h (2 Bft) 100,00 %
19.02.2016 18:42 3,6 C 86 % 1021,7 hPa 0,0 l/m 7,3 km/h (2 Bft) SW 225 0 min 0,000 mm 0,0 UV-I 0 W/m 1,5 C 2,8 C 9,7 km/h (2 Bft) 96,15 %
19.02.2016 18:43 3,6 C 86 % 1021,8 hPa 0,0 l/m 6,0 km/h (2 Bft) SW 236 0 min 0,000 mm 0,0 UV-I 0 W/m 1,5 C 3,6 C 9,7 km/h (2 Bft) 100,00 %
19.02.2016 18:44 3,6 C 86 % 1021,8 hPa 0,0 l/m 7,1 km/h (2 Bft) SW 219 0 min 0,000 mm 0,0 UV-I 0 W/m 1,5 C 3,0 C 9,7 km/h (2 Bft) 95,65 %
19.02.2016 18:45 3,6 C 86 % 1021,8 hPa 0,0 l/m 9,2 km/h (2 Bft) SW 235 0 min 0,000 mm 0,0 UV-I 0 W/m 1,5 C 1,1 C 12,9 km/h (3 Bft) 100,00 %
19.02.2016 18:46 3,6 C 86 % 1021,8 hPa 0,0 l/m 6,9 km/h (2 Bft) SW 236 0 min 0,000 mm 0,0 UV-I 0 W/m 1,5 C 3,1 C 12,9 km/h (3 Bft) 100,00 %
19.02.2016 18:47 3,6 C 86 % 1021,8 hPa 0,0 l/m 5,7 km/h (1 Bft) W 265 0 min 0,000 mm 0,0 UV-I 0 W/m 1,5 C 3,6 C 9,7 km/h (2 Bft) 100,00 %
19.02.2016 18:48 3,6 C 86 % 1021,8 hPa 0,0 l/m 4,7 km/h (1 Bft) W 263 0 min 0,000 mm 0,0 UV-I 0 W/m 1,5 C 3,6 C 6,4 km/h (2 Bft) 100,00 %
19.02.2016 18:49 3,6 C 86 % 1021,8 hPa 0,0 l/m 6,3 km/h (2 Bft) W-SW 252 0 min 0,000 mm 0,0 UV-I 0 W/m 1,5 C 3,6 C 9,7 km/h (2 Bft) 100,00 %
19.02.2016 18:50 3,6 C 86 % 1021,8 hPa 0,0 l/m 6,8 km/h (2 Bft) SW 236 0 min 0,000 mm 0,0 UV-I 0 W/m 1,5 C 3,2 C 11,3 km/h (2 Bft) 100,00 %
19.02.2016 18:51 3,6 C 86 % 1021,8 hPa 0,0 l/m 6,4 km/h (2 Bft) W 259 0 min 0,000 mm 0,0 UV-I 0 W/m 1,5 C 3,6 C 8,0 km/h (2 Bft) 100,00 %
19.02.2016 18:52 3,6 C 86 % 1021,8 hPa 0,0 l/m 7,0 km/h (2 Bft) W-SW 252 0 min 0,000 mm 0,0 UV-I 0 W/m 1,5 C 3,0 C 11,3 km/h (2 Bft) 100,00 %
19.02.2016 18:53 3,6 C 86 % 1021,9 hPa 0,0 l/m 9,3 km/h (2 Bft) W-SW 246 0 min 0,000 mm 0,0 UV-I 0 W/m 1,5 C 1,1 C 12,9 km/h (3 Bft) 96,30 %
19.02.2016 18:54 3,6 C 86 % 1021,9 hPa 0,0 l/m 7,6 km/h (2 Bft) SW 229 0 min 0,000 mm 0,0 UV-I 0 W/m 1,5 C 2,5 C 9,7 km/h (2 Bft) 91,67 %
19.02.2016 18:55 3,6 C 86 % 1021,9 hPa 0,0 l/m 5,7 km/h (1 Bft) SW 223 0 min 0,000 mm 0,0 UV-I 0 W/m 1,5 C 3,6 C 9,7 km/h (2 Bft) 96,15 %
19.02.2016 18:56 3,6 C 86 % 1021,9 hPa 0,0 l/m 7,1 km/h (2 Bft) SW 234 0 min 0,000 mm 0,0 UV-I 0 W/m 1,5 C 3,0 C 9,7 km/h (2 Bft) 95,83 %
19.02.2016 18:57 3,6 C 86 % 1021,9 hPa 0,0 l/m 8,0 km/h (2 Bft) SW 223 0 min 0,000 mm 0,0 UV-I 0 W/m 1,5 C 2,1 C 14,5 km/h (3 Bft) 91,30 %
19.02.2016 18:58 3,6 C 86 % 1022,0 hPa 0,0 l/m 6,8 km/h (2 Bft) SW 225 0 min 0,000 mm 0,0 UV-I 0 W/m 1,5 C 3,2 C 11,3 km/h (2 Bft) 100,00 %
19.02.2016 18:59 3,6 C 87 % 1022,0 hPa 0,0 l/m 5,9 km/h (2 Bft) SW 228 0 min 0,000 mm 0,0 UV-I 0 W/m 1,6 C 3,6 C 8,0 km/h (2 Bft) 100,00 %
19.02.2016 19:00 3,6 C 86 % 1022,0 hPa 0,0 l/m 10,3 km/h (2 Bft) S-SW 213 0 min 0,000 mm 0,0 UV-I 0 W/m 1,5 C 0,3 C 14,5 km/h (3 Bft) 100,00 %
19.02.2016 19:01 3,6 C 86 % 1022,0 hPa 0,0 l/m 10,2 km/h (2 Bft) SW 221 0 min 0,000 mm 0,0 UV-I 0 W/m 1,5 C 0,4 C 14,5 km/h (3 Bft) 100,00 %
19.02.2016 19:02 3,6 C 86 % 1022,0 hPa 0,0 l/m 9,2 km/h (2 Bft) W-SW 242 0 min 0,000 mm 0,0 UV-I 0 W/m 1,5 C 1,1 C 11,3 km/h (2 Bft) 100,00 %
19.02.2016 19:03 3,6 C 86 % 1022,0 hPa 0,0 l/m 6,5 km/h (2 Bft) SW 235 0 min 0,000 mm 0,0 UV-I 0 W/m 1,5 C 3,5 C 11,3 km/h (2 Bft) 100,00 %
19.02.2016 19:04 3,6 C 86 % 1022,0 hPa 0,0 l/m 7,8 km/h (2 Bft) SW 221 0 min 0,000 mm 0,0 UV-I 0 W/m 1,5 C 2,3 C 9,7 km/h (2 Bft) 100,00 %
19.02.2016 19:05 3,6 C 87 % 1022,0 hPa 0,0 l/m 9,5 km/h (2 Bft) SW 232 0 min 0,000 mm 0,0 UV-I 0 W/m 1,6 C 0,9 C 11,3 km/h (2 Bft) 100,00 %
19.02.2016 19:06 3,6 C 87 % 1022,0 hPa 0,0 l/m 8,5 km/h (2 Bft) W-SW 244 0 min 0,000 mm 0,0 UV-I 0 W/m 1,6 C 1,7 C 11,3 km/h (2 Bft) 100,00 %
19.02.2016 19:07 3,6 C 86 % 1022,0 hPa 0,0 l/m 7,5 km/h (2 Bft) SW 227 0 min 0,000 mm 0,0 UV-I 0 W/m 1,5 C 2,6 C 11,3 km/h (2 Bft) 100,00 %
19.02.2016 19:08 3,6 C 87 % 1022,0 hPa 0,0 l/m 7,0 km/h (2 Bft) W-SW 251 0 min 0,000 mm 0,0 UV-I 0 W/m 1,6 C 3,0 C 11,3 km/h (2 Bft) 100,00 %
19.02.2016 19:09 3,6 C 87 % 1022,0 hPa 0,0 l/m 6,2 km/h (2 Bft) W-SW 256 0 min 0,000 mm 0,0 UV-I 0 W/m 1,6 C 3,6 C 9,7 km/h (2 Bft) 100,00 %
19.02.2016 19:10 3,6 C 87 % 1022,0 hPa 0,0 l/m 8,2 km/h (2 Bft) W 260 0 min 0,000 mm 0,0 UV-I 0 W/m 1,6 C 2,0 C 11,3 km/h (2 Bft) 100,00 %
19.02.2016 19:11 3,6 C 87 % 1022,0 hPa 0,0 l/m 7,1 km/h (2 Bft) W-SW 241 0 min 0,000 mm 0,0 UV-I 0 W/m 1,6 C 3,0 C 11,3 km/h (2 Bft) 100,00 %
19.02.2016 19:12 3,6 C 87 % 1022,1 hPa 0,0 l/m 9,6 km/h (2 Bft) W-SW 252 0 min 0,000 mm 0,0 UV-I 0 W/m 1,6 C 0,8 C 14,5 km/h (3 Bft) 95,83 %
19.02.2016 19:13 3,6 C 87 % 1022,0 hPa 0,0 l/m 7,6 km/h (2 Bft) SW 234 0 min 0,000 mm 0,0 UV-I 0 W/m 1,6 C 2,5 C 12,9 km/h (3 Bft) 98,31 %
19.02.2016 19:14 3,6 C 87 % 1022,1 hPa 0,0 l/m 6,3 km/h (2 Bft) SW 232 0 min 0,000 mm 0,0 UV-I 0 W/m 1,6 C 3,6 C 11,3 km/h (2 Bft) 100,00 %
19.02.2016 19:15 3,6 C 87 % 1022,1 hPa 0,0 l/m 6,0 km/h (2 Bft) W-SW 248 0 min 0,000 mm 0,0 UV-I 0 W/m 1,6 C 3,6 C 11,3 km/h (2 Bft) 100,00 %
19.02.2016 19:16 3,6 C 87 % 1022,1 hPa 0,0 l/m 5,6 km/h (1 Bft) W 264 0 min 0,000 mm 0,0 UV-I 0 W/m 1,6 C 3,6 C 11,3 km/h (2 Bft) 100,00 %
19.02.2016 19:17 3,6 C 87 % 1022,0 hPa 0,0 l/m 8,6 km/h (2 Bft) W 259 0 min 0,000 mm 0,0 UV-I 0 W/m 1,6 C 1,6 C 11,3 km/h (2 Bft) 100,00 %
19.02.2016 19:18 3,6 C 87 % 1022,0 hPa 0,0 l/m 7,3 km/h (2 Bft) SW 219 0 min 0,000 mm 0,0 UV-I 0 W/m 1,6 C 2,8 C 12,9 km/h (3 Bft) 96,15 %
19.02.2016 19:19 3,6 C 87 % 1022,0 hPa 0,0 l/m 8,3 km/h (2 Bft) W-SW 251 0 min 0,000 mm 0,0 UV-I 0 W/m 1,6 C 1,9 C 14,5 km/h (3 Bft) 100,00 %
19.02.2016 19:20 3,6 C 87 % 1022,1 hPa 0,0 l/m 9,3 km/h (2 Bft) W-SW 238 0 min 0,000 mm 0,0 UV-I 0 W/m 1,6 C 1,1 C 12,9 km/h (3 Bft) 100,00 %
19.02.2016 19:21 3,6 C 87 % 1022,0 hPa 0,0 l/m 6,9 km/h (2 Bft) W 264 0 min 0,000 mm 0,0 UV-I 0 W/m 1,6 C 3,1 C 12,9 km/h (3 Bft) 100,00 %
19.02.2016 19:22 3,6 C 87 % 1022,1 hPa 0,0 l/m 11,6 km/h (2 Bft) W-SW 254 0 min 0,000 mm 0,0 UV-I 0 W/m 1,6 C -0,6 C 16,1 km/h (3 Bft) 100,00 %
19.02.2016 19:23 3,6 C 87 % 1022,0 hPa 0,0 l/m 10,9 km/h (2 Bft) W-SW 243 0 min 0,000 mm 0,0 UV-I 0 W/m 1,6 C -0,1 C 14,5 km/h (3 Bft) 100,00 %
19.02.2016 19:24 3,6 C 87 % 1022,1 hPa 0,0 l/m 9,2 km/h (2 Bft) W-SW 249 0 min 0,000 mm 0,0 UV-I 0 W/m 1,6 C 1,1 C 12,9 km/h (3 Bft) 100,00 %
19.02.2016 19:25 3,6 C 87 % 1022,1 hPa 0,0 l/m 7,4 km/h (2 Bft) W-SW 246 0 min 0,000 mm 0,0 UV-I 0 W/m 1,6 C 2,7 C 9,7 km/h (2 Bft) 100,00 %
19.02.2016 19:26 3,6 C 87 % 1022,1 hPa 0,0 l/m 8,6 km/h (2 Bft) SW 219 0 min 0,000 mm 0,0 UV-I 0 W/m 1,6 C 1,6 C 11,3 km/h (2 Bft) 100,00 %
19.02.2016 19:27 3,6 C 87 % 1022,0 hPa 0,0 l/m 8,6 km/h (2 Bft) W-SW 254 0 min 0,000 mm 0,0 UV-I 0 W/m 1,6 C 1,6 C 11,3 km/h (2 Bft) 100,00 %
19.02.2016 19:28 3,6 C 87 % 1022,1 hPa 0,0 l/m 8,4 km/h (2 Bft) SW 214 0 min 0,000 mm 0,0 UV-I 0 W/m 1,6 C 1,8 C 11,3 km/h (2 Bft) 100,00 %
19.02.2016 19:29 3,6 C 87 % 1022,1 hPa 0,0 l/m 9,5 km/h (2 Bft) SW 216 0 min 0,000 mm 0,0 UV-I 0 W/m 1,6 C 0,9 C 12,9 km/h (3 Bft) 100,00 %
19.02.2016 19:30 3,6 C 87 % 1022,1 hPa 0,0 l/m 9,1 km/h (2 Bft) SW 218 0 min 0,000 mm 0,0 UV-I 0 W/m 1,6 C 1,2 C 12,9 km/h (3 Bft) 100,00 %
19.02.2016 19:31 3,6 C 87 % 1022,1 hPa 0,0 l/m 8,5 km/h (2 Bft) W-SW 252 0 min 0,000 mm 0,0 UV-I 0 W/m 1,6 C 1,7 C 12,9 km/h (3 Bft) 100,00 %
19.02.2016 19:32 3,6 C 87 % 1022,1 hPa 0,0 l/m 6,1 km/h (2 Bft) SW 227 0 min 0,000 mm 0,0 UV-I 0 W/m 1,6 C 3,6 C 8,0 km/h (2 Bft) 100,00 %
19.02.2016 19:33 3,6 C 87 % 1022,1 hPa 0,0 l/m 6,4 km/h (2 Bft) W-SW 238 0 min 0,000 mm 0,0 UV-I 0 W/m 1,6 C 3,6 C 9,7 km/h (2 Bft) 100,00 %
19.02.2016 19:34 3,6 C 87 % 1022,1 hPa 0,0 l/m 9,3 km/h (2 Bft) W-SW 243 0 min 0,000 mm 0,0 UV-I 0 W/m 1,6 C 1,1 C 14,5 km/h (3 Bft) 100,00 %
19.02.2016 19:35 3,6 C 87 % 1022,1 hPa 0,0 l/m 8,2 km/h (2 Bft) W-SW 248 0 min 0,000 mm 0,0 UV-I 0 W/m 1,6 C 2,0 C 12,9 km/h (3 Bft) 98,35 %
19.02.2016 19:36 3,6 C 87 % 1022,0 hPa 0,0 l/m 8,1 km/h (2 Bft) SW 225 0 min 0,000 mm 0,0 UV-I 0 W/m 1,6 C 2,0 C 11,3 km/h (2 Bft) 100,00 %
19.02.2016 19:37 3,6 C 87 % 1022,1 hPa 0,0 l/m 7,8 km/h (2 Bft) SW 225 0 min 0,000 mm 0,0 UV-I 0 W/m 1,6 C 2,3 C 12,9 km/h (3 Bft) 100,00 %
19.02.2016 19:38 3,5 C 87 % 1022,1 hPa 0,0 l/m 9,2 km/h (2 Bft) W-SW 250 0 min 0,000 mm 0,0 UV-I 0 W/m 1,5 C 1,0 C 12,9 km/h (3 Bft) 96,15 %
19.02.2016 19:39 3,6 C 87 % 1022,0 hPa 0,0 l/m 11,6 km/h (2 Bft) S-SW 212 0 min 0,000 mm 0,0 UV-I 0 W/m 1,6 C -0,6 C 17,7 km/h (3 Bft) 100,00 %
19.02.2016 19:40 3,6 C 87 % 1022,1 hPa 0,0 l/m 8,9 km/h (2 Bft) SW 232 0 min 0,000 mm 0,0 UV-I 0 W/m 1,6 C 1,4 C 12,9 km/h (3 Bft) 95,83 %
19.02.2016 19:41 3,5 C 87 % 1022,1 hPa 0,0 l/m 9,0 km/h (2 Bft) W-SW 256 0 min 0,000 mm 0,0 UV-I 0 W/m 1,5 C 1,2 C 11,3 km/h (2 Bft) 100,00 %
19.02.2016 19:42 3,6 C 87 % 1022,1 hPa 0,0 l/m 8,8 km/h (2 Bft) W-SW 248 0 min 0,000 mm 0,0 UV-I 0 W/m 1,6 C 1,5 C 14,5 km/h (3 Bft) 96,97 %
19.02.2016 19:43 3,6 C 87 % 1022,1 hPa 0,0 l/m 8,3 km/h (2 Bft) SW 217 0 min 0,000 mm 0,0 UV-I 0 W/m 1,6 C 1,9 C 14,5 km/h (3 Bft) 96,15 %
19.02.2016 19:44 3,6 C 87 % 1022,0 hPa 0,0 l/m 7,5 km/h (2 Bft) W-SW 249 0 min 0,000 mm 0,0 UV-I 0 W/m 1,6 C 2,6 C 9,7 km/h (2 Bft) 100,00 %
19.02.2016 19:45 3,5 C 87 % 1022,1 hPa 0,0 l/m 8,1 km/h (2 Bft) W 259 0 min 0,000 mm 0,0 UV-I 0 W/m 1,5 C 1,9 C 12,9 km/h (3 Bft) 96,15 %
19.02.2016 19:46 3,6 C 87 % 1022,1 hPa 0,0 l/m 6,8 km/h (2 Bft) W-SW 242 0 min 0,000 mm 0,0 UV-I 0 W/m 1,6 C 3,2 C 9,7 km/h (2 Bft) 100,00 %
19.02.2016 19:47 3,5 C 87 % 1022,1 hPa 0,0 l/m 8,5 km/h (2 Bft) W-SW 244 0 min 0,000 mm 0,0 UV-I 0 W/m 1,5 C 1,6 C 11,3 km/h (2 Bft) 95,65 %
19.02.2016 19:48 3,5 C 87 % 1022,1 hPa 0,0 l/m 6,9 km/h (2 Bft) SW 219 0 min 0,000 mm 0,0 UV-I 0 W/m 1,5 C 3,0 C 8,0 km/h (2 Bft) 100,00 %
19.02.2016 19:49 3,5 C 87 % 1022,1 hPa 0,0 l/m 7,3 km/h (2 Bft) W-SW 242 0 min 0,000 mm 0,0 UV-I 0 W/m 1,5 C 2,7 C 11,3 km/h (2 Bft) 88,24 %
19.02.2016 19:50 3,5 C 87 % 1022,1 hPa 0,0 l/m 8,0 km/h (2 Bft) SW 228 0 min 0,000 mm 0,0 UV-I 0 W/m 1,5 C 2,0 C 11,3 km/h (2 Bft) 96,30 %
19.02.2016 19:51 3,5 C 87 % 1022,1 hPa 0,0 l/m 8,4 km/h (2 Bft) S-SW 199 0 min 0,000 mm 0,0 UV-I 0 W/m 1,5 C 1,7 C 11,3 km/h (2 Bft) 95,65 %
19.02.2016 19:52 3,5 C 87 % 1022,1 hPa 0,0 l/m 8,0 km/h (2 Bft) SW 225 0 min 0,000 mm 0,0 UV-I 0 W/m 1,5 C 2,0 C 12,9 km/h (3 Bft) 95,83 %
19.02.2016 19:53 3,5 C 87 % 1022,1 hPa 0,0 l/m 10,9 km/h (2 Bft) SW 222 0 min 0,000 mm 0,0 UV-I 0 W/m 1,5 C -0,2 C 16,1 km/h (3 Bft) 100,00 %
19.02.2016 19:54 3,5 C 87 % 1022,1 hPa 0,0 l/m 6,5 km/h (2 Bft) SW 220 0 min 0,000 mm 0,0 UV-I 0 W/m 1,5 C 3,4 C 9,7 km/h (2 Bft) 96,15 %
19.02.2016 19:55 3,5 C 87 % 1022,1 hPa 0,0 l/m 8,4 km/h (2 Bft) W-SW 240 0 min 0,000 mm 0,0 UV-I 0 W/m 1,5 C 1,7 C 12,9 km/h (3 Bft) 100,00 %
19.02.2016 19:56 3,5 C 87 % 1022,2 hPa 0,0 l/m 7,7 km/h (2 Bft) SW 219 0 min 0,000 mm 0,0 UV-I 0 W/m 1,5 C 2,3 C 9,7 km/h (2 Bft) 96,55 %
19.02.2016 19:57 3,4 C 87 % 1022,2 hPa 0,0 l/m 8,7 km/h (2 Bft) S-SW 198 0 min 0,000 mm 0,0 UV-I 0 W/m 1,4 C 1,3 C 14,5 km/h (3 Bft) 100,00 %
19.02.2016 19:58 3,4 C 88 % 1022,2 hPa 0,0 l/m 11,3 km/h (2 Bft) SW 229 0 min 0,000 mm 0,0 UV-I 0 W/m 1,6 C -0,6 C 17,7 km/h (3 Bft) 96,55 %
19.02.2016 19:59 3,4 C 88 % 1022,2 hPa 0,0 l/m 10,9 km/h (2 Bft) SW 219 0 min 0,000 mm 0,0 UV-I 0 W/m 1,6 C -0,3 C 16,1 km/h (3 Bft) 100,00 %
19.02.2016 20:00 3,4 C 88 % 1022,2 hPa 0,0 l/m 9,3 km/h (2 Bft) SW 219 0 min 0,000 mm 0,0 UV-I 0 W/m 1,6 C 0,8 C 12,9 km/h (3 Bft) 95,65 %
19.02.2016 20:01 3,4 C 88 % 1022,2 hPa 0,0 l/m 10,1 km/h (2 Bft) SW 230 0 min 0,000 mm 0,0 UV-I 0 W/m 1,6 C 0,2 C 14,5 km/h (3 Bft) 100,00 %
19.02.2016 20:02 3,4 C 88 % 1022,2 hPa 0,0 l/m 7,4 km/h (2 Bft) W-SW 248 0 min 0,000 mm 0,0 UV-I 0 W/m 1,6 C 2,5 C 11,3 km/h (2 Bft) 96,15 %
19.02.2016 20:03 3,4 C 87 % 1022,2 hPa 0,0 l/m 7,9 km/h (2 Bft) SW 217 0 min 0,000 mm 0,0 UV-I 0 W/m 1,4 C 2,0 C 11,3 km/h (2 Bft) 96,30 %
19.02.2016 20:04 3,4 C 87 % 1022,2 hPa 0,0 l/m 11,6 km/h (2 Bft) SW 228 0 min 0,000 mm 0,0 UV-I 0 W/m 1,4 C -0,8 C 14,5 km/h (3 Bft) 100,00 %
19.02.2016 20:05 3,4 C 87 % 1022,2 hPa 0,0 l/m 8,4 km/h (2 Bft) SW 225 0 min 0,000 mm 0,0 UV-I 0 W/m 1,4 C 1,6 C 11,3 km/h (2 Bft) 91,67 %
19.02.2016 20:06 3,4 C 87 % 1022,2 hPa 0,0 l/m 10,3 km/h (2 Bft) W-SW 257 0 min 0,000 mm 0,0 UV-I 0 W/m 1,4 C 0,1 C 14,5 km/h (3 Bft) 100,00 %
19.02.2016 20:07 3,4 C 87 % 1022,2 hPa 0,0 l/m 9,2 km/h (2 Bft) S-SO 157 0 min 0,000 mm 0,0 UV-I 0 W/m 1,4 C 0,9 C 12,9 km/h (3 Bft) 96,30 %
19.02.2016 20:08 3,4 C 87 % 1022,2 hPa 0,0 l/m 9,7 km/h (2 Bft) SW 230 0 min 0,000 mm 0,0 UV-I 0 W/m 1,4 C 0,5 C 12,9 km/h (3 Bft) 100,00 %
19.02.2016 20:09 3,4 C 87 % 1022,2 hPa 0,0 l/m 8,9 km/h (2 Bft) SW 229 0 min 0,000 mm 0,0 UV-I 0 W/m 1,4 C 1,2 C 12,9 km/h (3 Bft) 96,30 %
19.02.2016 20:10 3,4 C 87 % 1022,2 hPa 0,0 l/m 7,2 km/h (2 Bft) SW 234 0 min 0,000 mm 0,0 UV-I 0 W/m 1,4 C 2,7 C 12,9 km/h (3 Bft) 91,30 %
19.02.2016 20:11 3,4 C 87 % 1022,2 hPa 0,0 l/m 7,7 km/h (2 Bft) W-SW 244 0 min 0,000 mm 0,0 UV-I 0 W/m 1,4 C 2,2 C 9,7 km/h (2 Bft) 100,00 %
19.02.2016 20:12 3,4 C 87 % 1022,2 hPa 0,0 l/m 6,5 km/h (2 Bft) SW 223 0 min 0,000 mm 0,0 UV-I 0 W/m 1,4 C 3,3 C 9,7 km/h (2 Bft) 100,00 %
19.02.2016 20:13 3,4 C 87 % 1022,2 hPa 0,0 l/m 8,6 km/h (2 Bft) SW 228 0 min 0,000 mm 0,0 UV-I 0 W/m 1,4 C 1,4 C 16,1 km/h (3 Bft) 100,00 %
19.02.2016 20:14 3,4 C 87 % 1022,2 hPa 0,0 l/m 10,2 km/h (2 Bft) SW 218 0 min 0,000 mm 0,0 UV-I 0 W/m 1,4 C 0,2 C 16,1 km/h (3 Bft) 88,89 %
19.02.2016 20:15 3,4 C 87 % 1022,2 hPa 0,0 l/m 11,7 km/h (2 Bft) SW 224 0 min 0,000 mm 0,0 UV-I 0 W/m 1,4 C -0,9 C 14,5 km/h (3 Bft) 100,00 %
19.02.2016 20:16 3,4 C 87 % 1022,2 hPa 0,0 l/m 10,3 km/h (2 Bft) SW 234 0 min 0,000 mm 0,0 UV-I 0 W/m 1,4 C 0,1 C 16,1 km/h (3 Bft) 100,00 %
19.02.2016 20:17 3,4 C 87 % 1022,1 hPa 0,0 l/m 8,4 km/h (2 Bft) SW 236 0 min 0,000 mm 0,0 UV-I 0 W/m 1,4 C 1,6 C 11,3 km/h (2 Bft) 100,00 %
19.02.2016 20:18 3,4 C 87 % 1022,1 hPa 0,0 l/m 8,0 km/h (2 Bft) W-SW 238 0 min 0,000 mm 0,0 UV-I 0 W/m 1,4 C 1,9 C 12,9 km/h (3 Bft) 100,00 %
19.02.2016 20:19 3,4 C 87 % 1022,1 hPa 0,0 l/m 9,4 km/h (2 Bft) SW 222 0 min 0,000 mm 0,0 UV-I 0 W/m 1,4 C 0,8 C 12,9 km/h (3 Bft) 100,00 %
19.02.2016 20:20 3,4 C 87 % 1022,1 hPa 0,0 l/m 9,1 km/h (2 Bft) S-SW 209 0 min 0,000 mm 0,0 UV-I 0 W/m 1,4 C 1,0 C 14,5 km/h (3 Bft) 96,67 %
19.02.2016 20:21 3,4 C 87 % 1022,2 hPa 0,0 l/m 7,4 km/h (2 Bft) W-SW 239 0 min 0,000 mm 0,0 UV-I 0 W/m 1,4 C 2,5 C 9,7 km/h (2 Bft) 100,00 %
19.02.2016 20:22 3,4 C 87 % 1022,2 hPa 0,0 l/m 11,5 km/h (2 Bft) SW 223 0 min 0,000 mm 0,0 UV-I 0 W/m 1,4 C -0,8 C 16,1 km/h (3 Bft) 100,00 %
19.02.2016 20:23 3,4 C 87 % 1022,2 hPa 0,0 l/m 8,8 km/h (2 Bft) W-SW 242 0 min 0,000 mm 0,0 UV-I 0 W/m 1,4 C 1,2 C 14,5 km/h (3 Bft) 95,65 %
19.02.2016 20:24 3,4 C 87 % 1022,2 hPa 0,0 l/m 9,3 km/h (2 Bft) W-SW 245 0 min 0,000 mm 0,0 UV-I 0 W/m 1,4 C 0,8 C 12,9 km/h (3 Bft) 100,00 %
19.02.2016 20:25 3,4 C 87 % 1022,2 hPa 0,0 l/m 9,7 km/h (2 Bft) W-SW 240 0 min 0,000 mm 0,0 UV-I 0 W/m 1,4 C 0,5 C 12,9 km/h (3 Bft) 100,00 %
19.02.2016 20:26 3,4 C 87 % 1022,2 hPa 0,0 l/m 10,2 km/h (2 Bft) SW 226 0 min 0,000 mm 0,0 UV-I 0 W/m 1,4 C 0,2 C 12,9 km/h (3 Bft) 100,00 %
19.02.2016 20:27 3,4 C 87 % 1022,2 hPa 0,0 l/m 9,0 km/h (2 Bft) S-SW 213 0 min 0,000 mm 0,0 UV-I 0 W/m 1,4 C 1,1 C 12,9 km/h (3 Bft) 100,00 %
19.02.2016 20:28 3,4 C 88 % 1022,2 hPa 0,0 l/m 9,1 km/h (2 Bft) SW 220 0 min 0,000 mm 0,0 UV-I 0 W/m 1,6 C 1,0 C 12,9 km/h (3 Bft) 100,00 %
19.02.2016 20:29 3,4 C 88 % 1022,2 hPa 0,0 l/m 9,4 km/h (2 Bft) SW 236 0 min 0,000 mm 0,0 UV-I 0 W/m 1,6 C 0,8 C 14,5 km/h (3 Bft) 100,00 %
19.02.2016 20:30 3,4 C 88 % 1022,2 hPa 0,0 l/m 8,9 km/h (2 Bft) SW 229 0 min 0,000 mm 0,0 UV-I 0 W/m 1,6 C 1,2 C 14,5 km/h (3 Bft) 100,00 %
19.02.2016 20:31 3,4 C 87 % 1022,1 hPa 0,0 l/m 9,8 km/h (2 Bft) W-SW 238 0 min 0,000 mm 0,0 UV-I 0 W/m 1,4 C 0,5 C 16,1 km/h (3 Bft) 100,00 %
19.02.2016 20:32 3,4 C 87 % 1022,2 hPa 0,0 l/m 7,3 km/h (2 Bft) SW 233 0 min 0,000 mm 0,0 UV-I 0 W/m 1,4 C 2,6 C 11,3 km/h (2 Bft) 93,33 %
19.02.2016 20:33 3,4 C 87 % 1022,2 hPa 0,0 l/m 9,0 km/h (2 Bft) W-SW 250 0 min 0,000 mm 0,0 UV-I 0 W/m 1,4 C 1,1 C 11,3 km/h (2 Bft) 100,00 %
19.02.2016 20:34 3,4 C 87 % 1022,2 hPa 0,0 l/m 8,6 km/h (2 Bft) W-SW 254 0 min 0,000 mm 0,0 UV-I 0 W/m 1,4 C 1,4 C 12,9 km/h (3 Bft) 100,00 %
19.02.2016 20:35 3,3 C 87 % 1022,2 hPa 0,0 l/m 8,7 km/h (2 Bft) SW 217 0 min 0,000 mm 0,0 UV-I 0 W/m 1,3 C 1,2 C 11,3 km/h (2 Bft) 100,00 %
19.02.2016 20:36 3,4 C 87 % 1022,2 hPa 0,0 l/m 8,2 km/h (2 Bft) S-SW 205 0 min 0,000 mm 0,0 UV-I 0 W/m 1,4 C 1,7 C 11,3 km/h (2 Bft) 100,00 %
19.02.2016 20:37 3,4 C 87 % 1022,2 hPa 0,0 l/m 9,1 km/h (2 Bft) W-SW 242 0 min 0,000 mm 0,0 UV-I 0 W/m 1,4 C 1,0 C 12,9 km/h (3 Bft) 100,00 %
19.02.2016 20:38 3,4 C 87 % 1022,2 hPa 0,0 l/m 8,6 km/h (2 Bft) W-SW 252 0 min 0,000 mm 0,0 UV-I 0 W/m 1,4 C 1,4 C 12,9 km/h (3 Bft) 100,00 %
19.02.2016 20:39 3,4 C 87 % 1022,2 hPa 0,0 l/m 10,2 km/h (2 Bft) SW 236 0 min 0,000 mm 0,0 UV-I 0 W/m 1,4 C 0,2 C 12,9 km/h (3 Bft) 100,00 %
19.02.2016 20:40 3,4 C 87 % 1022,2 hPa 0,0 l/m 7,8 km/h (2 Bft) SW 230 0 min 0,000 mm 0,0 UV-I 0 W/m 1,4 C 2,1 C 12,9 km/h (3 Bft) 100,00 %
19.02.2016 20:41 3,4 C 87 % 1022,2 hPa 0,0 l/m 6,9 km/h (2 Bft) SW 227 0 min 0,000 mm 0,0 UV-I 0 W/m 1,4 C 2,9 C 8,0 km/h (2 Bft) 100,00 %
19.02.2016 20:42 3,4 C 87 % 1022,2 hPa 0,0 l/m 9,5 km/h (2 Bft) W-SW 256 0 min 0,000 mm 0,0 UV-I 0 W/m 1,4 C 0,7 C 16,1 km/h (3 Bft) 100,00 %
19.02.2016 20:43 3,4 C 87 % 1022,2 hPa 0,0 l/m 10,8 km/h (2 Bft) SW 236 0 min 0,000 mm 0,0 UV-I 0 W/m 1,4 C -0,3 C 14,5 km/h (3 Bft) 100,00 %
19.02.2016 20:44 3,4 C 87 % 1022,3 hPa 0,0 l/m 7,2 km/h (2 Bft) W-SW 242 0 min 0,000 mm 0,0 UV-I 0 W/m 1,4 C 2,7 C 11,3 km/h (2 Bft) 100,00 %
19.02.2016 20:45 3,4 C 87 % 1022,3 hPa 0,0 l/m 8,4 km/h (2 Bft) SW 232 0 min 0,000 mm 0,0 UV-I 0 W/m 1,4 C 1,6 C 12,9 km/h (3 Bft) 96,67 %
19.02.2016 20:46 3,4 C 87 % 1022,2 hPa 0,0 l/m 7,0 km/h (2 Bft) W-SW 240 0 min 0,000 mm 0,0 UV-I 0 W/m 1,4 C 2,8 C 11,3 km/h (2 Bft) 100,00 %
19.02.2016 20:47 3,4 C 87 % 1022,3 hPa 0,0 l/m 9,1 km/h (2 Bft) SW 232 0 min 0,000 mm 0,0 UV-I 0 W/m 1,4 C 1,0 C 12,9 km/h (3 Bft) 100,00 %
19.02.2016 20:48 3,4 C 87 % 1022,3 hPa 0,0 l/m 10,0 km/h (2 Bft) SW 219 0 min 0,000 mm 0,0 UV-I 0 W/m 1,4 C 0,3 C 12,9 km/h (3 Bft) 100,00 %
19.02.2016 20:49 3,3 C 88 % 1022,4 hPa 0,0 l/m 8,5 km/h (2 Bft) SW 223 0 min 0,000 mm 0,0 UV-I 0 W/m 1,5 C 1,4 C 11,3 km/h (2 Bft) 96,30 %
19.02.2016 20:50 3,4 C 88 % 1022,4 hPa 0,0 l/m 11,2 km/h (2 Bft) W-SW 241 0 min 0,000 mm 0,0 UV-I 0 W/m 1,6 C -0,6 C 14,5 km/h (3 Bft) 100,00 %
19.02.2016 20:51 3,3 C 88 % 1022,2 hPa 0,0 l/m 11,2 km/h (2 Bft) W-SW 244 0 min 0,000 mm 0,0 UV-I 0 W/m 1,5 C -0,7 C 16,1 km/h (3 Bft) 100,00 %
19.02.2016 20:52 3,3 C 88 % 1022,3 hPa 0,0 l/m 8,0 km/h (2 Bft) S-SW 209 0 min 0,000 mm 0,0 UV-I 0 W/m 1,5 C 1,8 C 11,3 km/h (2 Bft) 100,00 %
19.02.2016 20:53 3,3 C 88 % 1022,4 hPa 0,0 l/m 7,8 km/h (2 Bft) SW 229 0 min 0,000 mm 0,0 UV-I 0 W/m 1,5 C 2,0 C 12,9 km/h (3 Bft) 100,00 %
19.02.2016 20:54 3,3 C 88 % 1022,4 hPa 0,0 l/m 7,9 km/h (2 Bft) W-SW 246 0 min 0,000 mm 0,0 UV-I 0 W/m 1,5 C 1,9 C 11,3 km/h (2 Bft) 100,00 %
19.02.2016 20:55 3,3 C 88 % 1022,4 hPa 0,0 l/m 10,8 km/h (2 Bft) W 267 0 min 0,000 mm 0,0 UV-I 0 W/m 1,5 C -0,4 C 14,5 km/h (3 Bft) 95,83 %
19.02.2016 20:56 3,3 C 88 % 1022,5 hPa 0,0 l/m 9,0 km/h (2 Bft) SW 232 0 min 0,000 mm 0,0 UV-I 0 W/m 1,5 C 1,0 C 12,9 km/h (3 Bft) 100,00 %
19.02.2016 20:57 3,3 C 88 % 1022,4 hPa 0,0 l/m 9,5 km/h (2 Bft) W-SW 252 0 min 0,000 mm 0,0 UV-I 0 W/m 1,5 C 0,6 C 14,5 km/h (3 Bft) 92,31 %
19.02.2016 20:58 3,3 C 88 % 1022,4 hPa 0,0 l/m 9,6 km/h (2 Bft) SW 221 0 min 0,000 mm 0,0 UV-I 0 W/m 1,5 C 0,5 C 14,5 km/h (3 Bft) 100,00 %
19.02.2016 20:59 3,3 C 88 % 1022,5 hPa 0,0 l/m 11,9 km/h (2 Bft) W-SW 251 0 min 0,000 mm 0,0 UV-I 0 W/m 1,5 C -1,1 C 17,7 km/h (3 Bft) 100,00 %
19.02.2016 21:00 3,3 C 88 % 1022,4 hPa 0,0 l/m 6,9 km/h (2 Bft) W-SW 253 0 min 0,000 mm 0,0 UV-I 0 W/m 1,5 C 2,8 C 9,7 km/h (2 Bft) 100,00 %
19.02.2016 21:01 3,3 C 88 % 1022,4 hPa 0,0 l/m 8,6 km/h (2 Bft) W 261 0 min 0,000 mm 0,0 UV-I 0 W/m 1,5 C 1,3 C 16,1 km/h (3 Bft) 92,86 %
19.02.2016 21:02 3,3 C 88 % 1022,5 hPa 0,0 l/m 9,7 km/h (2 Bft) W-SW 240 0 min 0,000 mm 0,0 UV-I 0 W/m 1,5 C 0,4 C 12,9 km/h (3 Bft) 100,00 %
19.02.2016 21:03 3,3 C 88 % 1022,4 hPa 0,0 l/m 8,1 km/h (2 Bft) W-SW 238 0 min 0,000 mm 0,0 UV-I 0 W/m 1,5 C 1,7 C 12,9 km/h (3 Bft) 100,00 %
19.02.2016 21:04 3,3 C 88 % 1022,5 hPa 0,0 l/m 7,2 km/h (2 Bft) W-SW 250 0 min 0,000 mm 0,0 UV-I 0 W/m 1,5 C 2,5 C 11,3 km/h (2 Bft) 100,00 %
19.02.2016 21:05 3,3 C 88 % 1022,5 hPa 0,0 l/m 7,6 km/h (2 Bft) SW 235 0 min 0,000 mm 0,0 UV-I 0 W/m 1,5 C 2,2 C 11,3 km/h (2 Bft) 100,00 %
19.02.2016 21:06 3,3 C 88 % 1022,4 hPa 0,0 l/m 10,1 km/h (2 Bft) W-SW 257 0 min 0,000 mm 0,0 UV-I 0 W/m 1,5 C 0,1 C 14,5 km/h (3 Bft) 100,00 %
19.02.2016 21:07 3,3 C 88 % 1022,5 hPa 0,0 l/m 8,2 km/h (2 Bft) W-SW 257 0 min 0,000 mm 0,0 UV-I 0 W/m 1,5 C 1,6 C 12,9 km/h (3 Bft) 100,00 %
19.02.2016 21:08 3,3 C 88 % 1022,4 hPa 0,0 l/m 8,9 km/h (2 Bft) S-SW 200 0 min 0,000 mm 0,0 UV-I 0 W/m 1,5 C 1,1 C 14,5 km/h (3 Bft) 100,00 %
19.02.2016 21:09 3,3 C 88 % 1022,4 hPa 0,0 l/m 6,0 km/h (2 Bft) SW 221 0 min 0,000 mm 0,0 UV-I 0 W/m 1,5 C 3,3 C 8,0 km/h (2 Bft) 95,65 %
19.02.2016 21:10 3,3 C 88 % 1022,4 hPa 0,0 l/m 6,1 km/h (2 Bft) SW 232 0 min 0,000 mm 0,0 UV-I 0 W/m 1,5 C 3,3 C 8,0 km/h (2 Bft) 95,83 %
19.02.2016 21:11 3,3 C 88 % 1022,5 hPa 0,0 l/m 5,5 km/h (1 Bft) W-SW 239 0 min 0,000 mm 0,0 UV-I 0 W/m 1,5 C 3,3 C 9,7 km/h (2 Bft) 100,00 %
19.02.2016 21:12 3,3 C 88 % 1022,5 hPa 0,0 l/m 6,6 km/h (2 Bft) SW 233 0 min 0,000 mm 0,0 UV-I 0 W/m 1,5 C 3,1 C 8,0 km/h (2 Bft) 95,83 %
19.02.2016 21:13 3,3 C 88 % 1022,5 hPa 0,0 l/m 8,7 km/h (2 Bft) SW 224 0 min 0,000 mm 0,0 UV-I 0 W/m 1,5 C 1,2 C 12,9 km/h (3 Bft) 100,00 %
19.02.2016 21:14 3,3 C 88 % 1022,5 hPa 0,0 l/m 7,3 km/h (2 Bft) W-SW 244 0 min 0,000 mm 0,0 UV-I 0 W/m 1,5 C 2,5 C 12,9 km/h (3 Bft) 100,00 %
19.02.2016 21:15 3,3 C 88 % 1022,5 hPa 0,0 l/m 8,2 km/h (2 Bft) SW 223 0 min 0,000 mm 0,0 UV-I 0 W/m 1,5 C 1,6 C 9,7 km/h (2 Bft) 96,67 %
19.02.2016 21:16 3,3 C 88 % 1022,5 hPa 0,0 l/m 8,0 km/h (2 Bft) SW 234 0 min 0,000 mm 0,0 UV-I 0 W/m 1,5 C 1,8 C 9,7 km/h (2 Bft) 100,00 %
19.02.2016 21:17 3,3 C 88 % 1022,5 hPa 0,0 l/m 6,2 km/h (2 Bft) S 189 0 min 0,000 mm 0,0 UV-I 0 W/m 1,5 C 3,3 C 8,0 km/h (2 Bft) 96,15 %
19.02.2016 21:18 3,3 C 88 % 1022,5 hPa 0,0 l/m 5,3 km/h (1 Bft) SW 236 0 min 0,000 mm 0,0 UV-I 0 W/m 1,5 C 3,3 C 9,7 km/h (2 Bft) 100,00 %
19.02.2016 21:19 3,3 C 88 % 1022,5 hPa 0,0 l/m 6,7 km/h (2 Bft) W-SW 242 0 min 0,000 mm 0,0 UV-I 0 W/m 1,5 C 3,0 C 9,7 km/h (2 Bft) 100,00 %
19.02.2016 21:20 3,3 C 88 % 1022,5 hPa 0,0 l/m 5,5 km/h (1 Bft) SW 217 0 min 0,000 mm 0,0 UV-I 0 W/m 1,5 C 3,3 C 8,0 km/h (2 Bft) 100,00 %
19.02.2016 21:21 3,3 C 88 % 1022,5 hPa 0,0 l/m 7,6 km/h (2 Bft) W-SW 239 0 min 0,000 mm 0,0 UV-I 0 W/m 1,5 C 2,2 C 12,9 km/h (3 Bft) 100,00 %
19.02.2016 21:22 3,3 C 88 % 1022,5 hPa 0,0 l/m 7,6 km/h (2 Bft) S-SW 208 0 min 0,000 mm 0,0 UV-I 0 W/m 1,5 C 2,2 C 9,7 km/h (2 Bft) 100,00 %
19.02.2016 21:23 3,3 C 88 % 1022,5 hPa 0,0 l/m 7,4 km/h (2 Bft) SW 228 0 min 0,000 mm 0,0 UV-I 0 W/m 1,5 C 2,4 C 11,3 km/h (2 Bft) 100,00 %
19.02.2016 21:24 3,3 C 88 % 1022,6 hPa 0,0 l/m 7,8 km/h (2 Bft) SW 223 0 min 0,000 mm 0,0 UV-I 0 W/m 1,5 C 2,0 C 11,3 km/h (2 Bft) 95,65 %
19.02.2016 21:25 3,3 C 88 % 1022,6 hPa 0,0 l/m 9,0 km/h (2 Bft) W-SW 247 0 min 0,000 mm 0,0 UV-I 0 W/m 1,5 C 1,0 C 11,3 km/h (2 Bft) 100,00 %
19.02.2016 21:26 3,3 C 88 % 1022,6 hPa 0,0 l/m 8,8 km/h (2 Bft) SW 226 0 min 0,000 mm 0,0 UV-I 0 W/m 1,5 C 1,1 C 12,9 km/h (3 Bft) 100,00 %
19.02.2016 21:27 3,3 C 88 % 1022,6 hPa 0,0 l/m 8,0 km/h (2 Bft) SW 229 0 min 0,000 mm 0,0 UV-I 0 W/m 1,5 C 1,8 C 9,7 km/h (2 Bft) 100,00 %
19.02.2016 21:28 3,3 C 88 % 1022,6 hPa 0,0 l/m 7,4 km/h (2 Bft) W-SW 244 0 min 0,000 mm 0,0 UV-I 0 W/m 1,5 C 2,4 C 11,3 km/h (2 Bft) 100,00 %
19.02.2016 21:29 3,3 C 88 % 1022,6 hPa 0,0 l/m 8,1 km/h (2 Bft) S-SW 207 0 min 0,000 mm 0,0 UV-I 0 W/m 1,5 C 1,7 C 14,5 km/h (3 Bft) 100,00 %
19.02.2016 21:30 3,3 C 88 % 1022,6 hPa 0,0 l/m 6,0 km/h (2 Bft) SW 235 0 min 0,000 mm 0,0 UV-I 0 W/m 1,5 C 3,3 C 9,7 km/h (2 Bft) 100,00 %
19.02.2016 21:31 3,3 C 88 % 1022,6 hPa 0,0 l/m 7,6 km/h (2 Bft) S-SW 212 0 min 0,000 mm 0,0 UV-I 0 W/m 1,5 C 2,2 C 11,3 km/h (2 Bft) 100,00 %
19.02.2016 21:32 3,3 C 88 % 1022,6 hPa 0,0 l/m 6,1 km/h (2 Bft) SW 236 0 min 0,000 mm 0,0 UV-I 0 W/m 1,5 C 3,3 C 9,7 km/h (2 Bft) 100,00 %
19.02.2016 21:33 3,3 C 88 % 1022,6 hPa 0,0 l/m 6,0 km/h (2 Bft) S 191 0 min 0,000 mm 0,0 UV-I 0 W/m 1,5 C 3,3 C 11,3 km/h (2 Bft) 100,00 %
19.02.2016 21:34 3,2 C 88 % 1022,6 hPa 0,0 l/m 9,2 km/h (2 Bft) SW 221 0 min 0,000 mm 0,0 UV-I 0 W/m 1,4 C 0,7 C 12,9 km/h (3 Bft) 100,00 %
19.02.2016 21:35 3,2 C 88 % 1022,6 hPa 0,0 l/m 9,0 km/h (2 Bft) W-SW 243 0 min 0,000 mm 0,0 UV-I 0 W/m 1,4 C 0,9 C 14,5 km/h (3 Bft) 95,65 %
19.02.2016 21:36 3,3 C 88 % 1022,6 hPa 0,0 l/m 7,0 km/h (2 Bft) SW 217 0 min 0,000 mm 0,0 UV-I 0 W/m 1,5 C 2,7 C 9,7 km/h (2 Bft) 100,00 %
19.02.2016 21:37 3,2 C 88 % 1022,6 hPa 0,0 l/m 10,1 km/h (2 Bft) SW 226 0 min 0,000 mm 0,0 UV-I 0 W/m 1,4 C 0,0 C 16,1 km/h (3 Bft) 95,65 %
19.02.2016 21:38 3,3 C 88 % 1022,6 hPa 0,0 l/m 11,7 km/h (2 Bft) SW 220 0 min 0,000 mm 0,0 UV-I 0 W/m 1,5 C -1,0 C 16,1 km/h (3 Bft) 100,00 %
19.02.2016 21:39 3,3 C 88 % 1022,6 hPa 0,0 l/m 8,8 km/h (2 Bft) W-SW 248 0 min 0,000 mm 0,0 UV-I 0 W/m 1,5 C 1,1 C 12,9 km/h (3 Bft) 100,00 %
19.02.2016 21:40 3,3 C 88 % 1022,6 hPa 0,0 l/m 7,6 km/h (2 Bft) W-SW 241 0 min 0,000 mm 0,0 UV-I 0 W/m 1,5 C 2,2 C 11,3 km/h (2 Bft) 100,00 %
19.02.2016 21:41 3,3 C 88 % 1022,6 hPa 0,0 l/m 9,9 km/h (2 Bft) W-SW 240 0 min 0,000 mm 0,0 UV-I 0 W/m 1,5 C 0,3 C 16,1 km/h (3 Bft) 96,15 %
19.02.2016 21:42 3,3 C 88 % 1022,6 hPa 0,0 l/m 7,4 km/h (2 Bft) S-SW 194 0 min 0,000 mm 0,0 UV-I 0 W/m 1,5 C 2,4 C 9,7 km/h (2 Bft) 100,00 %
19.02.2016 21:43 3,3 C 88 % 1022,6 hPa 0,0 l/m 9,1 km/h (2 Bft) SW 233 0 min 0,000 mm 0,0 UV-I 0 W/m 1,5 C 0,9 C 12,9 km/h (3 Bft) 100,00 %
19.02.2016 21:44 3,2 C 88 % 1022,6 hPa 0,0 l/m 9,9 km/h (2 Bft) SW 233 0 min 0,000 mm 0,0 UV-I 0 W/m 1,4 C 0,2 C 14,5 km/h (3 Bft) 93,33 %
19.02.2016 21:45 3,3 C 88 % 1022,6 hPa 0,0 l/m 7,1 km/h (2 Bft) SW 235 0 min 0,000 mm 0,0 UV-I 0 W/m 1,5 C 2,6 C 11,3 km/h (2 Bft) 92,31 %
19.02.2016 21:46 3,2 C 88 % 1022,7 hPa 0,0 l/m 8,0 km/h (2 Bft) SW 219 0 min 0,000 mm 0,0 UV-I 0 W/m 1,4 C 1,7 C 9,7 km/h (2 Bft) 96,30 %
19.02.2016 21:47 3,2 C 88 % 1022,7 hPa 0,0 l/m 7,5 km/h (2 Bft) SW 226 0 min 0,000 mm 0,0 UV-I 0 W/m 1,4 C 2,2 C 14,5 km/h (3 Bft) 92,86 %
19.02.2016 21:48 3,2 C 88 % 1022,6 hPa 0,0 l/m 10,3 km/h (2 Bft) S-SW 204 0 min 0,000 mm 0,0 UV-I 0 W/m 1,4 C -0,1 C 12,9 km/h (3 Bft) 100,00 %
19.02.2016 21:49 3,3 C 88 % 1022,7 hPa 0,0 l/m 8,3 km/h (2 Bft) S-SW 211 0 min 0,000 mm 0,0 UV-I 0 W/m 1,5 C 1,6 C 12,9 km/h (3 Bft) 92,31 %
19.02.2016 21:50 3,2 C 88 % 1022,6 hPa 0,0 l/m 6,6 km/h (2 Bft) S 182 0 min 0,000 mm 0,0 UV-I 0 W/m 1,4 C 3,0 C 14,5 km/h (3 Bft) 100,00 %
19.02.2016 21:51 3,2 C 88 % 1022,6 hPa 0,0 l/m 11,9 km/h (2 Bft) S-SO 166 0 min 0,000 mm 0,0 UV-I 0 W/m 1,4 C -1,3 C 17,7 km/h (3 Bft) 95,65 %
19.02.2016 21:52 3,2 C 88 % 1022,6 hPa 0,0 l/m 16,2 km/h (3 Bft) SW 235 0 min 0,000 mm 0,0 UV-I 0 W/m 1,4 C -3,7 C 24,1 km/h (4 Bft) 95,83 %
19.02.2016 21:53 3,2 C 88 % 1022,6 hPa 0,0 l/m 9,7 km/h (2 Bft) W-SW 255 0 min 0,000 mm 0,0 UV-I 0 W/m 1,4 C 0,3 C 16,1 km/h (3 Bft) 92,31 %
19.02.2016 21:54 3,2 C 88 % 1022,6 hPa 0,0 l/m 11,3 km/h (2 Bft) W-SW 238 0 min 0,000 mm 0,0 UV-I 0 W/m 1,4 C -0,8 C 19,3 km/h (3 Bft) 95,83 %
19.02.2016 21:55 3,2 C 88 % 1022,6 hPa 0,0 l/m 12,0 km/h (2 Bft) S-SW 204 0 min 0,000 mm 0,0 UV-I 0 W/m 1,4 C -1,3 C 16,1 km/h (3 Bft) 100,00 %
19.02.2016 21:56 3,2 C 88 % 1022,6 hPa 0,0 l/m 13,6 km/h (3 Bft) S 186 0 min 0,000 mm 0,0 UV-I 0 W/m 1,4 C -2,3 C 22,5 km/h (4 Bft) 96,15 %
19.02.2016 21:57 3,2 C 88 % 1022,7 hPa 0,0 l/m 13,8 km/h (3 Bft) S-SW 208 0 min 0,000 mm 0,0 UV-I 0 W/m 1,4 C -2,4 C 22,5 km/h (4 Bft) 100,00 %
19.02.2016 21:58 3,2 C 88 % 1022,6 hPa 0,0 l/m 12,6 km/h (3 Bft) S-SW 204 0 min 0,000 mm 0,0 UV-I 0 W/m 1,4 C -1,7 C 20,9 km/h (4 Bft) 92,31 %
19.02.2016 21:59 3,2 C 88 % 1022,6 hPa 0,0 l/m 17,3 km/h (3 Bft) SW 229 0 min 0,000 mm 0,0 UV-I 0 W/m 1,4 C -4,3 C 27,4 km/h (4 Bft) 100,00 %
19.02.2016 22:00 3,2 C 88 % 1022,7 hPa 0,0 l/m 12,7 km/h (3 Bft) SW 230 0 min 0,000 mm 0,0 UV-I 0 W/m 1,4 C -1,8 C 24,1 km/h (4 Bft) 90,91 %
19.02.2016 22:01 3,2 C 88 % 1022,7 hPa 0,0 l/m 11,6 km/h (2 Bft) SW 224 0 min 0,000 mm 0,0 UV-I 0 W/m 1,4 C -1,1 C 17,7 km/h (3 Bft) 96,30 %
19.02.2016 22:02 3,2 C 88 % 1022,6 hPa 0,0 l/m 16,7 km/h (3 Bft) W-SW 256 0 min 0,000 mm 0,0 UV-I 0 W/m 1,4 C -4,0 C 24,1 km/h (4 Bft) 96,15 %
19.02.2016 22:03 3,2 C 88 % 1022,6 hPa 0,0 l/m 14,0 km/h (3 Bft) SW 225 0 min 0,000 mm 0,0 UV-I 0 W/m 1,4 C -2,5 C 19,3 km/h (3 Bft) 100,00 %
19.02.2016 22:04 3,2 C 88 % 1022,6 hPa 0,0 l/m 12,3 km/h (3 Bft) S-SW 206 0 min 0,000 mm 0,0 UV-I 0 W/m 1,4 C -1,5 C 17,7 km/h (3 Bft) 96,88 %
19.02.2016 22:05 3,2 C 88 % 1022,6 hPa 0,0 l/m 16,3 km/h (3 Bft) SW 226 0 min 0,000 mm 0,0 UV-I 0 W/m 1,4 C -3,8 C 19,3 km/h (3 Bft) 96,30 %
19.02.2016 22:06 3,1 C 88 % 1022,6 hPa 0,0 l/m 12,3 km/h (3 Bft) W-SW 238 0 min 0,000 mm 0,0 UV-I 0 W/m 1,3 C -1,6 C 20,9 km/h (4 Bft) 100,00 %
19.02.2016 22:07 3,1 C 88 % 1022,6 hPa 0,0 l/m 8,5 km/h (2 Bft) S-SW 211 0 min 0,000 mm 0,0 UV-I 0 W/m 1,3 C 1,2 C 12,9 km/h (3 Bft) 95,83 %
19.02.2016 22:08 3,1 C 88 % 1022,6 hPa 0,0 l/m 10,5 km/h (2 Bft) SW 214 0 min 0,000 mm 0,0 UV-I 0 W/m 1,3 C -0,4 C 14,5 km/h (3 Bft) 100,00 %
19.02.2016 22:09 3,1 C 88 % 1022,6 hPa 0,0 l/m 16,8 km/h (3 Bft) SW 219 0 min 0,000 mm 0,0 UV-I 0 W/m 1,3 C -4,2 C 22,5 km/h (4 Bft) 95,83 %
19.02.2016 22:10 3,1 C 88 % 1022,7 hPa 0,0 l/m 17,6 km/h (3 Bft) SW 236 0 min 0,000 mm 0,0 UV-I 0 W/m 1,3 C -4,6 C 24,1 km/h (4 Bft) 100,00 %
19.02.2016 22:11 3,0 C 88 % 1022,6 hPa 0,0 l/m 14,5 km/h (3 Bft) SW 232 0 min 0,000 mm 0,0 UV-I 0 W/m 1,2 C -3,1 C 19,3 km/h (3 Bft) 96,30 %
19.02.2016 22:12 3,0 C 88 % 1022,6 hPa 0,0 l/m 12,2 km/h (2 Bft) SW 234 0 min 0,000 mm 0,0 UV-I 0 W/m 1,2 C -1,7 C 19,3 km/h (3 Bft) 91,30 %
19.02.2016 22:13 3,0 C 88 % 1022,6 hPa 0,0 l/m 12,5 km/h (3 Bft) SW 215 0 min 0,000 mm 0,0 UV-I 0 W/m 1,2 C -1,9 C 16,1 km/h (3 Bft) 91,67 %
19.02.2016 22:14 3,0 C 88 % 1022,7 hPa 0,0 l/m 10,9 km/h (2 Bft) W-SW 245 0 min 0,000 mm 0,0 UV-I 0 W/m 1,2 C -0,8 C 12,9 km/h (3 Bft) 96,67 %
19.02.2016 22:15 3,0 C 88 % 1022,7 hPa 0,0 l/m 14,2 km/h (3 Bft) SW 228 0 min 0,000 mm 0,0 UV-I 0 W/m 1,2 C -2,9 C 20,9 km/h (4 Bft) 100,00 %
19.02.2016 22:16 3,0 C 88 % 1022,6 hPa 0,0 l/m 12,0 km/h (2 Bft) SW 231 0 min 0,000 mm 0,0 UV-I 0 W/m 1,2 C -1,5 C 16,1 km/h (3 Bft) 98,31 %
19.02.2016 22:17 2,9 C 89 % 1022,6 hPa 0,0 l/m 13,1 km/h (3 Bft) SW 232 0 min 0,000 mm 0,0 UV-I 0 W/m 1,3 C -2,4 C 17,7 km/h (3 Bft) 97,56 %
19.02.2016 22:18 3,0 C 89 % 1022,6 hPa 0,0 l/m 11,0 km/h (2 Bft) SW 236 0 min 0,000 mm 0,0 UV-I 0 W/m 1,4 C -0,9 C 14,5 km/h (3 Bft) 100,00 %
19.02.2016 22:19 2,9 C 89 % 1022,6 hPa 0,0 l/m 14,1 km/h (3 Bft) W-SW 238 0 min 0,000 mm 0,0 UV-I 0 W/m 1,3 C -3,0 C 16,1 km/h (3 Bft) 100,00 %
19.02.2016 22:20 2,9 C 89 % 1022,6 hPa 0,0 l/m 10,7 km/h (2 Bft) SW 230 0 min 0,000 mm 0,0 UV-I 0 W/m 1,3 C -0,8 C 14,5 km/h (3 Bft) 96,30 %
19.02.2016 22:21 2,9 C 89 % 1022,6 hPa 0,0 l/m 8,9 km/h (2 Bft) SW 232 0 min 0,000 mm 0,0 UV-I 0 W/m 1,3 C 0,6 C 12,9 km/h (3 Bft) 100,00 %
19.02.2016 22:22 2,9 C 89 % 1022,6 hPa 0,0 l/m 11,7 km/h (2 Bft) SW 228 0 min 0,000 mm 0,0 UV-I 0 W/m 1,3 C -1,5 C 19,3 km/h (3 Bft) 100,00 %
19.02.2016 22:23 2,9 C 89 % 1022,6 hPa 0,0 l/m 14,6 km/h (3 Bft) W-SW 239 0 min 0,000 mm 0,0 UV-I 0 W/m 1,3 C -3,2 C 19,3 km/h (3 Bft) 96,15 %
19.02.2016 22:24 2,9 C 89 % 1022,6 hPa 0,0 l/m 12,6 km/h (3 Bft) W-SW 240 0 min 0,000 mm 0,0 UV-I 0 W/m 1,3 C -2,1 C 17,7 km/h (3 Bft) 100,00 %
19.02.2016 22:25 2,9 C 89 % 1022,7 hPa 0,0 l/m 15,9 km/h (3 Bft) SW 236 0 min 0,000 mm 0,0 UV-I 0 W/m 1,3 C -4,0 C 20,9 km/h (4 Bft) 100,00 %
19.02.2016 22:26 2,9 C 89 % 1022,7 hPa 0,0 l/m 12,3 km/h (3 Bft) SW 215 0 min 0,000 mm 0,0 UV-I 0 W/m 1,3 C -1,9 C 16,1 km/h (3 Bft) 100,00 %
19.02.2016 22:27 2,9 C 89 % 1022,7 hPa 0,0 l/m 13,2 km/h (3 Bft) W-SW 238 0 min 0,000 mm 0,0 UV-I 0 W/m 1,3 C -2,4 C 17,7 km/h (3 Bft) 100,00 %
19.02.2016 22:28 2,9 C 89 % 1022,7 hPa 0,0 l/m 15,3 km/h (3 Bft) SW 231 0 min 0,000 mm 0,0 UV-I 0 W/m 1,3 C -3,6 C 20,9 km/h (4 Bft) 100,00 %
19.02.2016 22:29 2,9 C 89 % 1022,7 hPa 0,0 l/m 10,8 km/h (2 Bft) W-SW 248 0 min 0,000 mm 0,0 UV-I 0 W/m 1,3 C -0,8 C 14,5 km/h (3 Bft) 96,15 %
19.02.2016 22:30 2,9 C 89 % 1022,7 hPa 0,0 l/m 11,8 km/h (2 Bft) SW 223 0 min 0,000 mm 0,0 UV-I 0 W/m 1,3 C -1,5 C 17,7 km/h (3 Bft) 100,00 %
19.02.2016 22:31 2,9 C 89 % 1022,7 hPa 0,0 l/m 13,8 km/h (3 Bft) SW 225 0 min 0,000 mm 0,0 UV-I 0 W/m 1,3 C -2,8 C 19,3 km/h (3 Bft) 100,00 %
19.02.2016 22:32 2,9 C 89 % 1022,7 hPa 0,0 l/m 13,6 km/h (3 Bft) SW 223 0 min 0,000 mm 0,0 UV-I 0 W/m 1,3 C -2,7 C 19,3 km/h (3 Bft) 100,00 %
19.02.2016 22:33 2,9 C 89 % 1022,7 hPa 0,0 l/m 9,5 km/h (2 Bft) W-SW 242 0 min 0,000 mm 0,0 UV-I 0 W/m 1,3 C 0,1 C 12,9 km/h (3 Bft) 100,00 %
19.02.2016 22:34 2,9 C 89 % 1022,7 hPa 0,0 l/m 9,7 km/h (2 Bft) SW 231 0 min 0,000 mm 0,0 UV-I 0 W/m 1,3 C -0,0 C 16,1 km/h (3 Bft) 100,00 %
19.02.2016 22:35 2,9 C 89 % 1022,7 hPa 0,0 l/m 10,5 km/h (2 Bft) W-SW 250 0 min 0,000 mm 0,0 UV-I 0 W/m 1,3 C -0,6 C 14,5 km/h (3 Bft) 100,00 %
19.02.2016 22:36 2,9 C 89 % 1022,8 hPa 0,0 l/m 11,2 km/h (2 Bft) SW 229 0 min 0,000 mm 0,0 UV-I 0 W/m 1,3 C -1,1 C 17,7 km/h (3 Bft) 100,00 %
19.02.2016 22:37 2,9 C 89 % 1022,8 hPa 0,0 l/m 11,1 km/h (2 Bft) SW 226 0 min 0,000 mm 0,0 UV-I 0 W/m 1,3 C -1,0 C 16,1 km/h (3 Bft) 100,00 %
19.02.2016 22:38 3,0 C 89 % 1022,8 hPa 0,0 l/m 13,4 km/h (3 Bft) W-SW 249 0 min 0,000 mm 0,0 UV-I 0 W/m 1,4 C -2,4 C 19,3 km/h (3 Bft) 100,00 %
19.02.2016 22:39 3,0 C 89 % 1022,8 hPa 0,0 l/m 8,1 km/h (2 Bft) SW 226 0 min 0,000 mm 0,0 UV-I 0 W/m 1,4 C 1,4 C 12,9 km/h (3 Bft) 100,00 %
19.02.2016 22:40 3,0 C 89 % 1022,8 hPa 0,0 l/m 12,9 km/h (3 Bft) W-SW 255 0 min 0,000 mm 0,0 UV-I 0 W/m 1,4 C -2,1 C 16,1 km/h (3 Bft) 100,00 %
19.02.2016 22:41 3,0 C 89 % 1022,8 hPa 0,0 l/m 12,2 km/h (2 Bft) W-SW 252 0 min 0,000 mm 0,0 UV-I 0 W/m 1,4 C -1,7 C 16,1 km/h (3 Bft) 100,00 %
19.02.2016 22:42 3,0 C 89 % 1022,8 hPa 0,0 l/m 9,7 km/h (2 Bft) W-SW 238 0 min 0,000 mm 0,0 UV-I 0 W/m 1,4 C 0,1 C 12,9 km/h (3 Bft) 100,00 %
19.02.2016 22:43 3,0 C 89 % 1022,8 hPa 0,0 l/m 9,1 km/h (2 Bft) W-SW 255 0 min 0,000 mm 0,0 UV-I 0 W/m 1,4 C 0,6 C 14,5 km/h (3 Bft) 91,67 %
19.02.2016 22:44 3,0 C 89 % 1022,8 hPa 0,0 l/m 9,9 km/h (2 Bft) SW 231 0 min 0,000 mm 0,0 UV-I 0 W/m 1,4 C -0,1 C 16,1 km/h (3 Bft) 96,55 %
19.02.2016 22:45 3,0 C 89 % 1022,8 hPa 0,0 l/m 10,7 km/h (2 Bft) SW 229 0 min 0,000 mm 0,0 UV-I 0 W/m 1,4 C -0,7 C 14,5 km/h (3 Bft) 100,00 %
19.02.2016 22:46 3,0 C 89 % 1022,8 hPa 0,0 l/m 11,2 km/h (2 Bft) W-SW 253 0 min 0,000 mm 0,0 UV-I 0 W/m 1,4 C -1,0 C 14,5 km/h (3 Bft) 98,34 %
19.02.2016 22:47 3,0 C 89 % 1022,8 hPa 0,0 l/m 11,3 km/h (2 Bft) W-SW 246 0 min 0,000 mm 0,0 UV-I 0 W/m 1,4 C -1,1 C 16,1 km/h (3 Bft) 97,73 %
19.02.2016 22:48 3,0 C 89 % 1022,8 hPa 0,0 l/m 10,2 km/h (2 Bft) W-SW 244 0 min 0,000 mm 0,0 UV-I 0 W/m 1,4 C -0,3 C 14,5 km/h (3 Bft) 100,00 %
19.02.2016 22:49 3,0 C 88 % 1022,8 hPa 0,0 l/m 16,2 km/h (3 Bft) SW 236 0 min 0,000 mm 0,0 UV-I 0 W/m 1,2 C -4,0 C 22,5 km/h (4 Bft) 100,00 %
19.02.2016 22:50 3,1 C 88 % 1022,8 hPa 0,0 l/m 13,8 km/h (3 Bft) SW 217 0 min 0,000 mm 0,0 UV-I 0 W/m 1,3 C -2,5 C 19,3 km/h (3 Bft) 100,00 %
19.02.2016 22:51 3,1 C 88 % 1022,8 hPa 0,0 l/m 12,4 km/h (3 Bft) W-SW 246 0 min 0,000 mm 0,0 UV-I 0 W/m 1,3 C -1,7 C 20,9 km/h (4 Bft) 100,00 %
19.02.2016 22:52 3,1 C 88 % 1022,9 hPa 0,0 l/m 16,5 km/h (3 Bft) W-SW 256 0 min 0,000 mm 0,0 UV-I 0 W/m 1,3 C -4,0 C 20,9 km/h (4 Bft) 100,00 %
19.02.2016 22:53 3,1 C 87 % 1022,8 hPa 0,0 l/m 12,5 km/h (3 Bft) W 265 0 min 0,000 mm 0,0 UV-I 0 W/m 1,2 C -1,8 C 16,1 km/h (3 Bft) 96,30 %
19.02.2016 22:54 3,1 C 87 % 1022,9 hPa 0,0 l/m 7,6 km/h (2 Bft) W 268 0 min 0,000 mm 0,0 UV-I 0 W/m 1,2 C 2,0 C 11,3 km/h (2 Bft) 100,00 %
19.02.2016 22:55 3,1 C 87 % 1022,9 hPa 0,0 l/m 6,8 km/h (2 Bft) SW 234 0 min 0,000 mm 0,0 UV-I 0 W/m 1,2 C 2,7 C 11,3 km/h (2 Bft) 100,00 %
19.02.2016 22:56 3,1 C 87 % 1022,9 hPa 0,0 l/m 13,7 km/h (3 Bft) W-SW 241 0 min 0,000 mm 0,0 UV-I 0 W/m 1,2 C -2,5 C 19,3 km/h (3 Bft) 100,00 %
19.02.2016 22:57 3,1 C 87 % 1022,9 hPa 0,0 l/m 12,3 km/h (3 Bft) W-NW 290 0 min 0,000 mm 0,0 UV-I 0 W/m 1,2 C -1,6 C 16,1 km/h (3 Bft) 95,65 %
19.02.2016 22:58 3,1 C 86 % 1022,9 hPa 0,0 l/m 19,6 km/h (3 Bft) W-NW 282 0 min 0,000 mm 0,0 UV-I 0 W/m 1,0 C -5,5 C 27,4 km/h (4 Bft) 100,00 %
19.02.2016 22:59 3,1 C 86 % 1023,0 hPa 0,0 l/m 16,0 km/h (3 Bft) W-SW 252 0 min 0,000 mm 0,0 UV-I 0 W/m 1,0 C -3,8 C 19,3 km/h (3 Bft) 100,00 %
19.02.2016 23:00 3,1 C 85 % 1023,0 hPa 0,0 l/m 13,5 km/h (3 Bft) W 272 0 min 0,000 mm 0,0 UV-I 0 W/m 0,8 C -2,4 C 24,1 km/h (4 Bft) 96,30 %
19.02.2016 23:01 3,2 C 85 % 1023,0 hPa 0,0 l/m 10,9 km/h (2 Bft) W-SW 241 0 min 0,026 mm 0,0 UV-I 0 W/m 0,9 C -0,6 C 12,9 km/h (3 Bft) 100,00 %
19.02.2016 23:02 3,2 C 85 % 1022,9 hPa 0,0 l/m 10,7 km/h (2 Bft) W-SW 249 0 min 0,000 mm 0,0 UV-I 0 W/m 0,9 C -0,4 C 16,1 km/h (3 Bft) 100,00 %
19.02.2016 23:03 3,2 C 85 % 1023,0 hPa 0,0 l/m 16,2 km/h (3 Bft) W-SW 251 0 min 0,000 mm 0,0 UV-I 0 W/m 0,9 C -3,7 C 20,9 km/h (4 Bft) 100,00 %
19.02.2016 23:04 3,2 C 85 % 1023,0 hPa 0,0 l/m 12,4 km/h (3 Bft) W 280 0 min 0,000 mm 0,0 UV-I 0 W/m 0,9 C -1,6 C 17,7 km/h (3 Bft) 100,00 %
19.02.2016 23:05 3,2 C 85 % 1023,0 hPa 0,0 l/m 19,7 km/h (3 Bft) W-SW 250 0 min 0,000 mm 0,0 UV-I 0 W/m 0,9 C -5,4 C 27,4 km/h (4 Bft) 95,65 %
19.02.2016 23:06 3,2 C 85 % 1023,0 hPa 0,0 l/m 18,0 km/h (3 Bft) W 267 0 min 0,000 mm 0,0 UV-I 0 W/m 0,9 C -4,6 C 22,5 km/h (4 Bft) 96,30 %
19.02.2016 23:07 3,1 C 85 % 1023,0 hPa 0,0 l/m 17,0 km/h (3 Bft) W-SW 252 0 min 0,000 mm 0,0 UV-I 0 W/m 0,8 C -4,3 C 20,9 km/h (4 Bft) 100,00 %
19.02.2016 23:08 3,1 C 85 % 1023,0 hPa 0,0 l/m 18,7 km/h (3 Bft) W 264 0 min 0,000 mm 0,0 UV-I 0 W/m 0,8 C -5,1 C 22,5 km/h (4 Bft) 95,83 %
19.02.2016 23:09 3,1 C 84 % 1023,0 hPa 0,0 l/m 13,4 km/h (3 Bft) W 260 0 min 0,000 mm 0,0 UV-I 0 W/m 0,7 C -2,3 C 17,7 km/h (3 Bft) 95,65 %
19.02.2016 23:10 3,1 C 85 % 1023,0 hPa 0,0 l/m 11,8 km/h (2 Bft) NW 305 0 min 0,000 mm 0,0 UV-I 0 W/m 0,8 C -1,3 C 16,1 km/h (3 Bft) 100,00 %
19.02.2016 23:11 3,1 C 85 % 1023,0 hPa 0,0 l/m 11,8 km/h (2 Bft) W-SW 254 0 min 0,000 mm 0,0 UV-I 0 W/m 0,8 C -1,3 C 17,7 km/h (3 Bft) 91,67 %
19.02.2016 23:12 3,1 C 85 % 1023,0 hPa 0,0 l/m 12,4 km/h (3 Bft) W-SW 258 0 min 0,000 mm 0,0 UV-I 0 W/m 0,8 C -1,7 C 17,7 km/h (3 Bft) 96,88 %
19.02.2016 23:13 3,0 C 85 % 1023,0 hPa 0,0 l/m 16,9 km/h (3 Bft) W-SW 250 0 min 0,000 mm 0,0 UV-I 0 W/m 0,7 C -4,3 C 20,9 km/h (4 Bft) 100,00 %
19.02.2016 23:14 3,0 C 85 % 1023,0 hPa 0,0 l/m 16,2 km/h (3 Bft) W-SW 254 0 min 0,000 mm 0,0 UV-I 0 W/m 0,7 C -4,0 C 20,9 km/h (4 Bft) 100,00 %
19.02.2016 23:15 3,0 C 85 % 1023,0 hPa 0,0 l/m 14,2 km/h (3 Bft) W 263 0 min 0,000 mm 0,0 UV-I 0 W/m 0,7 C -2,9 C 20,9 km/h (4 Bft) 100,00 %
19.02.2016 23:16 2,9 C 85 % 1023,0 hPa 0,0 l/m 6,5 km/h (2 Bft) NW 304 0 min 0,000 mm 0,0 UV-I 0 W/m 0,6 C 2,8 C 9,7 km/h (2 Bft) 100,00 %
19.02.2016 23:17 2,9 C 85 % 1023,0 hPa 0,0 l/m 9,3 km/h (2 Bft) W-SW 258 0 min 0,000 mm 0,0 UV-I 0 W/m 0,6 C 0,3 C 12,9 km/h (3 Bft) 98,34 %
19.02.2016 23:18 2,9 C 86 % 1023,0 hPa 0,0 l/m 13,5 km/h (3 Bft) W-SW 249 0 min 0,000 mm 0,0 UV-I 0 W/m 0,8 C -2,6 C 17,7 km/h (3 Bft) 100,00 %
19.02.2016 23:19 2,9 C 85 % 1023,0 hPa 0,0 l/m 12,1 km/h (2 Bft) W 259 0 min 0,000 mm 0,0 UV-I 0 W/m 0,6 C -1,7 C 17,7 km/h (3 Bft) 100,00 %
19.02.2016 23:20 2,9 C 85 % 1023,0 hPa 0,0 l/m 12,6 km/h (3 Bft) W-SW 240 0 min 0,000 mm 0,0 UV-I 0 W/m 0,6 C -2,1 C 17,7 km/h (3 Bft) 100,00 %
19.02.2016 23:21 2,9 C 85 % 1023,0 hPa 0,0 l/m 11,5 km/h (2 Bft) W 272 0 min 0,000 mm 0,0 UV-I 0 W/m 0,6 C -1,3 C 16,1 km/h (3 Bft) 100,00 %
19.02.2016 23:22 2,9 C 85 % 1023,0 hPa 0,0 l/m 14,3 km/h (3 Bft) W-SW 256 0 min 0,000 mm 0,0 UV-I 0 W/m 0,6 C -3,1 C 17,7 km/h (3 Bft) 100,00 %
19.02.2016 23:23 2,9 C 85 % 1023,0 hPa 0,0 l/m 15,8 km/h (3 Bft) W 261 0 min 0,000 mm 0,0 UV-I 0 W/m 0,6 C -3,9 C 19,3 km/h (3 Bft) 100,00 %
19.02.2016 23:24 2,9 C 85 % 1023,0 hPa 0,0 l/m 13,2 km/h (3 Bft) W-SW 254 0 min 0,000 mm 0,0 UV-I 0 W/m 0,6 C -2,4 C 16,1 km/h (3 Bft) 95,65 %
19.02.2016 23:25 2,9 C 85 % 1023,1 hPa 0,0 l/m 11,1 km/h (2 Bft) W 265 0 min 0,000 mm 0,0 UV-I 0 W/m 0,6 C -1,0 C 16,1 km/h (3 Bft) 100,00 %
19.02.2016 23:26 2,9 C 85 % 1023,1 hPa 0,0 l/m 10,9 km/h (2 Bft) W-SW 243 0 min 0,000 mm 0,0 UV-I 0 W/m 0,6 C -0,9 C 17,7 km/h (3 Bft) 100,00 %
19.02.2016 23:27 2,9 C 85 % 1023,1 hPa 0,0 l/m 15,7 km/h (3 Bft) W 267 0 min 0,000 mm 0,0 UV-I 0 W/m 0,6 C -3,8 C 22,5 km/h (4 Bft) 100,00 %
19.02.2016 23:28 2,9 C 85 % 1023,1 hPa 0,0 l/m 12,7 km/h (3 Bft) W 273 0 min 0,000 mm 0,0 UV-I 0 W/m 0,6 C -2,1 C 17,7 km/h (3 Bft) 100,00 %
19.02.2016 23:29 2,9 C 85 % 1023,1 hPa 0,0 l/m 14,6 km/h (3 Bft) SW 223 0 min 0,000 mm 0,0 UV-I 0 W/m 0,6 C -3,2 C 19,3 km/h (3 Bft) 96,30 %
19.02.2016 23:30 2,9 C 85 % 1023,1 hPa 0,0 l/m 12,1 km/h (2 Bft) W-SW 251 0 min 0,000 mm 0,0 UV-I 0 W/m 0,6 C -1,7 C 16,1 km/h (3 Bft) 100,00 %
19.02.2016 23:31 2,9 C 85 % 1023,1 hPa 0,0 l/m 10,4 km/h (2 Bft) W-SW 248 0 min 0,000 mm 0,0 UV-I 0 W/m 0,6 C -0,5 C 14,5 km/h (3 Bft) 100,00 %
19.02.2016 23:32 2,9 C 85 % 1023,1 hPa 0,0 l/m 14,3 km/h (3 Bft) W 263 0 min 0,000 mm 0,0 UV-I 0 W/m 0,6 C -3,1 C 19,3 km/h (3 Bft) 100,00 %
19.02.2016 23:33 2,9 C 85 % 1023,1 hPa 0,0 l/m 12,6 km/h (3 Bft) W 273 0 min 0,000 mm 0,0 UV-I 0 W/m 0,6 C -2,1 C 19,3 km/h (3 Bft) 100,00 %
19.02.2016 23:34 2,9 C 85 % 1023,1 hPa 0,0 l/m 18,4 km/h (3 Bft) W 259 0 min 0,000 mm 0,0 UV-I 0 W/m 0,6 C -5,2 C 25,7 km/h (4 Bft) 96,88 %
19.02.2016 23:35 2,9 C 84 % 1023,1 hPa 0,0 l/m 11,7 km/h (2 Bft) W-SW 242 0 min 0,000 mm 0,0 UV-I 0 W/m 0,5 C -1,5 C 20,9 km/h (4 Bft) 100,00 %
19.02.2016 23:36 2,9 C 84 % 1023,1 hPa 0,0 l/m 17,0 km/h (3 Bft) SW 229 0 min 0,000 mm 0,0 UV-I 0 W/m 0,5 C -4,5 C 24,1 km/h (4 Bft) 100,00 %
19.02.2016 23:37 2,9 C 84 % 1023,1 hPa 0,0 l/m 15,0 km/h (3 Bft) W 262 0 min 0,000 mm 0,0 UV-I 0 W/m 0,5 C -3,5 C 19,3 km/h (3 Bft) 100,00 %
19.02.2016 23:38 2,9 C 84 % 1023,1 hPa 0,0 l/m 13,9 km/h (3 Bft) W-SW 251 0 min 0,000 mm 0,0 UV-I 0 W/m 0,5 C -2,8 C 17,7 km/h (3 Bft) 100,00 %
19.02.2016 23:39 2,9 C 84 % 1023,2 hPa 0,0 l/m 15,4 km/h (3 Bft) SW 236 0 min 0,000 mm 0,0 UV-I 0 W/m 0,5 C -3,7 C 20,9 km/h (4 Bft) 100,00 %
19.02.2016 23:40 2,9 C 84 % 1023,2 hPa 0,0 l/m 13,0 km/h (3 Bft) W-NW 295 0 min 0,000 mm 0,0 UV-I 0 W/m 0,5 C -2,3 C 17,7 km/h (3 Bft) 100,00 %
19.02.2016 23:41 2,9 C 84 % 1023,2 hPa 0,0 l/m 13,3 km/h (3 Bft) W 263 0 min 0,000 mm 0,0 UV-I 0 W/m 0,5 C -2,5 C 16,1 km/h (3 Bft) 100,00 %
19.02.2016 23:42 2,9 C 84 % 1023,2 hPa 0,0 l/m 11,0 km/h (2 Bft) W-SW 242 0 min 0,000 mm 0,0 UV-I 0 W/m 0,5 C -1,0 C 14,5 km/h (3 Bft) 100,00 %
19.02.2016 23:43 2,9 C 84 % 1023,2 hPa 0,0 l/m 13,0 km/h (3 Bft) W 272 0 min 0,000 mm 0,0 UV-I 0 W/m 0,5 C -2,3 C 16,1 km/h (3 Bft) 100,00 %
19.02.2016 23:44 2,9 C 84 % 1023,2 hPa 0,0 l/m 13,0 km/h (3 Bft) W 264 0 min 0,000 mm 0,0 UV-I 0 W/m 0,5 C -2,3 C 16,1 km/h (3 Bft) 100,00 %
19.02.2016 23:45 2,9 C 84 % 1023,3 hPa 0,0 l/m 12,4 km/h (3 Bft) W 263 0 min 0,000 mm 0,0 UV-I 0 W/m 0,5 C -1,9 C 17,7 km/h (3 Bft) 100,00 %
19.02.2016 23:46 2,9 C 84 % 1023,2 hPa 0,0 l/m 12,9 km/h (3 Bft) W-SW 244 0 min 0,000 mm 0,0 UV-I 0 W/m 0,5 C -2,2 C 20,9 km/h (4 Bft) 96,67 %
19.02.2016 23:47 2,9 C 84 % 1023,2 hPa 0,0 l/m 9,7 km/h (2 Bft) W 266 0 min 0,000 mm 0,0 UV-I 0 W/m 0,5 C -0,0 C 12,9 km/h (3 Bft) 92,31 %
19.02.2016 23:48 2,9 C 84 % 1023,3 hPa 0,0 l/m 15,1 km/h (3 Bft) W-SW 252 0 min 0,000 mm 0,0 UV-I 0 W/m 0,5 C -3,5 C 20,9 km/h (4 Bft) 100,00 %
19.02.2016 23:49 2,8 C 84 % 1023,3 hPa 0,0 l/m 16,4 km/h (3 Bft) W-SW 252 0 min 0,000 mm 0,0 UV-I 0 W/m 0,4 C -4,3 C 30,6 km/h (5 Bft) 95,65 %
19.02.2016 23:50 2,8 C 83 % 1023,3 hPa 0,0 l/m 13,9 km/h (3 Bft) W-SW 246 0 min 0,000 mm 0,0 UV-I 0 W/m 0,2 C -3,0 C 17,7 km/h (3 Bft) 100,00 %
19.02.2016 23:51 2,8 C 83 % 1023,3 hPa 0,0 l/m 14,3 km/h (3 Bft) W-SW 253 0 min 0,000 mm 0,0 UV-I 0 W/m 0,2 C -3,2 C 22,5 km/h (4 Bft) 86,96 %
19.02.2016 23:52 2,8 C 83 % 1023,3 hPa 0,0 l/m 14,8 km/h (3 Bft) W-SW 244 0 min 0,000 mm 0,0 UV-I 0 W/m 0,2 C -3,5 C 22,5 km/h (4 Bft) 100,00 %
19.02.2016 23:53 2,8 C 83 % 1023,2 hPa 0,0 l/m 12,4 km/h (3 Bft) W 261 0 min 0,000 mm 0,0 UV-I 0 W/m 0,2 C -2,0 C 20,9 km/h (4 Bft) 91,67 %
19.02.2016 23:54 2,8 C 83 % 1023,3 hPa 0,0 l/m 18,7 km/h (3 Bft) W-SW 250 0 min 0,000 mm 0,0 UV-I 0 W/m 0,2 C -5,4 C 24,1 km/h (4 Bft) 100,00 %
19.02.2016 23:55 2,8 C 83 % 1023,2 hPa 0,0 l/m 11,8 km/h (2 Bft) W-SW 245 0 min 0,000 mm 0,0 UV-I 0 W/m 0,2 C -1,6 C 17,7 km/h (3 Bft) 96,30 %
19.02.2016 23:56 2,8 C 83 % 1023,2 hPa 0,0 l/m 15,3 km/h (3 Bft) W 281 0 min 0,000 mm 0,0 UV-I 0 W/m 0,2 C -3,8 C 24,1 km/h (4 Bft) 96,15 %
19.02.2016 23:57 2,8 C 83 % 1023,2 hPa 0,0 l/m 12,6 km/h (3 Bft) W-SW 239 0 min 0,000 mm 0,0 UV-I 0 W/m 0,2 C -2,2 C 20,9 km/h (4 Bft) 100,00 %
19.02.2016 23:58 2,8 C 83 % 1023,2 hPa 0,0 l/m 13,8 km/h (3 Bft) W-SW 244 0 min 0,000 mm 0,0 UV-I 0 W/m 0,2 C -2,9 C 17,7 km/h (3 Bft) 95,65 %
19.02.2016 23:59 2,8 C 83 % 1023,2 hPa 0,0 l/m 9,7 km/h (2 Bft) W-SW 254 0 min 0,000 mm 0,0 UV-I 0 W/m 0,2 C -0,1 C 14,5 km/h (3 Bft) 100,00 %
_ Min-Zeit 00:00 14:10 00:05 - 13:41 - - - - - - 23:50 16:24 00:00 06:04
Minimum _ 2,8 C 70 % 1016,1 hPa - 2,3 km/h (1 Bft) - - - - - - 0,2 C -5,9 C 4,8 km/h (1 Bft) 86,96 %
_ Max-Zeit 14:03 00:46 23:45 00:00 15:14 - - 10:11 11:00 11:55 13:08 15:42 14:03 15:14 00:03
Maximum _ 6,6 C 89 % 1023,3 hPa 0,0 l/m 29,1 km/h
W-SW (5 Bft)
- - 1 min 0,102 mm 0,8 UV-I 299 W/m 2,5 C 6,6 C 45,1 km/h
W-SW (6 Bft)
100,00 %
Durchschnitt _ 3,9 C 84 % 1019,0 hPa #0,0 l/m 9,5 km/h (2 Bft) W-SW - #55 min. #0,686 mm 0,6 UV-I 111 W/m 1,4 C 1,3 C 13,6 km/h (3 Bft) 98,35 %